[[{"header":{"parameterUnit":"m.s-1","parameterCategory":1,"la1":31.0,"la2":29.5877,"lo1":-88.7671,"lo2":-86.6584,"dy":0.0162,"dx":0.0185,"nx":115,"ny":88,"refTime":"2024-04-01T18:00:00:Z","depth":0,"parameterNumber":2,"parameterNumberName":"U-component_of_WINDS"},"data":[0.0,0.0,0.0,0.0,0.0,0.0,0.0,0.0,0.0,0.0,0.0,0.0,0.0,0.0,0.0,0.0,0.0,0.0,0.0,0.0,0.0,0.0,0.0,0.0,0.0,0.0,0.0,0.0,0.0,0.0,0.0,0.0,0.0,0.0,0.0,0.0,0.0,0.0,0.0,0.0,0.0,0.0,0.0,0.0,0.0,0.0,0.0,0.0,0.0,0.0,0.0,0.0,0.0,0.0,0.0,0.0,0.0,0.0,0.0,0.0,0.0,0.0,0.0,0.0,0.0,0.0,0.0,0.0,0.0,0.0,0.0,0.0,0.0,0.0,0.0,0.0,0.0,0.0,0.0,0.0,0.0,0.0,0.0,0.0,0.0,0.0,0.0,0.0,0.0,0.0,0.0,0.0,0.0,0.0,0.0,0.0,0.0,0.0,0.0,0.0,0.0,0.0,0.0,0.0,0.0,0.0,0.0,0.0,0.0,0.0,0.0,0.0,0.0,0.0,0.0,0.0,0.0,0.0,0.0,0.0,0.0,0.0,0.0,0.0,0.0,0.0,0.0,0.0,0.0,0.0,0.0,0.0,0.0,0.0,0.0,0.0,0.0,0.0,0.0,0.0,0.0,0.0,0.0,0.0,0.0,0.0,0.0,0.0,0.0,0.0,0.0,0.0,0.0,0.0,0.0,0.0,0.0,0.0,0.0,0.0,0.0,0.0,0.0,0.0,0.0,0.0,0.0,0.0,0.0,0.0,0.0,0.0,0.0,0.0,0.0,0.0,0.0,0.0,0.0,0.0,0.0,0.0,0.0,0.0,0.0,0.0,0.0,0.0,0.0,0.0,0.0,0.0,0.0,0.0,0.0,0.0,0.0,0.0,0.0,0.0,0.0,0.0,0.0,0.0,0.0,0.0,0.0,0.0,0.0,0.0,0.0,0.0,0.0,0.0,0.0,0.0,0.0,0.0,0.0,0.0,0.0,0.0,0.0,0.0,0.0,0.0,0.0,0.0,0.0,0.0,0.0,0.0,0.0,0.0,0.0,0.0,0.0,0.0,0.0,0.0,0.0,0.0,0.0,0.0,0.0,0.0,0.0,0.0,0.0,0.0,0.0,0.0,0.0,0.0,0.0,0.0,0.0,0.0,0.0,0.0,0.0,0.0,0.0,0.0,0.0,0.0,0.0,0.0,0.0,0.0,0.0,0.0,0.0,0.0,0.0,0.0,0.0,0.0,0.0,0.0,0.0,0.0,0.0,0.0,0.0,0.0,0.0,0.0,0.0,0.0,0.0,0.0,0.0,0.0,0.0,0.0,0.0,0.0,0.0,0.0,0.0,0.0,0.0,0.0,0.0,0.0,0.0,0.0,0.0,0.0,0.0,0.0,0.0,0.0,0.0,0.0,0.0,0.0,0.0,0.0,0.0,0.0,0.0,0.0,0.0,0.0,0.0,0.0,0.0,0.0,0.0,0.0,0.0,0.0,0.0,0.0,0.0,0.0,0.0,0.0,0.0,0.0,0.0,0.0,0.0,0.0,0.0,0.0,0.0,0.0,0.0,0.0,0.0,0.0,0.0,0.0,0.0,0.0,0.0,0.0,0.0,0.0,0.0,0.0,0.0,0.0,0.0,0.0,0.0,0.0,0.0,0.0,0.0,0.0,0.0,0.0,0.0,0.0,0.0,0.0,0.0,0.0,0.0,0.0,0.0,0.0,0.0,0.0,0.0,0.0,0.0,0.0,0.0,0.0,0.0,0.0,0.0,0.0,0.0,0.0,0.0,0.0,0.0,0.0,0.0,0.0,0.0,0.0,0.0,0.0,0.0,0.0,0.0,0.0,0.0,0.0,0.0,0.0,0.0,0.0,0.0,0.0,0.0,0.0,0.0,0.0,0.0,0.0,0.0,0.0,0.0,0.0,0.0,0.0,0.0,0.0,0.0,0.0,0.0,0.0,0.0,0.0,0.0,0.0,0.0,0.0,0.0,0.0,0.0,0.0,0.0,0.0,0.0,0.0,0.0,0.0,0.0,0.0,0.0,0.0,0.0,0.0,0.0,0.0,0.0,0.0,0.0,0.0,0.0,0.0,0.0,0.0,0.0,0.0,0.0,0.0,0.0,0.0,0.0,0.0,0.0,0.0,0.0,0.0,0.0,0.0,0.0,0.0,0.0,0.0,0.0,0.0,0.0,0.0,0.0,0.0,0.0,0.0,0.0,0.0,0.0,0.0,0.0,0.0,0.0,0.0,0.0,0.0,0.0,0.0,0.0,0.0,0.0,0.0,0.0,0.0,0.0,0.0,0.0,0.0,0.0,0.0,0.0,0.0,0.0,0.0,0.0,0.0,0.0,0.0,0.0,0.0,0.0,0.0,0.0,0.0,0.0,0.0,0.0,0.0,0.0,0.0,0.0,0.0,0.0,0.0,0.0,0.0,0.0,0.0,0.0,0.0,0.0,0.0,0.0,0.0,0.0,0.0,0.0,0.0,0.0,0.0,0.0,0.0,0.0,0.0,0.0,0.0,0.0,0.0,0.0,0.0,0.0,0.0,0.0,0.0,0.0,0.0,0.0,0.0,0.0,0.0,0.0,0.0,0.0,0.0,0.0,0.0,0.0,0.0,0.0,0.0,0.0,0.0,0.0,0.0,0.0,0.0,0.0,0.0,0.0,0.0,0.0,0.0,0.0,0.0,0.0,0.0,0.0,0.0,0.0,0.0,0.0,0.0,0.0,0.0,0.0,0.0,0.0,0.0,0.0,0.0,0.0,0.0,0.0,0.0,0.0,0.0,0.0,0.0,0.0,0.0,0.0,0.0,0.0,0.0,0.0,0.0,0.0,0.0,0.0,0.0,0.0,0.0,0.0,0.0,0.0,0.0,0.0,0.0,0.0,0.0,0.0,0.0,0.0,0.0,0.0,0.0,0.0,0.0,0.0,0.0,0.0,0.0,0.0,0.0,0.0,0.0,0.0,0.0,0.0,0.0,0.0,0.0,0.0,0.0,0.0,0.0,0.0,0.0,0.0,0.0,0.0,0.0,0.0,0.0,0.0,0.0,0.0,0.0,0.0,0.0,0.0,0.0,0.0,0.0,0.0,0.0,0.0,0.0,0.0,0.0,0.0,0.0,0.0,0.0,0.0,0.0,0.0,0.0,0.0,0.0,0.0,0.0,0.0,0.0,0.0,0.0,0.0,0.0,0.0,0.0,0.0,0.0,0.0,0.0,0.0,0.0,0.0,0.0,0.0,0.0,0.0,0.0,0.0,0.0,0.0,0.0,0.0,0.0,0.0,0.0,0.0,0.0,0.0,0.0,0.0,0.0,0.0,0.0,0.0,0.0,0.0,0.0,0.0,0.0,0.0,0.0,0.0,0.0,0.0,0.0,0.0,0.0,0.0,0.0,0.0,0.0,0.0,0.0,0.0,0.0,0.0,0.0,0.0,0.0,0.0,0.0,0.0,0.0,0.0,0.0,0.0,0.0,0.0,0.0,0.0,0.0,0.0,0.0,0.0,0.0,0.0,0.0,0.0,0.0,0.0,0.0,0.0,0.0,0.0,0.0,0.0,0.0,0.0,0.0,0.0,0.0,0.0,0.0,0.0,0.0,0.0,0.0,0.0,0.0,0.0,0.0,0.0,0.0,0.0,0.0,0.0,0.0,0.0,0.0,0.0,0.0,0.0,0.0,0.0,0.0,0.0,0.0,0.0,0.0,0.0,0.0,0.0,0.0,0.0,0.0,0.0,0.0,0.0,0.0,0.0,0.0,0.0,0.0,0.0,0.0,0.0,0.0,0.0,0.0,0.0,0.0,0.0,0.0,0.0,0.0,0.0,0.0,0.0,0.0,0.0,0.0,0.0,0.0,0.0,0.0,0.0,0.0,0.0,0.0,0.0,0.0,0.0,0.0,0.0,0.0,0.0,0.0,0.0,0.0,0.0,0.0,0.0,0.0,0.0,0.0,0.0,0.0,0.0,0.0,0.0,0.0,0.0,0.0,0.0,0.0,0.0,0.0,0.0,0.0,0.0,0.0,0.0,0.0,0.0,0.0,0.0,0.0,0.0,0.0,0.0,0.0,0.0,0.0,0.0,0.0,0.0,0.0,0.0,0.0,0.0,0.0,0.0,0.0,0.0,0.0,0.0,0.0,0.0,0.0,0.0,0.0,0.0,0.0,0.0,0.0,0.0,0.0,0.0,0.0,0.0,0.0,0.0,0.0,0.0,0.0,0.0,0.0,0.0,0.0,0.0,0.0,0.0,0.0,0.0,0.0,0.0,0.0,0.0,0.0,-4.8906,0.0,0.0,0.0,0.0,0.0,0.0,0.0,0.0,0.0,0.0,0.0,0.0,0.0,0.0,0.0,0.0,0.0,0.0,0.0,0.0,0.0,0.0,0.0,0.0,0.0,0.0,0.0,0.0,0.0,0.0,0.0,0.0,0.0,0.0,0.0,0.0,0.0,0.0,0.0,0.0,0.0,0.0,0.0,0.0,0.0,0.0,0.0,0.0,0.0,0.0,0.0,0.0,0.0,0.0,0.0,0.0,0.0,0.0,0.0,0.0,0.0,0.0,0.0,0.0,0.0,0.0,0.0,0.0,0.0,0.0,0.0,0.0,0.0,0.0,0.0,0.0,0.0,0.0,0.0,0.0,0.0,0.0,0.0,0.0,0.0,0.0,0.0,0.0,0.0,0.0,0.0,0.0,0.0,0.0,0.0,0.0,0.0,0.0,0.0,0.0,0.0,0.0,0.0,0.0,0.0,0.0,0.0,0.0,0.0,0.0,-4.9726,-4.8828,-4.793,-4.75,-4.7461,0.0,0.0,0.0,0.0,0.0,0.0,0.0,0.0,0.0,0.0,0.0,0.0,0.0,0.0,0.0,0.0,0.0,0.0,0.0,0.0,0.0,0.0,0.0,0.0,0.0,0.0,0.0,0.0,0.0,0.0,0.0,0.0,0.0,0.0,0.0,0.0,0.0,0.0,0.0,0.0,0.0,0.0,0.0,0.0,0.0,0.0,0.0,0.0,0.0,0.0,0.0,0.0,0.0,0.0,0.0,0.0,0.0,0.0,0.0,0.0,0.0,0.0,0.0,0.0,0.0,0.0,0.0,0.0,0.0,0.0,0.0,0.0,0.0,0.0,0.0,0.0,0.0,0.0,0.0,0.0,0.0,0.0,0.0,0.0,0.0,0.0,0.0,0.0,0.0,0.0,0.0,0.0,0.0,0.0,0.0,0.0,0.0,0.0,0.0,0.0,0.0,0.0,0.0,0.0,0.0,0.0,0.0,0.0,0.0,0.0,0.0,0.0,-4.6562,-4.6015,-4.6015,0.0,0.0,0.0,0.0,0.0,0.0,0.0,0.0,0.0,0.0,0.0,0.0,0.0,0.0,0.0,0.0,0.0,0.0,0.0,0.0,0.0,0.0,0.0,0.0,0.0,0.0,0.0,0.0,0.0,0.0,0.0,0.0,0.0,0.0,0.0,0.0,0.0,0.0,0.0,0.0,0.0,0.0,0.0,0.0,0.0,0.0,0.0,0.0,0.0,0.0,0.0,0.0,0.0,0.0,0.0,0.0,0.0,0.0,0.0,0.0,0.0,0.0,0.0,0.0,0.0,0.0,0.0,0.0,0.0,0.0,0.0,0.0,0.0,0.0,0.0,0.0,0.0,0.0,0.0,0.0,0.0,0.0,0.0,0.0,0.0,0.0,0.0,0.0,0.0,0.0,0.0,0.0,0.0,0.0,0.0,0.0,0.0,0.0,0.0,0.0,0.0,0.0,0.0,0.0,0.0,0.0,0.0,0.0,0.0,0.0,-4.7734,-4.7578,-4.6016,0.0,-4.5155,0.0,0.0,0.0,0.0,0.0,0.0,0.0,0.0,0.0,0.0,0.0,0.0,0.0,0.0,0.0,0.0,0.0,0.0,0.0,0.0,0.0,0.0,0.0,0.0,0.0,0.0,0.0,0.0,0.0,0.0,0.0,0.0,0.0,0.0,0.0,0.0,0.0,0.0,0.0,0.0,0.0,0.0,0.0,0.0,0.0,0.0,0.0,0.0,0.0,0.0,0.0,0.0,0.0,0.0,0.0,0.0,0.0,0.0,0.0,0.0,0.0,0.0,0.0,0.0,0.0,0.0,0.0,0.0,0.0,0.0,0.0,0.0,0.0,0.0,0.0,0.0,0.0,0.0,0.0,0.0,0.0,0.0,0.0,0.0,0.0,0.0,0.0,0.0,0.0,0.0,0.0,0.0,0.0,0.0,0.0,0.0,0.0,0.0,0.0,0.0,0.0,0.0,0.0,0.0,0.0,0.0,0.0,0.0,0.0,0.0,-4.7344,-4.6836,-4.6132,-4.5272,0.0,0.0,0.0,0.0,0.0,0.0,0.0,0.0,0.0,0.0,0.0,0.0,0.0,0.0,0.0,0.0,0.0,0.0,0.0,0.0,0.0,0.0,0.0,0.0,0.0,0.0,0.0,0.0,0.0,0.0,0.0,0.0,0.0,0.0,0.0,0.0,0.0,0.0,0.0,0.0,0.0,0.0,0.0,0.0,0.0,0.0,0.0,0.0,0.0,0.0,0.0,0.0,0.0,0.0,0.0,0.0,0.0,0.0,0.0,0.0,0.0,0.0,0.0,0.0,0.0,0.0,0.0,0.0,0.0,0.0,0.0,0.0,0.0,0.0,0.0,0.0,0.0,0.0,0.0,0.0,0.0,0.0,0.0,0.0,0.0,0.0,0.0,0.0,0.0,0.0,0.0,0.0,0.0,0.0,0.0,0.0,0.0,0.0,0.0,0.0,0.0,0.0,0.0,0.0,0.0,0.0,0.0,0.0,0.0,0.0,-4.7226,-4.6719,-4.5664,-4.582,-4.5115,-4.3395,0.0,0.0,0.0,0.0,0.0,0.0,0.0,0.0,0.0,0.0,0.0,0.0,0.0,0.0,0.0,0.0,0.0,0.0,0.0,0.0,0.0,0.0,0.0,0.0,0.0,0.0,0.0,0.0,0.0,0.0,0.0,0.0,0.0,0.0,0.0,0.0,0.0,0.0,0.0,0.0,0.0,0.0,0.0,0.0,0.0,0.0,0.0,0.0,0.0,0.0,0.0,0.0,0.0,0.0,0.0,0.0,0.0,0.0,0.0,0.0,0.0,0.0,0.0,0.0,0.0,0.0,0.0,0.0,0.0,0.0,0.0,0.0,0.0,0.0,0.0,0.0,0.0,0.0,0.0,0.0,0.0,0.0,0.0,0.0,0.0,0.0,0.0,0.0,0.0,0.0,0.0,0.0,0.0,0.0,0.0,0.0,0.0,0.0,0.0,0.0,0.0,0.0,0.0,0.0,0.0,0.0,0.0,0.0,-4.6367,-4.6367,-4.5547,-4.3945,-4.4608,-4.4255,0.0,0.0,0.0,0.0,0.0,0.0,0.0,0.0,0.0,0.0,0.0,0.0,0.0,0.0,0.0,0.0,0.0,0.0,0.0,0.0,0.0,0.0,0.0,0.0,0.0,0.0,0.0,0.0,0.0,0.0,0.0,0.0,0.0,0.0,0.0,0.0,0.0,0.0,0.0,0.0,0.0,0.0,0.0,0.0,0.0,0.0,0.0,0.0,0.0,0.0,0.0,0.0,0.0,0.0,0.0,0.0,0.0,0.0,0.0,0.0,0.0,0.0,0.0,0.0,0.0,0.0,0.0,0.0,0.0,0.0,0.0,0.0,0.0,0.0,0.0,0.0,0.0,0.0,0.0,0.0,0.0,0.0,0.0,0.0,0.0,0.0,0.0,0.0,0.0,0.0,0.0,0.0,0.0,0.0,0.0,0.0,0.0,0.0,0.0,0.0,0.0,0.0,0.0,0.0,0.0,0.0,0.0,0.0,0.0,-4.6289,-4.5742,-4.4883,-4.3788,-4.4528,-4.4173,0.0,0.0,0.0,0.0,0.0,0.0,0.0,0.0,0.0,0.0,0.0,0.0,0.0,0.0,0.0,0.0,0.0,0.0,0.0,0.0,0.0,0.0,0.0,0.0,0.0,0.0,0.0,0.0,0.0,0.0,0.0,0.0,0.0,0.0,0.0,0.0,0.0,0.0,0.0,0.0,0.0,0.0,0.0,0.0,0.0,0.0,0.0,0.0,0.0,0.0,0.0,0.0,0.0,0.0,0.0,0.0,0.0,0.0,0.0,0.0,0.0,0.0,0.0,0.0,0.0,0.0,0.0,0.0,0.0,0.0,0.0,0.0,0.0,0.0,0.0,0.0,0.0,0.0,0.0,0.0,0.0,0.0,0.0,0.0,0.0,0.0,0.0,0.0,0.0,0.0,0.0,0.0,0.0,0.0,0.0,0.0,0.0,0.0,0.0,0.0,0.0,0.0,0.0,0.0,0.0,0.0,0.0,0.0,0.0,-4.5859,0.0,-4.4179,-4.3358,-4.4135,-4.3741,0.0,0.0,0.0,0.0,0.0,0.0,0.0,0.0,0.0,0.0,0.0,0.0,0.0,0.0,0.0,0.0,0.0,0.0,0.0,0.0,0.0,0.0,0.0,0.0,0.0,0.0,0.0,0.0,0.0,0.0,0.0,0.0,0.0,0.0,0.0,0.0,0.0,0.0,0.0,0.0,0.0,0.0,0.0,0.0,0.0,0.0,0.0,0.0,0.0,0.0,0.0,0.0,0.0,0.0,0.0,0.0,0.0,0.0,0.0,0.0,0.0,0.0,0.0,0.0,0.0,0.0,0.0,0.0,0.0,0.0,0.0,0.0,0.0,0.0,0.0,0.0,0.0,0.0,0.0,0.0,0.0,0.0,0.0,0.0,0.0,0.0,0.0,0.0,0.0,0.0,0.0,0.0,0.0,0.0,0.0,0.0,0.0,0.0,0.0,0.0,0.0,0.0,0.0,0.0,0.0,0.0,0.0,0.0,-4.5078,-4.5039,-4.4258,-4.3515,-4.2537,-4.3393,-4.2959,0.0,0.0,0.0,0.0,0.0,0.0,0.0,0.0,0.0,0.0,0.0,0.0,0.0,0.0,0.0,0.0,0.0,0.0,0.0,0.0,0.0,0.0,0.0,0.0,0.0,0.0,0.0,0.0,0.0,0.0,0.0,0.0,0.0,0.0,0.0,0.0,0.0,0.0,0.0,0.0,0.0,0.0,0.0,0.0,0.0,0.0,0.0,0.0,0.0,0.0,0.0,0.0,0.0,0.0,0.0,0.0,0.0,0.0,0.0,0.0,0.0,0.0,0.0,0.0,0.0,0.0,0.0,0.0,0.0,0.0,0.0,0.0,0.0,0.0,0.0,0.0,0.0,0.0,0.0,0.0,0.0,0.0,0.0,0.0,0.0,0.0,0.0,0.0,0.0,0.0,0.0,0.0,0.0,0.0,0.0,0.0,0.0,0.0,0.0,0.0,0.0,0.0,0.0,0.0,0.0,0.0,0.0,0.0,0.0,-4.6758,-4.5937,-4.5662,-4.5933,-4.5068,-4.4046,0.0,0.0,0.0,0.0,0.0,0.0,0.0,0.0,0.0,0.0,0.0,0.0,0.0,0.0,0.0,0.0,0.0,0.0,0.0,0.0,0.0,0.0,0.0,0.0,0.0,0.0,0.0,0.0,0.0,0.0,0.0,0.0,0.0,0.0,0.0,0.0,0.0,0.0,0.0,0.0,0.0,0.0,0.0,0.0,0.0,0.0,0.0,0.0,0.0,0.0,0.0,0.0,0.0,0.0,0.0,0.0,0.0,0.0,0.0,0.0,0.0,0.0,0.0,0.0,0.0,0.0,0.0,0.0,0.0,0.0,0.0,0.0,0.0,0.0,0.0,0.0,0.0,0.0,0.0,0.0,0.0,0.0,0.0,0.0,0.0,0.0,0.0,0.0,0.0,0.0,0.0,0.0,0.0,0.0,0.0,0.0,0.0,0.0,0.0,0.0,0.0,0.0,0.0,0.0,0.0,0.0,0.0,0.0,0.0,-4.9413,-4.8045,-4.7379,-4.7607,-4.6235,-4.5215,-4.4701,0.0,0.0,0.0,0.0,0.0,0.0,0.0,0.0,0.0,0.0,0.0,0.0,0.0,0.0,0.0,0.0,0.0,0.0,0.0,0.0,0.0,0.0,0.0,0.0,0.0,0.0,0.0,0.0,0.0,0.0,0.0,0.0,0.0,0.0,0.0,0.0,0.0,0.0,0.0,0.0,0.0,0.0,0.0,0.0,0.0,0.0,0.0,0.0,0.0,0.0,0.0,0.0,0.0,0.0,0.0,0.0,0.0,0.0,0.0,0.0,0.0,0.0,0.0,0.0,0.0,0.0,0.0,0.0,0.0,0.0,0.0,0.0,0.0,0.0,0.0,0.0,0.0,0.0,0.0,0.0,0.0,0.0,0.0,0.0,0.0,0.0,0.0,0.0,0.0,0.0,0.0,0.0,0.0,0.0,0.0,0.0,0.0,0.0,0.0,0.0,0.0,0.0,0.0,0.0,0.0,0.0,0.0,0.0,-5.2724,-5.0621,-4.9096,-4.8226,-4.7207,-4.6541,0.0,0.0,0.0,0.0,0.0,0.0,0.0,0.0,0.0,0.0,0.0,0.0,0.0,0.0,0.0,0.0,0.0,0.0,0.0,0.0,0.0,0.0,0.0,0.0,0.0,0.0,0.0,0.0,0.0,0.0,0.0,0.0,0.0,0.0,0.0,0.0,0.0,0.0,0.0,0.0,0.0,0.0,0.0,0.0,0.0,0.0,0.0,0.0,0.0,0.0,0.0,0.0,0.0,0.0,0.0,0.0,0.0,0.0,0.0,0.0,0.0,0.0,0.0,0.0,0.0,0.0,0.0,0.0,0.0,0.0,0.0,0.0,0.0,0.0,0.0,0.0,0.0,0.0,0.0,0.0,0.0,0.0,0.0,0.0,0.0,0.0,0.0,0.0,0.0,0.0,0.0,0.0,0.0,0.0,0.0,0.0,0.0,0.0,0.0,0.0,0.0,0.0,0.0,0.0,0.0,0.0,0.0,0.0,0.0,-5.3616,-5.5446,-5.5718,-5.4238,-5.1538,-4.9737,0.0,0.0,0.0,0.0,0.0,0.0,0.0,0.0,0.0,0.0,0.0,0.0,0.0,0.0,0.0,0.0,0.0,0.0,0.0,0.0,0.0,0.0,0.0,0.0,0.0,0.0,0.0,0.0,0.0,0.0,0.0,0.0,0.0,0.0,0.0,0.0,0.0,0.0,0.0,0.0,0.0,0.0,0.0,0.0,0.0,0.0,0.0,0.0,0.0,0.0,0.0,0.0,0.0,0.0,0.0,0.0,0.0,0.0,0.0,0.0,0.0,0.0,0.0,0.0,0.0,0.0,0.0,0.0,0.0,0.0,0.0,0.0,0.0,0.0,0.0,0.0,0.0,0.0,0.0,0.0,0.0,0.0,0.0,0.0,0.0,0.0,0.0,0.0,0.0,0.0,0.0,0.0,0.0,0.0,0.0,0.0,0.0,0.0,0.0,0.0,0.0,0.0,0.0,0.0,0.0,0.0,0.0,0.0,-5.2598,-5.6066,-5.8085,-5.9136,-5.9263,-5.5196,-5.242,0.0,0.0,0.0,0.0,0.0,0.0,0.0,0.0,0.0,0.0,0.0,0.0,0.0,0.0,0.0,0.0,0.0,0.0,0.0,0.0,0.0,0.0,0.0,0.0,0.0,0.0,0.0,0.0,0.0,0.0,0.0,0.0,0.0,0.0,0.0,0.0,0.0,0.0,0.0,0.0,0.0,0.0,0.0,0.0,0.0,0.0,0.0,0.0,0.0,0.0,0.0,0.0,0.0,0.0,0.0,0.0,0.0,0.0,0.0,0.0,0.0,0.0,0.0,0.0,0.0,0.0,0.0,0.0,0.0,0.0,0.0,0.0,0.0,0.0,0.0,0.0,0.0,0.0,0.0,0.0,0.0,0.0,0.0,0.0,0.0,0.0,0.0,0.0,0.0,0.0,0.0,0.0,0.0,0.0,0.0,0.0,0.0,0.0,0.0,0.0,0.0,0.0,0.0,0.0,0.0,0.0,0.0,0.0,-5.3403,-5.8946,-5.9363,-6.072,-6.2987,-5.8262,-5.4786,0.0,0.0,0.0,0.0,0.0,0.0,0.0,0.0,0.0,0.0,0.0,0.0,0.0,0.0,0.0,0.0,0.0,0.0,0.0,0.0,0.0,0.0,0.0,0.0,0.0,0.0,0.0,0.0,0.0,0.0,0.0,0.0,0.0,0.0,0.0,0.0,0.0,0.0,0.0,0.0,0.0,0.0,0.0,0.0,0.0,0.0,0.0,0.0,0.0,0.0,0.0,0.0,0.0,0.0,0.0,0.0,0.0,0.0,0.0,0.0,0.0,0.0,0.0,0.0,0.0,0.0,0.0,0.0,0.0,0.0,0.0,0.0,0.0,0.0,0.0,0.0,0.0,0.0,0.0,0.0,0.0,0.0,0.0,0.0,0.0,0.0,0.0,0.0,0.0,0.0,0.0,0.0,0.0,0.0,0.0,0.0,0.0,0.0,0.0,0.0,0.0,0.0,0.0,0.0,0.0,0.0,0.0,0.0,-5.5786,-5.9024,-6.103,-6.3006,-6.4918,-6.0627,-5.7157,0.0,0.0,0.0,0.0,0.0,0.0,0.0,0.0,0.0,0.0,0.0,0.0,0.0,0.0,0.0,0.0,0.0,0.0,0.0,0.0,0.0,0.0,0.0,0.0,0.0,0.0,0.0,0.0,0.0,0.0,0.0,0.0,0.0,0.0,0.0,0.0,0.0,0.0,0.0,0.0,0.0,0.0,0.0,0.0,0.0,0.0,0.0,0.0,-4.7215,0.0,0.0,0.0,0.0,0.0,0.0,0.0,0.0,0.0,0.0,0.0,0.0,0.0,0.0,0.0,0.0,0.0,0.0,0.0,0.0,0.0,0.0,0.0,0.0,0.0,0.0,0.0,0.0,0.0,0.0,0.0,0.0,0.0,0.0,0.0,0.0,0.0,0.0,0.0,0.0,0.0,0.0,0.0,0.0,0.0,0.0,0.0,0.0,0.0,0.0,0.0,0.0,0.0,0.0,0.0,0.0,0.0,0.0,0.0,-5.6918,-6.0234,-6.2002,-6.3545,-6.4677,-6.1499,-5.8457,0.0,0.0,0.0,0.0,0.0,0.0,0.0,0.0,0.0,0.0,0.0,0.0,0.0,0.0,0.0,0.0,0.0,0.0,0.0,0.0,0.0,0.0,0.0,0.0,0.0,0.0,0.0,0.0,0.0,0.0,0.0,0.0,0.0,0.0,0.0,0.0,0.0,0.0,0.0,0.0,0.0,0.0,0.0,0.0,0.0,0.0,0.0,0.0,0.0,0.0,0.0,0.0,0.0,0.0,0.0,0.0,0.0,0.0,0.0,0.0,0.0,0.0,0.0,0.0,0.0,0.0,0.0,0.0,0.0,0.0,0.0,0.0,0.0,0.0,0.0,0.0,0.0,0.0,0.0,0.0,0.0,0.0,0.0,0.0,0.0,0.0,0.0,0.0,0.0,0.0,0.0,0.0,0.0,0.0,0.0,0.0,0.0,0.0,0.0,0.0,0.0,0.0,0.0,0.0,0.0,0.0,0.0,-5.3834,-5.7621,-6.1132,-6.2353,-6.3311,-6.4127,-6.1517,-5.8975,-5.6549,0.0,0.0,0.0,0.0,0.0,0.0,0.0,0.0,0.0,0.0,0.0,0.0,0.0,0.0,0.0,0.0,0.0,0.0,0.0,0.0,0.0,0.0,0.0,0.0,0.0,0.0,0.0,0.0,0.0,0.0,0.0,0.0,0.0,0.0,0.0,0.0,0.0,0.0,-4.0133,-4.2442,0.0,0.0,0.0,0.0,0.0,0.0,0.0,0.0,-4.8436,0.0,0.0,0.0,0.0,0.0,0.0,0.0,0.0,0.0,0.0,0.0,0.0,0.0,0.0,0.0,0.0,0.0,0.0,0.0,0.0,0.0,0.0,0.0,0.0,0.0,0.0,0.0,0.0,0.0,0.0,0.0,0.0,0.0,0.0,0.0,0.0,0.0,0.0,0.0,0.0,0.0,0.0,0.0,0.0,0.0,0.0,0.0,0.0,0.0,0.0,0.0,0.0,0.0,0.0,0.0,0.0,-4.9032,-5.524,-5.8831,-5.9532,-6.1729,-6.3311,-6.4088,-6.0971,-5.8347,-5.6496,0.0,0.0,0.0,0.0,0.0,0.0,0.0,0.0,0.0,0.0,0.0,0.0,0.0,0.0,0.0,0.0,0.0,0.0,0.0,0.0,0.0,0.0,0.0,0.0,0.0,0.0,0.0,0.0,0.0,0.0,0.0,0.0,0.0,0.0,0.0,0.0,0.0,0.0,0.0,-4.4046,-4.5534,0.0,0.0,0.0,0.0,0.0,0.0,0.0,0.0,-4.8359,0.0,0.0,0.0,0.0,0.0,0.0,0.0,0.0,0.0,0.0,0.0,0.0,0.0,0.0,0.0,0.0,0.0,0.0,0.0,0.0,0.0,0.0,0.0,0.0,0.0,0.0,0.0,0.0,0.0,0.0,0.0,0.0,0.0,0.0,0.0,0.0,0.0,0.0,0.0,0.0,0.0,0.0,0.0,0.0,0.0,0.0,0.0,0.0,0.0,0.0,0.0,0.0,0.0,0.0,0.0,-5.036,-5.6059,-5.9297,-5.9805,-6.1846,-6.3077,-6.3425,-6.0153,-5.7762,0.0,0.0,0.0,0.0,0.0,0.0,0.0,0.0,0.0,0.0,0.0,0.0,0.0,0.0,0.0,0.0,0.0,0.0,0.0,0.0,0.0,0.0,0.0,0.0,0.0,0.0,0.0,0.0,0.0,0.0,0.0,0.0,0.0,0.0,0.0,0.0,0.0,0.0,0.0,0.0,-4.4442,-4.546,-4.6715,0.0,0.0,0.0,0.0,0.0,0.0,-4.9921,-4.9764,0.0,0.0,0.0,0.0,0.0,0.0,0.0,0.0,0.0,0.0,0.0,0.0,0.0,0.0,0.0,0.0,0.0,0.0,0.0,0.0,0.0,0.0,0.0,0.0,0.0,0.0,0.0,0.0,0.0,0.0,0.0,0.0,0.0,0.0,0.0,0.0,0.0,0.0,0.0,0.0,0.0,0.0,0.0,0.0,0.0,0.0,0.0,0.0,0.0,0.0,0.0,0.0,0.0,0.0,0.0,-5.1453,-5.6489,-5.9414,-6.0154,-6.1963,-6.2723,-6.2329,-5.9334,-5.7096,0.0,0.0,0.0,0.0,0.0,0.0,0.0,0.0,0.0,0.0,0.0,0.0,0.0,0.0,0.0,0.0,0.0,0.0,0.0,0.0,0.0,0.0,0.0,0.0,0.0,0.0,0.0,0.0,0.0,0.0,0.0,0.0,0.0,0.0,0.0,0.0,0.0,0.0,0.0,0.0,0.0,-4.5463,-4.5975,-4.5897,0.0,0.0,0.0,0.0,-5.0074,-5.07,0.0,0.0,0.0,0.0,0.0,0.0,0.0,0.0,0.0,0.0,0.0,0.0,0.0,0.0,0.0,0.0,0.0,0.0,0.0,0.0,0.0,0.0,0.0,0.0,0.0,0.0,0.0,0.0,0.0,0.0,0.0,0.0,0.0,0.0,0.0,0.0,0.0,0.0,0.0,0.0,0.0,0.0,0.0,0.0,0.0,0.0,0.0,0.0,0.0,0.0,0.0,0.0,0.0,0.0,0.0,0.0,-5.1492,-5.6487,-5.9136,-5.936,-6.1644,-6.2173,-6.0633,-5.8698,-5.623,0.0,0.0,0.0,0.0,0.0,0.0,0.0,0.0,0.0,0.0,0.0,0.0,0.0,0.0,0.0,0.0,0.0,0.0,0.0,0.0,0.0,0.0,0.0,0.0,0.0,0.0,0.0,0.0,0.0,0.0,0.0,0.0,0.0,0.0,0.0,0.0,0.0,0.0,0.0,0.0,0.0,-4.6988,-4.9297,-4.8944,-4.8944,0.0,0.0,-4.9289,-4.9992,-5.0188,0.0,0.0,0.0,0.0,0.0,0.0,0.0,0.0,0.0,0.0,0.0,0.0,0.0,0.0,0.0,0.0,0.0,0.0,0.0,0.0,0.0,0.0,0.0,0.0,0.0,0.0,0.0,0.0,0.0,0.0,0.0,0.0,0.0,0.0,0.0,0.0,0.0,0.0,0.0,0.0,0.0,0.0,0.0,0.0,0.0,0.0,0.0,0.0,0.0,0.0,0.0,0.0,0.0,0.0,0.0,-4.9306,-5.1453,-5.5981,-5.859,-5.9162,-6.1605,-6.2052,-6.0356,-5.862,-5.6113,0.0,0.0,0.0,0.0,0.0,0.0,0.0,0.0,0.0,0.0,0.0,0.0,0.0,0.0,0.0,0.0,0.0,0.0,0.0,0.0,0.0,0.0,0.0,0.0,0.0,0.0,0.0,0.0,0.0,0.0,0.0,0.0,0.0,0.0,0.0,0.0,0.0,0.0,0.0,0.0,0.0,0.0,-4.9219,-4.914,0.0,0.0,0.0,-5.1361,-5.2174,0.0,0.0,0.0,0.0,0.0,0.0,0.0,0.0,0.0,0.0,0.0,0.0,0.0,0.0,0.0,0.0,0.0,0.0,0.0,0.0,0.0,0.0,0.0,0.0,0.0,0.0,0.0,0.0,0.0,0.0,0.0,0.0,0.0,0.0,0.0,0.0,0.0,0.0,0.0,0.0,0.0,0.0,0.0,0.0,0.0,0.0,0.0,0.0,0.0,0.0,0.0,0.0,0.0,0.0,0.0,0.0,0.0,-5.1414,-5.5435,-5.8004,-5.9117,-6.1173,-6.1545,-5.9997,-5.8109,0.0,0.0,0.0,0.0,0.0,0.0,0.0,0.0,0.0,0.0,0.0,0.0,0.0,0.0,0.0,0.0,0.0,0.0,0.0,0.0,0.0,0.0,0.0,0.0,0.0,0.0,0.0,-3.6319,0.0,0.0,0.0,0.0,0.0,0.0,0.0,0.0,0.0,0.0,0.0,0.0,0.0,0.0,-4.8317,-4.9375,-4.9531,-4.9687,0.0,0.0,-5.2923,-5.3577,-5.3847,-5.3492,0.0,0.0,0.0,0.0,0.0,0.0,0.0,0.0,0.0,0.0,0.0,0.0,0.0,0.0,0.0,0.0,0.0,0.0,0.0,0.0,0.0,0.0,0.0,0.0,0.0,0.0,0.0,0.0,0.0,0.0,0.0,0.0,0.0,0.0,0.0,0.0,0.0,0.0,0.0,0.0,0.0,0.0,0.0,0.0,0.0,0.0,0.0,0.0,0.0,0.0,0.0,0.0,0.0,0.0,0.0,-5.1414,-5.4888,-5.7453,-5.9063,-6.0038,-6.0098,-5.9079,-5.6658,-5.416,0.0,0.0,0.0,0.0,0.0,0.0,0.0,0.0,0.0,0.0,0.0,0.0,0.0,0.0,0.0,0.0,0.0,0.0,0.0,0.0,0.0,0.0,0.0,0.0,0.0,0.0,0.0,0.0,0.0,0.0,0.0,0.0,0.0,0.0,0.0,0.0,0.0,0.0,0.0,0.0,0.0,-4.9413,-5.1015,-5.1211,-5.1797,0.0,0.0,-5.2725,-5.2758,-5.3491,-5.2897,-4.9618,0.0,0.0,0.0,0.0,0.0,0.0,0.0,0.0,0.0,0.0,0.0,0.0,0.0,0.0,0.0,0.0,0.0,0.0,0.0,0.0,0.0,0.0,0.0,0.0,0.0,0.0,0.0,0.0,0.0,0.0,0.0,0.0,0.0,0.0,0.0,0.0,0.0,0.0,0.0,0.0,0.0,0.0,0.0,0.0,0.0,0.0,0.0,0.0,0.0,0.0,0.0,0.0,0.0,-4.9618,-5.2156,-5.4576,-5.6594,-5.8279,-5.9684,-5.9705,-5.8221,-5.7268,-5.5273,0.0,0.0,0.0,0.0,0.0,0.0,0.0,0.0,0.0,0.0,0.0,0.0,0.0,0.0,0.0,0.0,0.0,0.0,0.0,0.0,0.0,0.0,0.0,0.0,0.0,0.0,0.0,0.0,-3.8867,-3.9609,-4.0156,0.0,0.0,0.0,0.0,0.0,0.0,0.0,0.0,0.0,0.0,-4.9335,-5.0508,-5.1094,0.0,0.0,-5.2574,-5.2881,-5.3421,-5.3334,-5.2585,-5.0711,-4.8837,0.0,0.0,0.0,0.0,0.0,0.0,0.0,0.0,0.0,0.0,0.0,0.0,0.0,0.0,0.0,0.0,0.0,0.0,0.0,0.0,0.0,0.0,0.0,0.0,0.0,0.0,0.0,0.0,0.0,0.0,0.0,0.0,0.0,0.0,0.0,0.0,0.0,0.0,0.0,0.0,0.0,0.0,0.0,0.0,0.0,0.0,0.0,0.0,0.0,0.0,0.0,0.0,-5.036,-5.2704,-5.4654,-5.636,-5.7775,-5.8981,-5.9006,-5.7762,-5.7225,-5.5575,0.0,0.0,0.0,0.0,0.0,0.0,0.0,0.0,0.0,0.0,0.0,0.0,0.0,0.0,0.0,0.0,0.0,0.0,0.0,0.0,0.0,0.0,0.0,0.0,0.0,0.0,0.0,0.0,-3.9726,-4.0508,-4.1093,0.0,0.0,0.0,0.0,0.0,0.0,0.0,0.0,0.0,0.0,-4.9687,-5.0781,-5.1211,-5.1601,-5.2109,-5.2457,-5.2842,-5.315,-5.2907,-5.2234,-5.0828,0.0,0.0,0.0,0.0,0.0,0.0,0.0,0.0,0.0,0.0,0.0,0.0,0.0,0.0,0.0,0.0,0.0,0.0,0.0,0.0,0.0,0.0,0.0,0.0,0.0,0.0,0.0,0.0,0.0,0.0,-5.2626,0.0,0.0,0.0,0.0,0.0,0.0,0.0,0.0,0.0,0.0,0.0,0.0,0.0,0.0,0.0,0.0,0.0,0.0,0.0,0.0,0.0,0.0,-5.0945,-5.2704,-5.524,-5.6951,-5.7755,-5.786,-5.7882,-5.7744,-5.6104,-5.4368,-5.2654,0.0,0.0,0.0,0.0,0.0,0.0,0.0,0.0,0.0,0.0,0.0,0.0,0.0,0.0,0.0,0.0,0.0,0.0,0.0,0.0,0.0,0.0,0.0,0.0,0.0,0.0,-3.9922,-4.0585,-4.1053,0.0,0.0,0.0,0.0,0.0,0.0,0.0,0.0,0.0,0.0,-4.9101,-5.0781,-5.2344,-5.1914,-5.1953,-5.3555,-5.3161,-5.2375,-5.1594,-5.2129,-5.1806,0.0,0.0,0.0,0.0,0.0,0.0,0.0,0.0,0.0,0.0,0.0,0.0,0.0,0.0,0.0,0.0,0.0,0.0,0.0,0.0,0.0,0.0,0.0,0.0,0.0,0.0,0.0,-5.5747,-5.563,0.0,0.0,0.0,0.0,0.0,0.0,0.0,0.0,0.0,0.0,0.0,-5.6482,-5.6539,0.0,0.0,0.0,0.0,0.0,0.0,0.0,0.0,0.0,0.0,0.0,0.0,-5.1804,-5.3561,-5.5552,-5.6716,-5.6938,-5.7509,-5.7531,-5.6964,-5.632,-5.5151,-5.3413,0.0,0.0,0.0,0.0,0.0,0.0,0.0,0.0,0.0,0.0,0.0,0.0,0.0,0.0,0.0,0.0,0.0,0.0,0.0,0.0,0.0,0.0,0.0,0.0,0.0,-4.2186,0.0,0.0,0.0,0.0,0.0,0.0,0.0,0.0,0.0,0.0,0.0,-4.7069,-4.9062,-4.9844,-5.0625,-5.168,-5.1133,-5.082,0.0,0.0,0.0,0.0,0.0,0.0,0.0,0.0,0.0,0.0,0.0,0.0,0.0,0.0,-4.7081,-4.5679,-4.5444,-4.5447,-4.5414,0.0,0.0,0.0,0.0,0.0,0.0,0.0,0.0,0.0,0.0,0.0,0.0,0.0,0.0,0.0,0.0,-5.7141,0.0,0.0,0.0,0.0,0.0,0.0,0.0,0.0,-5.8389,-5.8847,-5.9116,-5.9102,-5.8682,0.0,-5.7924,-5.645,0.0,0.0,0.0,0.0,0.0,0.0,0.0,0.0,-5.2858,-5.4849,-5.6294,-5.7148,-5.7411,-5.7983,-5.7853,-5.6975,-5.629,-5.5413,-5.4241,-5.2303,-5.0485,0.0,0.0,0.0,0.0,0.0,0.0,0.0,0.0,0.0,0.0,0.0,0.0,0.0,0.0,0.0,0.0,0.0,0.0,0.0,0.0,0.0,0.0,0.0,-4.3359,0.0,0.0,0.0,0.0,0.0,0.0,0.0,0.0,0.0,-4.539,-4.6484,-4.7968,-4.9922,-5.043,-5.082,-5.1328,0.0,0.0,0.0,0.0,0.0,0.0,0.0,-4.9696,-4.9696,-5.0438,-5.1102,-5.1412,-5.1451,-5.1451,-5.1451,0.0,0.0,-4.8486,-4.8057,-4.8058,-4.8062,-4.8063,-4.8338,-4.9203,-4.9359,-4.9711,0.0,0.0,0.0,0.0,0.0,0.0,0.0,0.0,-6.1431,-6.1777,0.0,-6.0038,0.0,0.0,0.0,0.0,0.0,0.0,0.0,0.0,-6.0395,-6.085,-6.1612,-6.1654,-6.1283,-6.0545,-6.0497,-5.9612,-5.7816,-5.5435,0.0,0.0,0.0,0.0,0.0,0.0,-5.4071,-5.6567,-5.7465,-5.8285,-5.9024,-5.9129,-5.8724,-5.7811,-5.6156,-5.52,-5.5063,-5.4263,-5.3058,-5.1403,-4.9672,0.0,0.0,0.0,0.0,0.0,0.0,0.0,0.0,0.0,0.0,0.0,0.0,0.0,0.0,0.0,0.0,0.0,0.0,0.0,0.0,-4.3828,0.0,0.0,0.0,0.0,0.0,0.0,0.0,0.0,0.0,0.0,-4.6484,-4.7891,-4.9258,-5.0117,0.0,0.0,0.0,0.0,-5.1406,-5.1444,-5.1402,-5.1084,-5.0258,-5.0873,-5.1453,-5.1492,0.0,0.0,-5.399,-5.4108,-5.4068,-5.4068,-5.4068,-5.3561,-5.1921,-5.1492,-5.1375,-5.1414,-5.1414,-5.1804,-5.2587,-5.2823,-5.3329,-6.4687,0.0,0.0,0.0,0.0,-6.1512,-6.2326,-6.3185,-6.4067,-6.4407,-6.4329,-6.323,0.0,0.0,0.0,0.0,0.0,0.0,-6.169,-6.2184,-6.2756,-6.3185,-6.3466,-6.3456,-6.3318,-6.3098,-6.3157,-6.2306,-6.0588,-5.9844,-5.7699,-5.4225,0.0,0.0,0.0,0.0,-5.6147,-5.7467,-5.8918,-5.9464,-5.9102,-5.9717,-5.9573,-5.8667,-5.7559,-5.6938,-5.6848,-5.543,-5.4452,-5.3952,-5.176,0.0,0.0,0.0,0.0,0.0,0.0,0.0,0.0,0.0,0.0,0.0,0.0,0.0,0.0,0.0,0.0,0.0,0.0,0.0,-4.7304,-4.6875,-4.5859,0.0,0.0,0.0,0.0,0.0,0.0,0.0,0.0,0.0,-4.8828,-4.9492,-5.0117,0.0,0.0,-5.1641,-5.2226,-5.1797,-5.1601,-5.2225,0.0,0.0,0.0,-5.1773,-5.2546,-5.3132,-5.4498,-5.5747,-5.6567,-5.6255,-5.5864,-5.5864,-5.6333,-5.6528,-5.602,-5.4459,-5.3366,-5.3288,-5.3756,-5.4459,-5.5279,-5.5903,-5.6645,-6.8552,-6.6639,-6.4609,-6.3745,-6.3818,-6.4668,-6.5322,-6.5783,-6.6658,-6.7001,-6.6962,-6.6092,-6.5424,-6.4879,-6.4033,0.0,0.0,0.0,-6.409,-6.4393,-6.4583,-6.4865,-6.5195,-6.5219,-6.5045,-6.4743,-6.4799,-6.4101,-6.2735,-6.2735,-6.1095,-5.7894,0.0,0.0,-5.6296,-5.6813,-5.7672,-5.8833,-5.9857,-6.0286,-6.0159,-6.0302,-6.0126,-5.9549,-5.8367,-5.7719,-5.7629,-5.6635,-5.5924,-5.5608,-5.3784,-5.1857,0.0,0.0,0.0,0.0,0.0,0.0,0.0,0.0,0.0,0.0,0.0,-3.9008,-3.9554,0.0,0.0,0.0,-4.617,-4.832,-4.8867,-4.8437,0.0,0.0,0.0,0.0,0.0,0.0,0.0,-4.7186,-4.7929,-4.9023,-5.0937,-5.1484,-5.1758,-5.1914,-5.2187,-5.2617,-5.3125,0.0,-5.2617,-5.3124,-5.277,-5.2532,-5.2914,-5.3689,-5.466,-5.5825,-5.6877,-5.7699,-5.8207,-5.7894,-5.7621,-5.7619,-5.7972,-5.8324,-5.8324,-5.7035,-5.6138,-5.645,-5.6957,-5.7582,-5.8439,-5.9026,-5.9495,-7.1714,-7.0777,-6.8357,-6.7214,-6.7081,-6.7862,-6.8202,-6.8336,-6.9055,-6.9392,-6.9353,-6.8593,-6.8154,-6.8037,-6.7243,0.0,-6.6863,-6.6126,-6.6191,-6.6873,-6.6078,-6.6092,-6.6798,-6.6798,-6.6382,-6.5601,-6.5655,-6.5234,-6.4416,-6.4416,-6.3555,-6.1874,-5.9456,-5.8128,-5.8014,-5.8023,-5.8842,-6.0471,-6.0481,-6.0911,-6.1679,-6.0966,-6.057,-6.0492,-5.8838,-5.7875,-5.7797,-5.7749,-5.7376,-5.6635,-5.5789,-5.4164,-5.171,0.0,0.0,0.0,0.0,0.0,0.0,0.0,0.0,0.0,0.0,0.0,0.0,0.0,0.0,0.0,-4.8045,0.0,-4.9101,-4.9101,0.0,0.0,0.0,-4.7498,-4.6792,-4.7419,-4.8241,-4.91,0.0,0.0,-5.2695,0.0,-5.3789,-5.3008,-5.3555,-5.4023,-5.4101,-5.4101,-5.414,-5.4217,-5.4295,-5.4605,-5.5337,-5.6231,-5.7358,-5.8714,-5.9219,-5.918,-5.918,-5.9063,-5.9063,-5.8985,-5.9141,-5.9219,-5.9219,-5.9143,-5.9573,-6.0315,-6.0354,-6.0549,-6.1095,-6.1366,-6.1486,-7.3783,-7.3471,-7.221,-7.0561,-6.8795,-6.8921,-6.9372,-6.9991,-7.0201,-7.0307,-7.0269,-7.0068,-6.9634,-6.8972,-6.8788,-6.8671,-6.8676,-6.85,-6.8505,-6.8617,-6.7859,-6.7567,-6.7734,-6.712,-6.67,-6.6517,-6.6483,-6.6092,-6.5312,-6.5312,-6.4726,-6.3672,-6.2384,-6.1095,-5.9807,-5.9779,-6.0325,-6.1369,-6.1379,-6.1497,-6.1681,-6.2147,-6.2061,-6.1387,-5.9706,-5.8796,-5.8733,-5.8082,-5.7901,-5.8316,-5.7561,-5.6193,-5.428,-5.1845,0.0,0.0,0.0,0.0,0.0,0.0,0.0,0.0,0.0,-4.1936,-4.3928,0.0,-4.6124,0.0,-4.9408,-5.0816,-5.0816,-5.0816,0.0,0.0,-4.9567,-4.9725,-5.0153,-5.0351,-5.082,-5.1719,-5.2148,-5.2734,-5.3594,-5.4453,-5.4922,-5.4687,-5.4297,-5.4219,-5.4844,-5.5,-5.5234,-5.5898,-5.6483,-5.7028,-5.7295,-5.8533,-5.9575,-6.0041,-6.008,-6.008,-6.008,-5.9534,-5.9102,-5.9141,-5.9651,-6.0041,-6.008,-6.0588,-6.1327,-6.2071,-6.1369,-6.0432,-6.0666,-6.1252,-6.1718,-7.4837,-7.4444,-7.3992,-7.2963,-7.1593,-7.078,-7.0717,-7.1136,-7.1121,-7.1115,-7.1115,-7.1115,-7.0881,-7.0419,-7.0414,-7.0414,-7.038,-7.0055,-6.9869,-6.9835,-6.9046,-6.8678,-6.8645,-6.7793,-6.7373,-6.7342,-6.699,-6.6561,-6.617,-6.6131,-6.5702,-6.4882,-6.4414,-6.3282,-6.1603,-6.1184,-6.1223,-6.1679,-6.2078,-6.2273,-6.2306,-6.2735,-6.242,-6.1164,-5.9795,-5.8931,-5.8526,-5.7648,-5.7396,-5.7853,-5.7446,-5.6537,-5.5212,-5.3097,-5.0735,0.0,0.0,0.0,0.0,0.0,0.0,0.0,0.0,0.0,0.0,0.0,-4.7918,0.0,-5.128,-5.2569,-5.257,-5.257,-5.2374,-5.1866,-5.1871,-5.2068,-5.2497,-5.2578,-5.2891,-5.375,-5.3867,-5.418,-5.5039,-5.5586,-5.6015,-5.6406,-5.6055,-5.5898,-5.6328,-5.6484,-5.6758,-5.7617,-5.8164,-5.8631,-5.8937,-6.0095,-6.0978,-6.0978,-6.0978,-6.0978,-6.0978,-6.0588,-6.0273,-6.0276,-6.0666,-6.0978,-6.1017,-6.133,-6.1874,-6.211,-6.1681,-6.1213,-6.1486,-6.1915,-6.2228,-7.5501,-7.4834,-7.4722,-7.4663,-7.4546,-7.292,-7.2189,-7.2128,-7.2128,-7.2089,-7.1973,-7.1856,-7.1817,-7.1817,-7.1817,-7.1817,-7.1744,-7.1068,-7.0771,-7.0736,-6.9958,-6.9585,-6.9546,-6.8664,-6.82,-6.8083,-6.7342,-6.6912,-6.6798,-6.6798,-6.6444,-6.578,-6.5663,-6.4843,-6.336,-6.2473,-6.1926,-6.172,-6.254,-6.2969,-6.2813,-6.293,-6.2228,-6.0627,-5.9612,-5.8746,-5.7994,-5.7133,-5.6656,-5.6683,-5.6663,-5.6262,-5.5404,-5.3806,-5.2165,0.0,-4.8998,0.0,0.0,0.0,0.0,0.0,0.0,0.0,0.0,-4.8493,-5.0101,-5.159,-5.3113,-5.3973,-5.3973,-5.3973,-5.4051,-5.4168,-5.4173,-5.4215,-5.4294,-5.4335,-5.4648,-5.5547,-5.5625,-5.5976,-5.6797,-5.6914,-5.7265,-5.7851,-5.7969,-5.7969,-5.8164,-5.8086,-5.8281,-5.9101,-5.9297,-5.9568,-6.0341,-6.1147,-6.164,-6.1679,-6.164,-6.1718,-6.164,-6.164,-6.1679,-6.164,-6.1601,-6.1679,-6.1718,-6.1679,-6.1718,-6.1757,-6.1679,-6.1835,-6.2462,-6.2618,-6.2579,-7.675,-7.6552,-7.5854,-7.5525,-7.5443,-7.4382,-7.3926,-7.3921,-7.3921,-7.3531,-7.283,-7.2089,-7.1817,-7.1817,-7.1817,-7.1817,-7.1822,-7.1711,-7.1651,-7.1616,-7.0834,-7.0459,-7.0381,-6.9567,-6.8786,-6.8122,-6.7927,-6.7498,-6.6798,-6.6798,-6.6719,-6.6561,-6.5897,-6.5429,-6.5077,0.0,0.0,0.0,-6.2579,-6.2657,-6.1993,-6.2618,-6.2501,-6.1483,-5.9922,0.0,-5.8827,-5.8036,-5.7557,-5.7554,-5.7538,0.0,0.0,0.0,0.0,0.0,0.0,0.0,0.0,0.0,0.0,0.0,-5.118,-5.1219,-5.0555,-5.2001,-5.3135,-5.3489,-5.3799,-5.3996,-5.3996,-5.3996,-5.427,-5.4974,-5.5059,-5.53,-5.6008,-5.609,-5.6444,-5.7305,-5.7422,-5.7734,-5.8476,-5.8711,-5.875,-5.8906,-5.8945,-5.9219,-5.9844,-5.9336,-5.9062,-5.9219,-5.9803,-6.0461,-6.1312,-6.1573,-6.1718,-6.1718,-6.1718,-6.1718,-6.1718,-6.1718,-6.1718,-6.1718,-6.1718,-6.1718,-6.1718,-6.1718,-6.1718,-6.1718,-6.1718,-6.1757,-6.1913,-6.1952,-6.1913,-7.7095,0.0,-7.6591,-7.6375,0.0,-7.5886,-7.5674,-7.5635,-7.4778,-7.3921,-7.3025,-7.2167,-7.1817,-7.1817,-7.1817,-7.1817,-7.1822,-7.1858,-7.192,-7.1893,-7.1494,-7.1315,-7.1324,-7.0465,-6.9801,-6.9372,-6.8513,-6.7888,-6.742,-6.699,-6.6798,-6.6798,-6.6405,-6.5975,-6.5585,-6.4726,-6.4062,-6.363,-6.4062,-6.3867,-6.3047,-6.3438,-6.2813,-6.1134,0.0,0.0,0.0,0.0,0.0,0.0,0.0,0.0,0.0,0.0,0.0,-5.5209,-5.4414,-5.3769,-5.3308,-5.2891,-5.2858,-5.3327,-5.4498,-5.4498,-5.2819,-5.3912,-5.4654,-5.4654,-5.5044,-5.5279,-5.5279,-5.5279,-5.5474,-5.5903,-5.5952,-5.6154,-5.6549,-5.6986,-5.742,-5.7851,-5.8281,-5.875,-5.914,-5.9219,-5.9375,-5.9726,-5.9805,-6.0078,-6.0781,-6.0351,-5.9922,-6.0351,-6.0738,-6.12,-6.1587,-6.1692,-6.172,-6.1727,-6.1722,-6.172,-6.1718,-6.1718,-6.1718,-6.1718,-6.1718,-6.1718,-6.1718,-6.1718,-6.1718,-6.1718,-6.1718,-6.1718,-6.1718,-6.1718,-6.1718,-7.7085,-7.7067,-7.7047,-7.6985,-7.7004,-7.7011,-7.6999,-7.6882,0.0,0.0,0.0,-7.2401,-7.1934,-7.1817,-7.1817,-7.1817,-7.1822,-7.1887,-7.1911,-7.1893,-7.1916,-7.1933,-7.1948,-7.1285,-7.0855,-7.0621,-6.9255,-6.8474,-6.8318,-6.7459,-6.7029,-6.7029,-6.6873,-6.6483,-6.5819,-6.5077,-6.5077,-6.5741,-6.5507,-6.5038,-6.4338,-6.4299,-6.3284,-6.1134,-6.0783,-6.0315,-5.961,-5.9258,-5.9102,-5.9102,-5.9131,-5.912,-5.9063,-5.8425,-5.8028,-5.7946,-5.6677,-5.5909,-5.5884,-5.5272,-5.5201,-5.5942,-5.7231,-5.7153,-5.5044,-5.5552,-5.5903,-5.5786,-5.6411,-5.6762,-5.6604,-5.6604,-5.6604,-5.6606,-5.6614,-5.6619,-5.6816,-5.7453,-5.8044,-5.8513,-5.914,-5.957,-5.9922,-5.9805,-5.9844,-6.0469,-6.0625,-6.0859,-6.1445,-6.1055,-6.0859,-6.1404,-6.1555,-6.1669,-6.1704,-6.1696,-6.1727,-6.1692,-6.1727,-6.1722,-6.172,-6.1718,-6.1718,-6.1718,-6.1718,-6.1718,-6.1718,-6.1718,-6.1718,-6.1718,-6.1835,-6.1913,-6.1913,-6.2071,-6.2189,-7.7067,-7.7008,-7.6985,-7.7009,-7.7004,-7.7011,-7.6999,-7.6921,-7.5947,-7.5051,-7.4155,-7.3297,-7.2479,-7.1817,-7.1817,-7.1817,-7.1817,-7.1887,-7.1911,0.0,-7.1916,-7.1933,-7.1987,-7.187,-7.1441,-7.0699,-7.0423,-6.9957,-6.9215,-6.8318,-6.7927,-6.781,-6.7146,-6.6719,-6.6641,-6.6522,-6.6522,-6.6602,-6.5194,-6.4416,-6.4299,-6.4299,-6.4143,-6.3711,-6.2267,-6.1483,-6.1327,-5.9922,-5.9102,-5.9102,-5.9102,-5.9095,-5.912,-5.9,-5.8916,-5.8903,-5.8682,-5.8535,-5.8538,-5.8434,-5.8441,-5.8558,-5.879,-5.8751,-5.8439,-5.8478,-5.8246,-5.7543,-5.7582,-5.7348,-5.6721,-5.6682,-5.6721,-5.6682,-5.6645,-5.6846,-5.7557,-5.7879,-5.8822,-6.0701,-6.0586,-6.0859,-6.1914,-6.168,-6.125,-6.1445,-6.1367,-6.1562,-6.164,-6.1601,-6.1562,-6.1674,-6.1709,-6.1704,-6.1694,-6.1692,-6.1692,-6.1722,-6.1692,-6.1692,-6.1722,-6.172,-6.172,-6.1718,-6.1718,-6.1718,-6.1718,-6.1718,-6.1796,-6.1835,-6.2306,-6.2774,-6.2813,-6.336,-6.3633,-7.7047,-7.6985,-7.7009,-7.6994,-7.6978,-7.7005,-7.6999,-7.696,-7.661,-7.5908,-7.5012,-7.3687,-7.2869,-7.2479,-7.2011,-7.1817,-7.1817,-7.1833,-7.1858,-7.1893,-7.1901,-7.1924,-7.1987,-7.1987,-7.1792,-7.1402,-7.0933,-7.0504,-7.0035,-6.8747,-6.8083,-6.8044,-6.7224,-6.6798,-6.6798,-6.6798,-6.6798,-6.6798,-6.6056,-6.5429,-6.5038,-6.4999,-6.4804,-6.4338,-6.3477,-6.3125,-6.3086,-6.1876,-6.1213,-6.1213,-6.0781,-6.0503,-6.0489,-6.0528,-6.0525,-6.048,-6.0057,-5.9789,-5.9797,-5.9805,-5.9807,-5.9807,-6.0234,-6.0508,-6.0508,-5.9649,-5.8909,-5.8558,-5.8519,-5.8363,-5.797,-5.7931,-5.797,-5.7933,-5.797,-5.8131,-5.8527,-5.9439,-6.0422,-6.148,-6.1796,-6.2148,-6.289,-6.2226,-6.1719,-6.1719,-6.1719,-6.1719,-6.1719,-6.1719,-6.1718,-6.1715,-6.1711,-6.1707,-6.1699,-6.1697,-6.1697,-6.1697,-6.1701,-6.1701,-6.1692,-6.169,-6.1727,-6.172,-6.1718,-6.1718,-6.1718,-6.211,-6.2306,-6.2501,-6.3125,-6.3633,-6.3789,-6.4414,-6.4606,-7.698,-7.6994,-7.6994,-7.6983,-7.6999,-7.6999,-7.6999,-7.6999,-7.6999,-7.661,-7.583,-7.435,-7.3453,-7.3025,-7.2401,-7.1973,-7.1817,-7.1817,-7.1848,-7.1889,-7.1889,-7.1916,-7.1984,-7.1987,-7.1987,-7.1909,-7.1285,-7.1011,-7.0816,-6.945,-6.8474,-6.8044,-6.7224,-6.6798,-6.6798,-6.6798,-6.6798,-6.6798,-6.6798,-6.6483,-6.5897,-6.5858,-6.5546,-6.4921,-6.4689,-6.4609,-6.4572,-6.375,-6.3282,-6.3282,-6.2657,-6.2301,-6.229,-6.229,-6.229,-6.2212,-6.1666,-6.1281,-6.1291,-6.1291,-6.1291,-6.1291,-6.172,-6.1993,-6.1874,-6.0586,-5.9612,-5.9417,-5.9417,-5.9297,-5.9063,-5.9063,-5.9102,-5.9102,-5.9102,-5.9261,-5.9733,-6.0765,-6.1711,-6.2142,-6.2577,-6.2695,-6.2812,-6.2226,-6.1719,-6.1719,-6.1719,-6.1719,-6.1719,-6.1719,-6.1719,-6.1718,-6.1714,-6.171,-6.1709,-6.1707,-6.1705,-6.1709,-6.171,-6.1708,-6.1702,-6.1699,-6.1696,-6.1727,-6.172,-6.1837,-6.1993,-6.2501,-6.2969,-6.3243,-6.3984,-6.465,-6.4924,-6.539,-6.5424,-7.6994,-7.7005,-7.7005,-7.6999,-7.6999,-7.6999,-7.6999,-7.6999,-7.6999,-7.696,-7.6727,-7.5869,-7.4544,-7.3219,-7.3025,-7.2518,-7.1856,-7.1817,-7.1809,-7.1889,-7.1889,-7.1952,-7.1984,-7.1987,-7.1987,-7.1987,-7.187,-7.1792,-7.1753,-7.0855,-6.9642,-6.82,-6.7224,-6.6876,-6.6837,-6.6837,-6.6837,-6.6798,-6.6798,-6.6759,-6.6719,-6.668,-6.6641,-6.6602,-6.5858,-6.5468,-6.5468,-6.4648,-6.4182,-6.4182,-6.4104,-6.4023,-6.4023,-6.4062,-6.4062,-6.4023,-6.3945,-6.3945,-6.3909,-6.3948,-6.3831,-6.3909,-6.3164,-6.2813,-6.2813,-6.1993,-6.1095,-6.0471,-6.0276,-5.9963,-5.9219,-5.9219,-5.9336,-5.9336,-5.9336,-5.9694,-6.0993,-6.0885,-6.14,-6.3826,-6.2773,-6.2109,-6.2773,-6.2265,-6.1719,-6.1719,-6.1719,-6.1719,-6.1719,-6.1719,-6.1719,-6.1719,-6.1718,-6.1715,-6.1711,-6.1713,-6.1713,-6.171,-6.1713,-6.1713,-6.171,-6.1704,-6.1697,-6.1694,-6.1803,-6.2071,-6.254,-6.3008,-6.336,-6.4101,-6.4882,-6.5663,-6.6327,-6.6561,-6.6048,-7.7011,-7.6999,-7.6999,-7.6999,-7.6999,-7.6999,-7.6999,-7.6999,-7.6999,-7.6999,-7.696,-7.661,-7.5519,-7.3882,-7.3336,-7.2635,-7.1817,-7.1817,-7.1848,-7.1889,-7.1889,-7.1913,-7.1984,-7.1987,-7.1987,-7.1987,-7.1987,-7.1987,-7.187,-7.1128,-7.0074,-6.8981,-6.8513,-6.8318,-6.8318,-6.8357,-6.8318,-6.832,-6.781,-6.7576,-6.7498,-6.7068,-6.6798,-6.6759,-6.6483,-6.6327,-6.6249,-6.5507,-6.5077,-6.5038,-6.4609,-6.4299,-6.4299,-6.4299,-6.4299,-6.4299,-6.4299,-6.4299,-6.4299,-6.4299,-6.4299,-6.4299,-6.3477,-6.3008,-6.2969,-6.2189,-6.1522,-6.1252,-6.1174,-6.0976,-6.0703,-6.1093,-6.1213,-6.0822,-6.1095,-6.149,-6.1619,-6.1862,-6.2454,-6.3357,-6.293,-6.2539,-6.2773,-6.2226,-6.1758,-6.1719,-6.1719,-6.1719,-6.1719,-6.1719,-6.1719,-6.1719,-6.1718,-6.1718,-6.1715,-6.1716,-6.1716,-6.1716,-6.1717,-6.1718,-6.1715,-6.1709,-6.1704,-6.1738,-6.2119,-6.2501,-6.2891,-6.3984,-6.4726,-6.5197,-6.5704,-6.6444,-6.6759,-6.6798,-6.6363,-7.6999,-7.6999,-7.6999,-7.6999,-7.6999,-7.6999,-7.6999,-7.6999,-7.6999,-7.6999,-7.696,-7.6765,-7.583,-7.4466,-7.3726,-7.2869,-7.1895,-7.1817,-7.1843,-7.1881,-7.1889,-7.1952,-7.1979,-7.1987,-7.1987,-7.1987,-7.1987,-7.1987,-7.1909,-7.1128,-7.0387,-6.9801,-6.9528,-6.9413,-6.9416,-6.9413,-6.9413,-6.9338,-6.875,-6.8474,-6.8357,-6.7849,-6.7264,-6.6873,-6.6798,-6.6798,-6.6798,-6.6249,-6.5936,-6.5936,-6.5312,-6.496,-6.5002,-6.5002,-6.4999,-6.5002,-6.5002,-6.5002,-6.4999,-6.4963,-6.5002,-6.4921,-6.4179,-6.3594,-6.3282,-6.2579,-6.1993,-6.1679,-6.1718,-6.1679,-6.1796,-6.2267,-6.2306,-6.1835,-6.2306,-6.243,-6.2169,-6.2527,-6.265,-6.2928,-6.2734,-6.2617,-6.2578,-6.207,-6.1719,-6.1719,-6.1719,-6.1719,-6.1719,-6.1719,-6.1758,-6.1992,-6.207,-6.207,-6.203,-6.1835,-6.1795,-6.1952,-6.1953,-6.1718,-6.1717,-6.1714,-6.1983,-6.2212,-6.2707,-6.3362,-6.3948,-6.5038,-6.5709,-6.5985,-6.6414,-6.6763,-6.6802,-6.68,-6.6798,-7.6999,-7.6999,-7.6999,-7.6999,-7.6999,-7.6999,-7.6999,-7.6999,-7.6999,-7.6999,-7.6882,-7.6142,-7.5285,-7.4427,-7.4233,-7.3375,-7.1973,-7.1817,-7.1838,-7.1901,-7.1885,-7.1905,-7.1888,-7.1982,-7.1987,-7.1987,-7.1987,-7.1987,-7.1948,-7.1167,-7.0699,-7.0621,-6.9918,-6.9496,-6.9542,-6.9572,-6.9457,-6.9581,-6.9418,-6.9333,-6.9333,-6.9255,-6.8435,-6.7107,-6.6837,-6.6876,-6.6837,-6.6759,-6.6719,-6.6759,-6.6641,-6.6602,-6.6641,-6.6641,-6.6561,-6.6602,-6.6641,-6.6641,-6.6602,-6.6522,-6.6561,-6.6524,-6.5741,-6.5038,-6.4143,-6.3321,-6.2501,-6.1757,-6.1718,-6.1718,-6.1718,-6.1913,-6.1913,-6.1757,-6.1757,-6.2199,-6.2761,-6.2139,-6.2222,-6.2617,-6.2305,-6.1953,-6.1836,-6.1758,-6.1797,-6.1797,-6.1758,-6.1875,-6.1992,-6.1875,-6.2187,-6.2734,-6.293,-6.293,-6.289,-6.2617,-6.2422,-6.2422,-6.2226,-6.1836,-6.1719,-6.1794,-6.2259,-6.2722,-6.3181,-6.3915,-6.5004,-6.5711,-6.6073,-6.6387,-6.658,-6.6813,-6.6809,-6.6802,-6.6798,-7.6999,-7.6999,-7.6999,-7.6999,-7.6999,-7.6999,-7.6999,-7.6999,-7.6999,-7.6999,-7.6843,-7.6064,-7.5207,-7.435,-7.3804,-7.2908,-7.1856,-7.1817,-7.1843,-7.1876,-7.1889,-7.1909,-7.1979,-7.1984,-7.1987,-7.1987,-7.1987,-7.1987,-7.1987,-7.1675,-7.1519,-7.1519,-7.1245,-7.1053,-7.1056,-7.1053,-7.1053,-7.1019,-7.0545,-7.023,-7.0191,-6.9684,-6.9059,-6.8474,-6.7927,-6.7615,-6.7654,-6.7107,-6.6798,-6.6798,-6.6798,-6.6798,-6.6798,-6.6798,-6.6798,-6.6798,-6.6798,-6.6798,-6.6798,-6.6798,-6.6798,-6.6759,-6.6053,-6.5234,-6.4375,-6.3477,-6.2618,-6.1913,-6.1718,-6.1718,-6.1835,-6.2189,-6.2306,-6.1876,-6.2193,-6.2359,-6.2175,-6.1908,-6.1833,-6.207,-6.1836,-6.1719,-6.1914,-6.2187,-6.25,-6.2578,-6.3008,-6.3242,-6.3359,-6.3359,-6.3398,-6.3711,-6.3828,-6.4023,-6.4648,-6.3945,-6.3398,-6.3008,-6.2734,-6.2617,-6.2539,-6.2539,-6.2887,-6.3663,-6.4046,-6.4589,-6.568,-6.6153,-6.651,-6.6629,-6.6862,-6.6818,-6.6813,-6.6807,-6.6802,-7.6999,-7.6999,-7.6999,-7.6999,-7.6999,-7.6999,-7.6999,-7.6999,-7.6999,-7.6999,-7.6804,-7.5791,-7.4934,-7.4272,-7.3219,-7.2401,-7.1856,-7.1817,-7.1843,-7.192,-7.1889,-7.1913,-7.1979,-7.1984,-7.1987,-7.1987,-7.1987,-7.1987,-7.1987,-7.1987,-7.1987,-7.1987,-7.1987,-7.199,-7.1993,-7.199,-7.199,-7.1875,-7.1404,-7.1128,-7.105,-7.0543,-7.023,-7.0113,-6.9411,-6.863,-6.8122,-6.7537,-6.7068,-6.6834,-6.6798,-6.6798,-6.6798,-6.6798,-6.6798,-6.6798,-6.6798,-6.6798,-6.6798,-6.6798,-6.6798,-6.6798,-6.6288,-6.5624,-6.4804,-6.3906,-6.3047,-6.2345,-6.1796,-6.1718,-6.1876,-6.2464,-6.2625,-6.1961,-6.2238,-6.2327,-6.179,-6.1715,-6.1834,-6.2187,-6.25,-6.2539,-6.2578,-6.3086,-6.3359,-6.3437,-6.3984,-6.4258,-6.4297,-6.4297,-6.4453,-6.4648,-6.4726,-6.5117,-6.5625,-6.539,-6.4765,-6.4336,-6.3555,-6.3437,-6.3437,-6.3398,-6.3747,-6.4526,-6.5108,-6.5615,-6.6084,-6.6553,-6.675,-6.6869,-6.6907,-6.6866,-6.6821,-6.6815,-6.6807,-7.6999,-7.6999,-7.6999,-7.6999,-7.6999,-7.6999,-7.6999,-7.6999,-7.6999,-7.6999,-7.6804,-7.5285,-7.4583,-7.4077,-7.2791,-7.1895,-7.1817,-7.1817,-7.1833,-7.1901,-7.192,-7.1901,-7.1924,-7.1979,-7.1987,-7.1987,-7.1987,-7.1987,-7.1987,-7.1987,-7.1987,-7.1987,-7.1987,-7.1993,-7.2004,-7.1993,-7.1995,-7.1961,-7.1875,-7.1909,-7.1987,-7.1792,-7.1753,-7.1753,-7.1011,-6.9879,-6.8318,-6.8122,-6.7654,-6.699,-6.6837,-6.6798,-6.6798,-6.6798,-6.6798,-6.6798,-6.6798,-6.6798,-6.6798,-6.6798,-6.6798,-6.6798,-6.6759,-6.6327,-6.5468,-6.4648,-6.3789,-6.293,-6.2189,-6.1718,-6.1915,-6.251,-6.2635,-6.1893,-6.1894,-6.1941,-6.1753,-6.1756,-6.2069,-6.289,-6.3555,-6.418,-6.4258,-6.4258,-6.4297,-6.4336,-6.4531,-6.4648,-6.4726,-6.4765,-6.4844,-6.5351,-6.5625,-6.5898,-6.6445,-6.6797,-6.625,-6.5703,-6.4805,-6.4297,-6.4297,-6.4335,-6.4725,-6.5387,-6.5658,-6.6126,-6.6402,-6.6794,-6.6834,-6.6912,-6.6911,-6.6914,-6.6865,-6.6857,-6.6809,-7.6999,-7.6999,-7.6999,-7.6999,-7.6999,-7.6999,-7.6999,-7.6999,-7.6999,-7.6999,-7.6804,-7.5791,-7.4973,-7.4233,-7.3181,-7.2362,-7.1817,-7.1817,-7.1833,-7.1897,-7.1906,-7.192,-7.1905,-7.1924,-7.1979,-7.1987,-7.1987,-7.1987,-7.1987,-7.1987,-7.1987,-7.1987,-7.1987,-7.199,-7.1993,-7.199,-7.199,-7.1993,-7.199,-7.1987,-7.1987,-7.1987,-7.1987,-7.1948,-7.1714,-7.1011,-6.9918,-6.8747,-6.8005,-6.7693,-6.7107,-6.6798,-6.6798,-6.6805,-6.6805,-6.6798,-6.6805,-6.6805,-6.6798,-6.6798,-6.6798,-6.6798,-6.6798,-6.6405,-6.5663,-6.4804,-6.3945,-6.3086,-6.2228,-6.1874,-6.2503,-6.2824,-6.2675,-6.1816,-6.2216,-6.2338,-6.2029,-6.2304,-6.2968,-6.3711,-6.414,-6.4297,-6.4453,-6.4726,-6.5195,-6.5273,-6.5625,-6.5976,-6.6015,-6.5898,-6.6133,-6.6484,-6.6562,-6.6445,-6.6719,-6.6914,-6.664,-6.6289,-6.5664,-6.5195,-6.5195,-6.5273,-6.5663,-6.5975,-6.6247,-6.6482,-6.6796,-6.6914,-6.6914,-6.6914,-6.6914,-6.6914,-6.6914,-6.686,-6.6854,-7.6999,-7.6999,-7.6999,-7.6999,-7.6999,-7.6999,-7.6999,-7.6999,-7.6999,-7.6999,-7.6843,-7.6064,-7.5402,-7.4778,-7.396,-7.3297,-7.2752,-7.244,-7.2295,-7.2272,-7.2009,-7.1911,-7.1893,-7.1916,-7.1933,-7.1984,-7.1987,-7.1987,-7.1987,-7.1987,-7.1987,-7.1987,-7.1987,-7.1987,-7.1987,-7.1987,-7.1987,-7.1987,-7.1987,-7.1987,-7.1987,-7.1987,-7.1987,-7.1987,-7.1987,-7.1714,-7.1128,-6.9801,-6.8747,-6.8122,-6.7264,-6.6837,-6.6802,-6.6809,-6.6811,-6.6811,-6.6811,-6.6809,-6.6802,-6.68,-6.6798,-6.6798,-6.6798,-6.6444,-6.5663,-6.4804,-6.3945,-6.3086,-6.2228,-6.2071,-6.2815,-6.3336,-6.3186,-6.2758,-6.3158,-6.3201,-6.285,-6.3437,-6.4101,-6.4726,-6.5078,-6.5195,-6.543,-6.5625,-6.6094,-6.6172,-6.6562,-6.6914,-6.6914,-6.6836,-6.6914,-6.6914,-6.6797,-6.6797,-6.6836,-6.6914,-6.6914,-6.668,-6.6367,-6.6172,-6.6094,-6.6094,-6.6328,-6.6445,-6.6679,-6.6679,-6.6914,-6.6914,-6.6914,-6.6914,-6.6914,-6.6914,-6.6909,-6.6905,-6.6859,-7.6999,-7.6999,-7.6999,-7.6999,-7.6999,-7.6999,-7.6999,-7.6999,-7.6999,-7.6999,-7.6804,-7.622,-7.5752,-7.5519,-7.4778,-7.435,-7.4233,-7.3531,-7.3181,-7.2997,-7.2584,-7.2218,-7.1932,-7.1913,-7.193,-7.1984,-7.1987,-7.1987,-7.1987,-7.1987,-7.1987,-7.1987,-7.1987,-7.1987,-7.1987,-7.1987,-7.1987,-7.1987,-7.1987,-7.1987,-7.1987,-7.1987,-7.1987,-7.1987,-7.1987,-7.1948,-7.1753,-7.0933,-6.9723,-6.8279,-6.7381,-6.6956,-6.6848,-6.6811,-6.6856,-6.6901,-6.6857,-6.6815,-6.6811,-6.6807,-6.68,-6.68,-6.6761,-6.6522,-6.5819,-6.5038,-6.4258,-6.3477,-6.2618,-6.2384,-6.3247,-6.3925,-6.4325,-6.4445,-6.4255,-6.414,-6.4375,-6.5,-6.539,-6.5703,-6.6367,-6.6836,-6.664,-6.6758,-6.6797,-6.6797,-6.6836,-6.6875,-6.6914,-6.6914,-6.6914,-6.6914,-6.6914,-6.6914,-6.6914,-6.6914,-6.6914,-6.6914,-6.6836,-6.6914,-6.6719,-6.668,-6.668,-6.6797,-6.6914,-6.6914,-6.6914,-6.6914,-6.6914,-6.6914,-6.6914,-6.6914,-6.6912,-6.6908,-6.6941,-7.6999,-7.6999,-7.6999,-7.6999,-7.6999,-7.6999,-7.6999,-7.6999,-7.6999,-7.6999,-7.6921,-7.6765,-7.6259,-7.5713,-7.548,-7.5012,-7.4544,-7.4194,-7.4077,-7.4038,-7.3888,-7.2984,-7.2119,-7.1897,-7.192,-7.1984,-7.1987,-7.1987,-7.1987,-7.1987,-7.1987,-7.1987,-7.1987,-7.1987,-7.1987,-7.1987,-7.1987,-7.1987,-7.1987,-7.1987,-7.1987,-7.1987,-7.1987,-7.1987,-7.1987,-7.1987,-7.1909,-7.1167,-6.9879,-6.8279,-6.7927,-6.7425,-6.6889,-6.6857,-6.6901,-6.6904,-6.6906,-6.6866,-6.6862,-6.6859,-6.6856,-6.6809,-6.6807,-6.6727,-6.6485,-6.5741,-6.5194,-6.4765,-6.414,-6.3906,-6.4692,-6.5098,-6.5501,-6.5936,-6.5195,-6.4648,-6.5156,-6.543,-6.582,-6.6445,-6.6758,-6.6875,-6.6914,-6.6914,-6.6914,-6.6914,-6.6914,-6.6914,-6.6914,-6.6914,-6.6914,-6.6914,-6.6914,-6.6914,-6.6914,-6.6914,-6.6953,-6.707,-6.7226,-6.7578,-6.7265,-6.6953,-6.6914,-6.6914,-6.6914,-6.6914,-6.6914,-6.6914,-6.6914,-6.6914,-6.7031,-6.7109,-6.6992,-6.6949,-6.7022,-7.6999,-7.6999,-7.6999,-7.6999,-7.6999,-7.6999,-7.6999,-7.6999,-7.6999,-7.6999,-7.6999,-7.6999,-7.6727,-7.6298,-7.622,-7.5986,-7.5519,-7.5129,-7.4934,-7.4778,-7.4116,-7.329,-7.2505,-7.2166,-7.1952,-7.1984,-7.1987,-7.1987,-7.1987,-7.1987,-7.1987,-7.1987,-7.1987,-7.1987,-7.1987,-7.1987,-7.1987,-7.1987,-7.1987,-7.1987,-7.1987,-7.1987,-7.1987,-7.1987,-7.1987,-7.1987,-7.1909,-7.1519,-7.0426,-6.8981,-6.8279,-6.77,-6.6973,-6.6862,-6.6906,-6.6909,-6.6911,-6.691,-6.6907,-6.6905,-6.6862,-6.6857,-6.6815,-6.6614,-6.6297,-6.5824,-6.5546,-6.4921,-6.4531,-6.4809,-6.544,-6.5884,-6.6364,-6.6601,-6.5976,-6.5586,-6.6133,-6.6172,-6.6367,-6.6758,-6.6914,-6.6914,-6.6914,-6.6914,-6.6914,-6.6914,-6.6914,-6.6914,-6.6914,-6.6914,-6.707,-6.7226,-6.7265,-6.7344,-6.7539,-6.7617,-6.793,-6.7969,-6.8086,-6.8359,-6.8242,-6.7773,-6.7695,-6.7617,-6.7226,-6.6992,-6.7148,-6.7148,-6.6914,-6.6953,-6.7148,-6.7422,-6.7422,-6.7576,-6.7572,-7.7077,-7.6999,-7.6999,-7.6999,-7.6999,-7.6999,-7.6999,-7.6999,-7.6999,-7.6999,-7.6999,-7.6999,-7.696,-7.6999,-7.6843,-7.6921,-7.6882,-7.6142,-7.5869,-7.5324,-7.4394,-7.3324,-7.3285,-7.2279,-7.1995,-7.1984,-7.1987,-7.1987,-7.1987,-7.1987,-7.1987,-7.1987,-7.1987,-7.1987,-7.1987,-7.1987,-7.1987,-7.1987,-7.1987,-7.1987,-7.1987,-7.1987,-7.1987,-7.1987,-7.1987,-7.1987,-7.1987,-7.1831,-7.1089,-6.945,-6.863,-6.7939,-6.7213,-6.7021,-6.6909,-6.6913,-6.6913,-6.6912,-6.6911,-6.6909,-6.6905,-6.6904,-6.6859,-6.6541,-6.6071,-6.5909,-6.5631,-6.5082,-6.4611,-6.5165,-6.576,-6.6476,-6.6756,-6.6875,-6.6797,-6.6875,-6.6992,-6.6953,-6.6914,-6.6914,-6.6914,-6.6914,-6.6914,-6.6914,-6.6953,-6.7383,-6.7383,-6.75,-6.7734,-6.8125,-6.8086,-6.8047,-6.8008,-6.789,-6.8164,-6.8437,-6.8867,-6.918,-6.9297,-6.9453,-6.957,-6.9258,-6.8984,-6.8711,-6.8242,-6.793,-6.7851,-6.7656,-6.7265,-6.7265,-6.7617,-6.8008,-6.832,-6.8555,-6.8669,-7.7623,-7.6999,-7.6999,-7.6999,-7.6999,-7.6999,-7.6999,-7.6999,-7.6999,-7.6999,-7.6999,-7.6999,-7.6999,-7.6999,-7.6999,-7.6999,-7.6999,-7.6727,-7.6727,-7.6493,-7.4934,-7.421,-7.3812,-7.2739,-7.203,-7.1979,-7.1987,-7.1987,-7.1987,-7.1987,-7.1987,-7.1987,-7.1987,-7.1987,-7.1987,-7.1987,-7.1987,-7.1987,-7.1987,-7.1987,-7.1987,-7.1987,-7.1987,-7.1987,-7.1987,-7.1987,-7.1987,-7.1987,-7.1128,-6.984,-6.9179,-6.8605,-6.7799,-6.7177,-6.6909,-6.6914,-6.6914,-6.6914,-6.6914,-6.6914,-6.6912,-6.691,-6.6869,-6.6789,-6.6706,-6.6587,-6.6465,-6.6264,-6.6262,-6.6266,-6.651,-6.6752,-6.6952,-6.6992,-6.7031,-6.7226,-6.7617,-6.7305,-6.7031,-6.7031,-6.7031,-6.6914,-6.6953,-6.7109,-6.7305,-6.7734,-6.8047,-6.8203,-6.8633,-6.9062,-6.9023,-6.8789,-6.8867,-6.8867,-6.9219,-6.9531,-6.9883,-7.0195,-7.0351,-7.0469,-7.0586,-7.039,-6.9961,-6.957,-6.918,-6.8945,-6.8672,-6.832,-6.7969,-6.8047,-6.8164,-6.8672,-6.9101,-6.9453,-6.9608,-7.7779,-7.6999,-7.6999,-7.6999,-7.6999,-7.6999,-7.6999,-7.6999,-7.6999,-7.6999,-7.6999,-7.6999,-7.6999,-7.6999,-7.6999,-7.6999,-7.6999,-7.6999,-7.6999,-7.6688,-7.5596,-7.5068,-7.4777,-7.3705,-7.2795,-7.2168,-7.1984,-7.1987,-7.1987,-7.2026,-7.1987,-7.1987,-7.2026,-7.1987,-7.1987,-7.1987,-7.1987,-7.1987,-7.1987,-7.1987,-7.1987,-7.1987,-7.1987,-7.1987,-7.1987,-7.1987,-7.1987,-7.1987,-7.1285,-7.0272,-6.9613,-6.8802,-6.776,-6.7138,-6.6909,-6.6914,-6.6914,-6.6914,-6.6914,-6.6914,-6.6914,-6.6913,-6.6912,-6.6911,-6.6907,-6.6905,-6.6902,-6.6859,-6.682,-6.686,-6.6907,-6.6911,-6.7031,-6.7461,-6.75,-6.7851,-6.8398,-6.8047,-6.7734,-6.7969,-6.8242,-6.8203,-6.8125,-6.789,-6.8125,-6.8711,-6.8789,-6.8984,-6.8906,-6.9336,-6.9531,-6.9492,-6.9726,-6.9961,-7.0351,-7.0664,-7.0937,-7.1172,-7.1289,-7.1367,-7.1484,-7.1172,-7.0781,-7.0469,-7.0156,-6.9765,-6.9453,-6.9062,-6.8789,-6.8906,-6.9101,-6.9492,-6.9961,-7.0469,-7.0469,-7.7896,-7.6999,-7.6999,-7.6999,-7.6999,-7.6999,-7.6999,-7.6999,-7.6999,-7.6999,-7.6999,-7.6999,-7.6999,-7.6999,-7.6999,-7.6999,-7.6999,-7.6999,-7.6999,-7.6843,-7.6025,-7.5608,-7.5312,-7.4548,-7.3631,-7.2385,-7.2519,-7.2528,-7.2534,-7.2378,-7.2573,-7.23,-7.2221,-7.2182,-7.2065,-7.1987,-7.1987,-7.1987,-7.1987,-7.1987,-7.1987,-7.1987,-7.1987,-7.1987,-7.1987,-7.1987,-7.1987,-7.1948,-7.1597,-7.0738,-6.9891,-6.8652,-6.7526,-6.6905,-6.6914,-6.6914,-6.6914,-6.6914,-6.6914,-6.6914,-6.6914,-6.6914,-6.6913,-6.6912,-6.6911,-6.691,-6.6907,-6.6906,-6.6905,-6.6906,-6.6911,-6.7148,-6.75,-6.8008,-6.8242,-6.8789,-6.9258,-6.8984,-6.9023,-6.9101,-6.9023,-6.8945,-6.9062,-6.9062,-6.9336,-6.9609,-6.9648,-6.9726,-6.9726,-7.0,-7.043,-7.082,-7.1172,-7.0937,-7.1211,-7.1211,-7.1562,-7.164,-7.1836,-7.1914,-7.1992,-7.1719,-7.1367,-7.1367,-7.1094,-7.0664,-7.0234,-6.9883,-6.9726,-6.9765,-6.9922,-7.0273,-7.082,-7.1484,-7.1289,-7.8402,-7.6999,-7.6999,-7.6999,-7.6999,-7.6999,-7.6999,-7.6999,-7.6999,-7.6999,-7.6999,-7.6999,-7.6999,-7.6999,-7.6999,-7.6999,-7.6999,-7.6999,-7.6999,-7.6882,-7.622,-7.5836,-7.5647,-7.5117,-7.4353,-7.4099,-7.4051,-7.4077,-7.3936,-7.4056,-7.3546,-7.3197,-7.3002,-7.2729,-7.2221,-7.1987,-7.2065,-7.2026,-7.2065,-7.2104,-7.1987,-7.1987,-7.1987,-7.1987,-7.1987,-7.1987,-7.1987,-7.1948,-7.1597,-7.0738,-6.9852,-6.8927,-6.8036,-6.7338,-6.6991,-6.6914,-6.6914,-6.6914,-6.6914,-6.6914,-6.6914,-6.6914,-6.6914,-6.6914,-6.6914,-6.6914,-6.6952,-6.7067,-6.7028,-6.6989,-6.695,-6.7578,-6.7969,-6.8359,-6.8945,-6.9609,-7.0234,-7.0312,-6.9961,-6.9883,-6.9687,-6.9648,-6.9883,-7.0078,-7.0234,-7.039,-7.0508,-7.0781,-7.0976,-7.1523,-7.2226,-7.2539,-7.2851,-7.2383,-7.1992,-7.1836,-7.1875,-7.1836,-7.1953,-7.1953,-7.1992,-7.1992,-7.1875,-7.1758,-7.168,-7.1367,-7.0976,-7.0664,-7.0586,-7.0547,-7.0742,-7.0976,-7.1367,-7.1797,-7.1836,-7.9181,-7.774,-7.7662,-7.7428,-7.7038,-7.6999,-7.6999,-7.6999,-7.6999,-7.6999,-7.6999,-7.6999,-7.6999,-7.6999,-7.6999,-7.6999,-7.6999,-7.6999,-7.6999,-7.6843,-7.6571,-7.6376,-7.6337,-7.5847,-7.578,-7.5757,-7.5785,-7.5226,-7.4587,-7.447,-7.4321,-7.3936,-7.3549,-7.308,-7.2807,-7.269,-7.2417,-7.226,-7.2417,-7.2417,-7.2026,-7.1987,-7.1987,-7.1987,-7.1987,-7.1987,-7.1987,-7.1987,-7.1558,-7.0819,-7.0286,-6.9633,-6.8819,-6.8043,-6.7383,-6.707,-6.6914,-6.6914,-6.6914,-6.6914,-6.6914,-6.6914,-6.6914,-6.6914,-6.6914,-6.6914,-6.7148,-6.7539,-6.8086,-6.8202,-6.8281,-6.8594,-6.8984,-6.9453,-6.9883,-7.0469,-7.1094,-7.1289,-7.1015,-7.0625,-7.082,-7.0898,-7.0898,-7.1055,-7.1055,-7.1172,-7.1328,-7.1601,-7.1953,-7.2344,-7.2812,-7.2773,-7.2734,-7.2539,-7.2109,-7.2031,-7.1992,-7.1992,-7.1992,-7.1992,-7.1992,-7.1992,-7.1992,-7.1953,-7.1836,-7.1758,-7.168,-7.1367,-7.1367,-7.1328,-7.1406,-7.1562,-7.1797,-7.1992,-7.1992,-7.9922,-7.8519,-7.8363,-7.7896,-7.7311,-7.7077,-7.6999,-7.6999,-7.6999,-7.6999,-7.6999,-7.6999,-7.6999,-7.6999,-7.6999,-7.6999,-7.6999,-7.6999,-7.6999,-7.6999,-7.696,-7.696,-7.6999,-7.6999,-7.6816,-7.6677,-7.6737,-7.6327,-7.5471,-7.5241,-7.5017,-7.4717,-7.4056,-7.3666,-7.3588,-7.3549,-7.3002,-7.2924,-7.2885,-7.2807,-7.2221,-7.1987,-7.1987,-7.1987,-7.1987,-7.1987,-7.1987,-7.1987,-7.1714,-7.1175,-7.0759,-7.0339,-6.9639,-6.8905,-6.8125,-6.75,-6.7148,-6.6914,-6.6914,-6.6914,-6.6914,-6.6914,-6.7109,-6.7148,-6.7305,-6.7539,-6.7812,-6.8398,-6.8906,-6.9258,-6.918,-6.9531,-6.9961,-7.039,-7.0781,-7.1172,-7.164,-7.1836,-7.1797,-7.1719,-7.1992,-7.1875,-7.1601,-7.1601,-7.1523,-7.1562,-7.168,-7.168,-7.1992,-7.1992,-7.2265,-7.2187,-7.2148,-7.2148,-7.2031,-7.2031,-7.1992,-7.1992,-7.1992,-7.1992,-7.1992,-7.1992,-7.1992,-7.2031,-7.1992,-7.1914,-7.1992,-7.1992,-7.1797,-7.1719,-7.1914,-7.1992,-7.1992,-7.1992,-7.1992,-8.0234,-7.9292,-7.8636,-7.8246,-7.8012,-7.7311,-7.6999,-7.6999,-7.6999,-7.6999,-7.6999,-7.6999,-7.6999,-7.6999,-7.6999,-7.6999,-7.6999,-7.6999,-7.6999,-7.6999,-7.6999,-7.6999,-7.6999,-7.6999,-7.6999,-7.7017,-7.6994,-7.6956,-7.6517,-7.6525,-7.6305,-7.5693,-7.5384,-7.5149,-7.4408,-7.4369,-7.429,-7.4056,-7.3588,-7.2885,-7.2221,-7.2026,-7.1987,-7.1987,-7.1987,-7.1987,-7.1987,-7.1987,-7.1831,-7.1756,-7.1073,-7.0691,-7.042,-6.9725,-6.9336,-6.8711,-6.789,-6.6914,-6.707,-6.7187,-6.7226,-6.7383,-6.7695,-6.7969,-6.8203,-6.8672,-6.9062,-6.918,-6.9531,-6.9687,-6.9883,-7.0195,-7.0508,-7.0898,-7.1367,-7.164,-7.1992,-7.1992,-7.1992,-7.1992,-7.1992,-7.1992,-7.1875,-7.1914,-7.1953,-7.1992,-7.1992,-7.1992,-7.1992,-7.1992,-7.1992,-7.1992,-7.1992,-7.1992,-7.1992,-7.1992,-7.2187,-7.2148,-7.2187,-7.2187,-7.2265,-7.2305,-7.207,-7.207,-7.207,-7.2187,-7.2305,-7.2265,-7.207,-7.2187,-7.2461,-7.2305,-7.2031,-7.2031,-7.2031,-8.1013,-8.0156,-7.9337,-7.8714,-7.8207,-7.735,-7.6999,-7.6999,-7.6999,-7.6999,-7.6999,-7.6999,-7.6999,-7.6999,-7.6999,-7.6999,-7.6999,-7.6999,-7.6999,-7.6999,-7.6999,-7.6999,-7.6999,-7.6999,-7.6999,-7.7005,-7.6994,-7.6985,-7.7051,-7.7071,-7.6812,-7.6513,-7.6047,-7.5621,-7.5266,-7.5227,-7.4915,-7.4408,-7.3744,-7.3156,-7.269,-7.23,-7.1987,-7.1987,-7.1987,-7.1987,-7.1987,-7.1987,-7.1987,-7.1953,-7.1542,-7.1472,-7.1242,-7.0664,-7.0117,-7.0039,-6.9062,-6.8476,-6.8398,-6.832,-6.8242,-6.8359,-6.8672,-6.8867,-6.9101,-6.9648,-7.0117,-7.0117,-7.0664,-7.082,-7.082,-7.1211,-7.1328,-7.1601,-7.1758,-7.1914,-7.207,-7.1992,-7.1992,-7.1992,-7.207,-7.2265,-7.2383,-7.2344,-7.2226,-7.1992,-7.1992,-7.1992,-7.1992,-7.1992,-7.1992,-7.1992,-7.1992,-7.1992,-7.1992,-7.1992,-7.25,-7.2617,-7.289,-7.2851,-7.2812,-7.2734,-7.2617,-7.2539,-7.2578,-7.2656,-7.2695,-7.2812,-7.289,-7.2969,-7.3086,-7.289,-7.2695,-7.2187,-7.2187,-8.1714,-8.1052,-8.0195,-7.9454,-7.887,-7.8012,-7.7662,-7.7662,-7.7662,-7.7545,-7.7272,-7.7155,-7.6999,-7.6999,-7.6999,-7.6999,-7.6999,-7.6999,-7.6999,-7.6999,-7.6999,-7.6999,-7.6999,-7.6999,-7.6999,-7.6999,-7.6994,-7.698,-7.7004,-7.7024,-7.7082,-7.7062,-7.6516,-7.6203,-7.6164,-7.6086,-7.5774,-7.4915,-7.4408,-7.3939,-7.351,-7.2768,-7.2495,-7.23,-7.2143,-7.1987,-7.1987,-7.1987,-7.1987,-7.1993,-7.1971,-7.1862,-7.1748,-7.1367,-7.1055,-7.0937,-7.0351,-7.0156,-6.9883,-6.9648,-6.9531,-6.9492,-6.9765,-6.9883,-7.0234,-7.0742,-7.1015,-7.1015,-7.1445,-7.1797,-7.1992,-7.1914,-7.1875,-7.1836,-7.1953,-7.2109,-7.2265,-7.2422,-7.2773,-7.3125,-7.3164,-7.3008,-7.3008,-7.2851,-7.2578,-7.2109,-7.1992,-7.1992,-7.2031,-7.207,-7.2109,-7.2109,-7.207,-7.207,-7.2109,-7.2226,-7.2656,-7.3164,-7.3437,-7.3633,-7.3633,-7.3594,-7.3515,-7.3398,-7.3242,-7.3711,-7.4101,-7.3945,-7.3789,-7.3789,-7.3789,-7.3711,-7.3437,-7.2851,-7.2656,-8.2065,-8.1948,-8.1052,-8.0623,-8.0461,-7.9688,-7.9298,-7.9104,-7.922,-7.8792,-7.8129,-7.7506,-7.7233,-7.7116,-7.7194,-7.7116,-7.7038,-7.6999,-7.6999,-7.6999,-7.6999,-7.6999,-7.6999,-7.6999,-7.6999,-7.7005,-7.6994,-7.698,-7.7004,-7.7063,-7.7085,-7.702,-7.6867,-7.6945,-7.6906,-7.675,-7.6477,-7.5774,-7.5384,-7.4954,-7.4369,-7.3705,-7.3236,-7.3002,-7.2495,-7.2026,-7.2026,-7.2026,-7.1987,-7.199,-7.201,-7.198,-7.1943,-7.1795,-7.168,-7.1601,-7.1562,-7.1367,-7.1211,-7.043,-6.9648,-6.9687,-7.0156,-7.0859,-7.1328,-7.168,-7.1875,-7.1758,-7.1914,-7.1953,-7.1992,-7.2031,-7.2226,-7.2344,-7.2539,-7.2851,-7.3047,-7.3203,-7.3594,-7.418,-7.4219,-7.3867,-7.3789,-7.3633,-7.3047,-7.2578,-7.207,-7.2031,-7.2265,-7.2344,-7.2305,-7.2305,-7.2187,-7.2187,-7.2265,-7.2617,-7.3164,-7.3789,-7.4258,-7.4414,-7.4531,-7.4453,-7.4414,-7.4258,-7.4219,-7.4844,-7.5312,-7.5117,-7.4883,-7.4648,-7.4492,-7.4414,-7.4258,-7.3828,-7.3828,-8.2104,-8.2065,-8.1714,-8.1286,-8.0734,-7.9883,-7.9493,-7.9493,-7.9493,-7.9376,-7.9026,-7.8675,-7.8519,-7.8402,-7.7973,-7.7818,-7.774,-7.7194,-7.7077,-7.6999,-7.6999,-7.6999,-7.6999,-7.6999,-7.6999,-7.7005,-7.6989,-7.698,-7.7004,-7.7063,-7.7085,-7.7095,-7.7101,-7.7101,-7.7101,-7.7101,-7.6867,-7.6555,-7.6086,-7.5582,-7.5266,-7.4486,-7.4017,-7.3939,-7.3236,-7.2846,-7.2729,-7.2221,-7.2065,-7.2034,-7.2049,-7.2056,-7.1982,-7.199,-7.1992,-7.1992,-7.1992,-7.1992,-7.1992,-7.1328,-7.1055,-7.1015,-7.1328,-7.164,-7.1992,-7.1992,-7.1992,-7.1992,-7.2031,-7.2109,-7.207,-7.2461,-7.289,-7.2969,-7.3203,-7.3594,-7.3867,-7.4062,-7.4336,-7.4922,-7.4726,-7.4414,-7.4414,-7.4453,-7.375,-7.3086,-7.2539,-7.2187,-7.2539,-7.2812,-7.293,-7.2969,-7.293,-7.3086,-7.3203,-7.3476,-7.375,-7.4375,-7.5078,-7.5273,-7.539,-7.539,-7.5312,-7.5156,-7.5117,-7.5547,-7.5898,-7.6094,-7.6015,-7.582,-7.5469,-7.5156,-7.4961,-7.4805,-7.4883,-8.2098,-8.2104,-8.2104,-8.1753,-8.113,-8.0545,-8.0273,-8.0273,-8.0312,-8.0078,-7.9877,-7.9649,-7.9493,-7.9298,-7.8981,-7.8441,-7.8168,-7.7701,-7.7272,-7.7116,-7.6999,-7.6999,-7.6999,-7.6999,-7.6999,-7.7005,-7.6978,-7.7009,-7.7004,-7.7059,-7.7078,-7.7095,-7.7101,-7.7101,-7.7101,-7.7101,-7.7101,-7.6906,-7.6594,-7.6203,-7.6086,-7.5384,-7.4876,-7.4759,-7.4095,-7.3705,-7.3549,-7.3197,-7.2768,-7.2581,-7.2438,-7.2291,-7.2102,-7.1992,-7.1992,-7.1992,-7.2031,-7.2031,-7.2031,-7.1992,-7.1992,-7.1797,-7.1836,-7.1914,-7.1992,-7.2031,-7.207,-7.2461,-7.2461,-7.2461,-7.2617,-7.3398,-7.3672,-7.3789,-7.3945,-7.4297,-7.4726,-7.5,-7.5273,-7.5625,-7.5469,-7.5547,-7.539,-7.543,-7.4648,-7.4023,-7.3633,-7.3359,-7.3515,-7.375,-7.3867,-7.3906,-7.3906,-7.414,-7.4414,-7.457,-7.4765,-7.5156,-7.5742,-7.6133,-7.6289,-7.625,-7.6211,-7.6133,-7.6133,-7.625,-7.6406,-7.664,-7.6875,-7.707,-7.6562,-7.5976,-7.6015,-7.5898,-7.5742,-8.2033,-8.2104,-8.2104,-8.2065,-8.1948,-8.2026,-8.1909,-8.1753,-8.1792,-8.1442,-8.074,-8.0078,-7.9727,-7.9688,-7.9649,-7.9142,-7.8519,-7.8246,-7.7779,-7.7155,-7.6999,-7.6999,-7.6999,-7.6999,-7.6999,-7.6999,-7.7011,-7.6999,-7.7004,-7.7008,-7.7032,-7.7092,-7.7101,-7.7101,-7.7101,-7.7101,-7.7101,-7.7062,-7.6984,-7.6945,-7.675,-7.6125,-7.5852,-7.5579,-7.4954,-7.4525,-7.4408,-7.4134,-7.3705,-7.3317,-7.3297,-7.3031,-7.2487,-7.2419,-7.2383,-7.2305,-7.2265,-7.2187,-7.2109,-7.207,-7.2148,-7.2031,-7.1992,-7.207,-7.207,-7.2148,-7.25,-7.3164,-7.3281,-7.3633,-7.4101,-7.4531,-7.4531,-7.4648,-7.4844,-7.5195,-7.5664,-7.5859,-7.6133,-7.625,-7.6719,-7.7031,-7.6758,-7.6367,-7.5586,-7.5039,-7.4687,-7.457,-7.4531,-7.4648,-7.4765,-7.4961,-7.5,-7.5078,-7.5312,-7.5547,-7.5781,-7.6133,-7.6367,-7.668,-7.6875,-7.6836,-7.6875,-7.6914,-7.6875,-7.6758,-7.6953,-7.7187,-7.7539,-7.7812,-7.7305,-7.6914,-7.6992,-7.6914,-7.668,-8.1998,-8.2026,-8.2033,-8.2085,-8.2104,-8.2104,-8.2104,-8.2104,-8.2065,-8.1909,-8.1675,-8.1286,-8.1208,-8.1091,-8.0506,-7.9922,-7.9142,-7.8402,-7.7818,-7.7155,-7.7116,-7.6999,-7.7038,-7.7155,-7.7077,-7.6999,-7.7005,-7.6994,-7.7004,-7.7086,-7.7071,-7.7095,-7.7218,-7.7101,-7.7101,-7.7101,-7.7101,-7.7101,-7.7062,-7.7062,-7.7062,-7.6789,-7.6594,-7.6555,-7.5774,-7.5384,-7.5345,-7.4993,-7.4525,-7.4173,-7.4115,-7.3924,-7.3576,-7.3547,-7.359,-7.363,-7.3671,-7.371,-7.3711,-7.3672,-7.3125,-7.2539,-7.2187,-7.2422,-7.2734,-7.2851,-7.3359,-7.3906,-7.414,-7.4414,-7.4492,-7.5195,-7.543,-7.5625,-7.5898,-7.6367,-7.6719,-7.6758,-7.6875,-7.6914,-7.7187,-7.7305,-7.7187,-7.6953,-7.6289,-7.582,-7.5469,-7.539,-7.5351,-7.5508,-7.5664,-7.5976,-7.6133,-7.6094,-7.6172,-7.6211,-7.6367,-7.664,-7.6797,-7.6992,-7.7187,-7.7226,-7.7187,-7.707,-7.7148,-7.7226,-7.7422,-7.7734,-7.8359,-7.8515,-7.8047,-7.7617,-7.75,-7.7461,-7.7344,-8.1991,-8.199,-8.199,-8.2051,-8.2085,-8.2104,-8.2104,-8.2104,-8.2104,-8.2104,-8.2065,-8.2065,-8.2026,-8.187,-8.1519,-8.0779,-7.9961,-7.9454,-7.8714,-7.7973,-7.7896,-7.8012,-7.7935,-7.7584,-7.7584,-7.7389,-7.7133,-7.7004,-7.7043,-7.7367,-7.7543,-7.7603,-7.7531,-7.7375,-7.7257,-7.7101,-7.7101,-7.7101,-7.7101,-7.7101,-7.7101,-7.7023,-7.7023,-7.6906,-7.6555,-7.6242,-7.6086,-7.5735,-7.5227,-7.5074,-7.4965,-7.4855,-7.4742,-7.4632,-7.4599,-7.4603,-7.4567,-7.4569,-7.4492,-7.4453,-7.3828,-7.3242,-7.293,-7.3164,-7.3633,-7.375,-7.4258,-7.4726,-7.5,-7.5273,-7.5508,-7.6172,-7.6289,-7.6484,-7.664,-7.707,-7.7265,-7.7265,-7.7578,-7.7578,-7.7734,-7.7734,-7.75,-7.7305,-7.6953,-7.6601,-7.625,-7.6211,-7.6133,-7.625,-7.6367,-7.6601,-7.6797,-7.6719,-7.664,-7.668,-7.6875,-7.7148,-7.7226,-7.7226,-7.7226,-7.7226,-7.7226,-7.7226,-7.7265,-7.7422,-7.7851,-7.8281,-7.8984,-7.918,-7.8828,-7.8437,-7.8086,-7.8086,-7.8125,-8.1951,-8.1983,-8.1983,-8.2007,-8.2012,-8.2046,-8.2104,-8.2104,-8.2104,-8.2104,-8.2104,-8.2104,-8.2104,-8.2104,-8.2026,-8.1481,-8.0779,-8.0578,-7.9961,-7.9454,-7.9065,-7.9181,-7.8987,-7.8636,-7.8402,-7.8063,-7.7807,-7.7672,-7.7316,-7.8004,-7.8416,-7.8426,-7.8429,-7.8038,-7.757,-7.7335,-7.7257,-7.7179,-7.7101,-7.7101,-7.7101,-7.7101,-7.7101,-7.7023,-7.6906,-7.6867,-7.6828,-7.6711,-7.636,-7.6092,-7.5826,-7.5399,-7.5015,-7.4709,-7.4673,-7.4716,-7.4837,-7.4959,-7.5,-7.5078,-7.5,-7.4687,-7.4687,-7.4687,-7.4609,-7.4687,-7.5117,-7.5625,-7.5937,-7.6445,-7.6875,-7.6953,-7.6992,-7.707,-7.707,-7.7305,-7.75,-7.7773,-7.8164,-7.8437,-7.8672,-7.8555,-7.793,-7.7617,-7.7226,-7.707,-7.6758,-7.6797,-7.6758,-7.6836,-7.6914,-7.6953,-7.7109,-7.7148,-7.7109,-7.6992,-7.7031,-7.7226,-7.7226,-7.7226,-7.7226,-7.7265,-7.7383,-7.7461,-7.7422,-7.7773,-7.875,-7.9336,-7.9726,-7.9765,-7.9961,-7.9414,-7.9101,-7.9101,-7.9219,-8.1899,-8.1904,-8.1943,-8.1967,-8.2007,-8.2012,-8.2078,-8.2104,-8.2104,-8.2104,-8.2104,-8.2104,-8.2104,-8.2104,-8.2065,-8.1558,-8.113,-8.0695,-8.0188,-7.9883,-7.9766,-7.961,-7.9454,-7.9337,-7.9181,-7.9076,-7.8904,-7.8618,-7.8841,-7.926,-7.9317,-7.9326,-7.9326,-7.878,-7.8311,-7.7999,-7.7648,-7.7296,-7.7179,-7.7179,-7.7179,-7.7218,-7.7218,-7.7218,-7.7218,-7.7218,-7.7101,-7.7101,-7.6828,-7.6753,-7.6677,-7.6482,-7.6443,-7.637,-7.6412,-7.6386,-7.6436,-7.6482,-7.6444,-7.6445,-7.6328,-7.625,-7.6328,-7.6015,-7.5781,-7.5625,-7.5937,-7.6328,-7.6601,-7.6953,-7.7109,-7.7148,-7.7305,-7.7422,-7.75,-7.7695,-7.7969,-7.8515,-7.8906,-7.8945,-7.9219,-7.8594,-7.8008,-7.7578,-7.7226,-7.7226,-7.7226,-7.7226,-7.7226,-7.7226,-7.7226,-7.7226,-7.7226,-7.7226,-7.7226,-7.7109,-7.7148,-7.7226,-7.7226,-7.7226,-7.7226,-7.7344,-7.7578,-7.7969,-7.8437,-7.9258,-8.0195,-8.0547,-8.0703,-8.1289,-8.1484,-8.0742,-8.0195,-8.0195,-8.0234,-8.1911,-8.1899,-8.1899,-8.1926,-8.1967,-8.1968,-8.2005,-8.2065,-8.2091,-8.2104,-8.2104,-8.2104,-8.2104,-8.2104,-8.2065,-8.1831,-8.1442,-8.1403,-8.1091,-8.0896,-8.0428,-8.0662,-8.0545,-8.0156,-8.0039,-7.9973,-7.9728,-7.9369,-7.9743,-8.0087,-8.0224,-8.0224,-8.0224,-7.9678,-7.9053,-7.8507,-7.8116,-7.7687,-7.7375,-7.7375,-7.7492,-7.757,-7.7609,-7.757,-7.757,-7.7453,-7.7101,-7.7101,-7.7101,-7.7101,-7.7101,-7.7062,-7.7062,-7.7062,-7.7071,-7.7007,-7.6979,-7.6986,-7.6989,-7.707,-7.7187,-7.7305,-7.7461,-7.7187,-7.6758,-7.6484,-7.6719,-7.6992,-7.7109,-7.7187,-7.7187,-7.7265,-7.75,-7.7695,-7.793,-7.8125,-7.8672,-7.9258,-7.9414,-7.9414,-7.9062,-7.8437,-7.789,-7.75,-7.7226,-7.7226,-7.7226,-7.7226,-7.7226,-7.7226,-7.7226,-7.7226,-7.7226,-7.7226,-7.7226,-7.7226,-7.7226,-7.7226,-7.7226,-7.7226,-7.7226,-7.7773,-7.8359,-7.9101,-7.9844,-8.0586,-8.1211,-8.1406,-8.164,-8.2148,-8.2304,-8.1719,-8.1211,-8.1211,-8.1289,-8.1892,-8.1892,-8.1892,-8.1929,-8.1926,-8.1967,-8.1991,-8.1999,-8.2065,-8.2098,-8.2091,-8.2098,-8.2091,-8.2091,-8.2052,-8.2104,-8.1909,-8.187,-8.1831,-8.2026,-8.1714,-8.1675,-8.1519,-8.1325,-8.0974,-8.0641,-8.0435,-8.031,-8.0216,-8.0634,-8.1083,-8.1083,-8.1083,-8.0654,-7.9834,-7.9287,-7.8897,-7.8507,-7.8077,-7.7882,-7.8194,-7.839,-7.8468,-7.8353,-7.8197,-7.7999,-7.7335,-7.7101,-7.7101,-7.7101,-7.7101,-7.7101,-7.7101,-7.7101,-7.7071,-7.7081,-7.7091,-7.7138,-7.7183,-7.7186,-7.7226,-7.7461,-7.7851,-7.7617,-7.7148,-7.7226,-7.75,-7.7187,-7.7187,-7.7461,-7.7539,-7.7695,-7.793,-7.832,-7.8672,-7.9062,-7.9648,-8.0078,-8.0234,-8.0039,-7.9258,-7.8633,-7.8164,-7.7773,-7.7226,-7.7226,-7.7226,-7.7226,-7.7539,-7.7578,-7.75,-7.7461,-7.7226,-7.7226,-7.7226,-7.7226,-7.7226,-7.7226,-7.7343,-7.7461,-7.7695,-7.8398,-7.9297,-8.0078,-8.0859,-8.1445,-8.1953,-8.2187,-8.2226,-8.2187,-8.2304,-8.2304,-8.2187,-8.1992,-8.1953,-8.1892,-8.1892,-8.1892,-8.192,-8.1926,-8.1934,-8.1959,-8.1991,-8.2007,-8.2022,-8.2022,-8.2022,-8.2044,-8.2026,-8.2026,-8.2039,-8.2104,-8.2104,-8.2104,-8.2065,-8.2104,-8.2104,-8.2104,-8.1792,-8.1714,-8.1727,-8.1561,-8.1329,-8.1399,-8.1695,-8.1942,-8.1942,-8.1903,-8.1435,-8.0732,-8.0224,-7.9912,-7.9405,-7.917,-7.8702,-7.8663,-7.9014,-7.9209,-7.8741,-7.839,-7.8038,-7.7492,-7.7101,-7.7101,-7.7101,-7.7101,-7.7101,-7.7101,-7.7101,-7.7104,-7.711,-7.7083,-7.7094,-7.7141,-7.7184,-7.7226,-7.7226,-7.7422,-7.7344,-7.7422,-7.789,-7.793,-7.7461,-7.7383,-7.7695,-7.7969,-7.8164,-7.8476,-7.8984,-7.9453,-8.0039,-8.0586,-8.082,-8.1054,-8.039,-7.9609,-7.9023,-7.8515,-7.8047,-7.7422,-7.7226,-7.7226,-7.7422,-7.8242,-7.8515,-7.8359,-7.8203,-7.7422,-7.7265,-7.7226,-7.7382,-7.7499,-7.7695,-7.789,-7.8008,-7.8203,-7.918,-8.0195,-8.1054,-8.1797,-8.2187,-8.2539,-8.2929,-8.289,-8.25,-8.2304,-8.2304,-8.2304,-8.2148,-8.2226,-8.1892,-8.1892,-8.1892,-8.1911,-8.1929,-8.189,-8.1908,-8.1964,-8.1973,-8.1973,-8.1981,-8.1975,-8.2014,-8.2005,-8.2005,-8.1994,-8.2065,-8.2104,-8.2104,-8.2104,-8.2026,-8.2104,-8.2104,-8.2104,-8.2026,-8.2077,-8.2117,-8.2079,-8.2222,-8.2245,-8.2254,-8.2293,-8.2254,-8.2059,-8.1474,-8.1239,-8.081,-8.0302,-8.0263,-7.999,-7.9522,-7.9912,-8.0107,-7.96,-7.9092,-7.8546,-7.7804,-7.7375,-7.7101,-7.7101,-7.7101,-7.7101,-7.7101,-7.7101,-7.7101,-7.711,-7.7081,-7.7093,-7.7138,-7.7262,-7.7304,-7.7305,-7.7695,-7.789,-7.7422,-7.7773,-7.789,-7.7578,-7.7851,-7.8164,-7.8437,-7.8633,-7.9375,-8.0,-8.0312,-8.0703,-8.125,-8.164,-8.1406,-8.0781,-8.0078,-7.9453,-7.9101,-7.9062,-7.8711,-7.9414,-7.9101,-7.9297,-7.9805,-7.9844,-7.9609,-7.9258,-7.8711,-7.7695,-7.7226,-7.7538,-7.7929,-7.8125,-7.8515,-7.9062,-7.957,-8.0312,-8.1133,-8.1875,-8.2383,-8.2617,-8.3008,-8.3164,-8.2929,-8.2383,-8.2304,-8.2304,-8.2304,-8.2304,-8.2304,-8.1892,-8.1892,-8.1892,-8.1892,-8.1883,-8.1883,-8.1883,-8.1873,-8.1873,-8.1883,-8.1892,-8.1926,-8.1991,-8.199,-8.2005,-8.1955,-8.1858,-8.1714,-8.1792,-8.1831,-8.1831,-8.1909,-8.2026,-8.2104,-8.2104,-8.2122,-8.2156,-8.2153,-8.2179,-8.2237,-8.2287,-8.229,-8.2293,-8.2293,-8.2059,-8.1669,-8.1161,-8.1161,-8.1161,-8.1161,-8.1122,-8.1122,-8.0888,-8.0615,-8.0185,-7.9366,-7.8468,-7.7921,-7.7453,-7.7531,-7.7726,-7.7765,-7.7609,-7.7609,-7.7648,-7.7693,-7.7551,-7.76,-7.7647,-7.7809,-7.7656,-7.7656,-7.8242,-7.832,-7.7851,-7.7851,-7.7969,-7.8203,-7.8476,-7.8711,-7.8984,-7.9453,-8.0273,-8.0898,-8.1172,-8.1328,-8.1797,-8.2265,-8.1758,-8.1211,-8.0742,-8.0117,-8.0078,-8.0039,-8.0469,-8.1211,-8.1679,-8.2109,-8.2265,-8.1875,-8.1562,-8.1211,-8.0781,-7.957,-7.8398,-7.8281,-7.8945,-7.914,-7.9648,-8.0273,-8.0859,-8.1289,-8.1836,-8.2539,-8.3008,-8.3008,-8.2929,-8.3008,-8.2695,-8.2344,-8.2304,-8.2304,-8.2304,-8.2304,-8.2304,-8.1892,-8.1892,-8.1892,-8.1873,-8.1834,-8.1834,-8.1804,-8.1734,-8.1734,-8.1755,-8.1834,-8.1854,-8.1881,-8.1999,-8.1999,-8.1803,-8.1273,-8.124,-8.113,-8.1052,-8.1364,-8.1675,-8.1909,-8.2104,-8.2104,-8.2122,-8.2145,-8.2133,-8.2162,-8.2183,-8.2237,-8.2287,-8.229,-8.229,-8.229,-8.1978,-8.19,-8.1864,-8.1903,-8.1903,-8.1942,-8.1669,-8.1044,-8.0732,-8.0459,-7.96,-7.8975,-7.9014,-7.9131,-7.9209,-7.9053,-7.9014,-7.878,-7.8468,-7.8468,-7.8551,-7.841,-7.846,-7.8584,-7.8786,-7.8672,-7.832,-7.8828,-7.8984,-7.8789,-7.8867,-7.9023,-7.914,-7.9414,-7.957,-7.9883,-8.039,-8.1094,-8.1601,-8.1953,-8.1953,-8.2187,-8.2383,-8.2265,-8.207,-8.1953,-8.1719,-8.1836,-8.1836,-8.1914,-8.2461,-8.2695,-8.3125,-8.3789,-8.3633,-8.3437,-8.3203,-8.2812,-8.2304,-8.1484,-8.0234,-8.039,-8.0508,-8.0625,-8.1094,-8.1523,-8.1953,-8.25,-8.2734,-8.3008,-8.3086,-8.3047,-8.2812,-8.2734,-8.2461,-8.2344,-8.2304,-8.2304,-8.2344,-8.2383]},{"header":{"parameterUnit":"m.s-1","parameterCategory":1,"la1":31.0,"la2":29.5877,"lo1":-88.7671,"lo2":-86.6584,"dy":0.0162,"dx":0.0185,"nx":115,"ny":88,"refTime":"2024-04-01T18:00:00:Z","depth":0,"parameterNumber":3,"parameterNumberName":"V-component_of_WINDS"},"data":[0.0,0.0,0.0,0.0,0.0,0.0,0.0,0.0,0.0,0.0,0.0,0.0,0.0,0.0,0.0,0.0,0.0,0.0,0.0,0.0,0.0,0.0,0.0,0.0,0.0,0.0,0.0,0.0,0.0,0.0,0.0,0.0,0.0,0.0,0.0,0.0,0.0,0.0,0.0,0.0,0.0,0.0,0.0,0.0,0.0,0.0,0.0,0.0,0.0,0.0,0.0,0.0,0.0,0.0,0.0,0.0,0.0,0.0,0.0,0.0,0.0,0.0,0.0,0.0,0.0,0.0,0.0,0.0,0.0,0.0,0.0,0.0,0.0,0.0,0.0,0.0,0.0,0.0,0.0,0.0,0.0,0.0,0.0,0.0,0.0,0.0,0.0,0.0,0.0,0.0,0.0,0.0,0.0,0.0,0.0,0.0,0.0,0.0,0.0,0.0,0.0,0.0,0.0,0.0,0.0,0.0,0.0,0.0,0.0,0.0,0.0,0.0,0.0,0.0,0.0,0.0,0.0,0.0,0.0,0.0,0.0,0.0,0.0,0.0,0.0,0.0,0.0,0.0,0.0,0.0,0.0,0.0,0.0,0.0,0.0,0.0,0.0,0.0,0.0,0.0,0.0,0.0,0.0,0.0,0.0,0.0,0.0,0.0,0.0,0.0,0.0,0.0,0.0,0.0,0.0,0.0,0.0,0.0,0.0,0.0,0.0,0.0,0.0,0.0,0.0,0.0,0.0,0.0,0.0,0.0,0.0,0.0,0.0,0.0,0.0,0.0,0.0,0.0,0.0,0.0,0.0,0.0,0.0,0.0,0.0,0.0,0.0,0.0,0.0,0.0,0.0,0.0,0.0,0.0,0.0,0.0,0.0,0.0,0.0,0.0,0.0,0.0,0.0,0.0,0.0,0.0,0.0,0.0,0.0,0.0,0.0,0.0,0.0,0.0,0.0,0.0,0.0,0.0,0.0,0.0,0.0,0.0,0.0,0.0,0.0,0.0,0.0,0.0,0.0,0.0,0.0,0.0,0.0,0.0,0.0,0.0,0.0,0.0,0.0,0.0,0.0,0.0,0.0,0.0,0.0,0.0,0.0,0.0,0.0,0.0,0.0,0.0,0.0,0.0,0.0,0.0,0.0,0.0,0.0,0.0,0.0,0.0,0.0,0.0,0.0,0.0,0.0,0.0,0.0,0.0,0.0,0.0,0.0,0.0,0.0,0.0,0.0,0.0,0.0,0.0,0.0,0.0,0.0,0.0,0.0,0.0,0.0,0.0,0.0,0.0,0.0,0.0,0.0,0.0,0.0,0.0,0.0,0.0,0.0,0.0,0.0,0.0,0.0,0.0,0.0,0.0,0.0,0.0,0.0,0.0,0.0,0.0,0.0,0.0,0.0,0.0,0.0,0.0,0.0,0.0,0.0,0.0,0.0,0.0,0.0,0.0,0.0,0.0,0.0,0.0,0.0,0.0,0.0,0.0,0.0,0.0,0.0,0.0,0.0,0.0,0.0,0.0,0.0,0.0,0.0,0.0,0.0,0.0,0.0,0.0,0.0,0.0,0.0,0.0,0.0,0.0,0.0,0.0,0.0,0.0,0.0,0.0,0.0,0.0,0.0,0.0,0.0,0.0,0.0,0.0,0.0,0.0,0.0,0.0,0.0,0.0,0.0,0.0,0.0,0.0,0.0,0.0,0.0,0.0,0.0,0.0,0.0,0.0,0.0,0.0,0.0,0.0,0.0,0.0,0.0,0.0,0.0,0.0,0.0,0.0,0.0,0.0,0.0,0.0,0.0,0.0,0.0,0.0,0.0,0.0,0.0,0.0,0.0,0.0,0.0,0.0,0.0,0.0,0.0,0.0,0.0,0.0,0.0,0.0,0.0,0.0,0.0,0.0,0.0,0.0,0.0,0.0,0.0,0.0,0.0,0.0,0.0,0.0,0.0,0.0,0.0,0.0,0.0,0.0,0.0,0.0,0.0,0.0,0.0,0.0,0.0,0.0,0.0,0.0,0.0,0.0,0.0,0.0,0.0,0.0,0.0,0.0,0.0,0.0,0.0,0.0,0.0,0.0,0.0,0.0,0.0,0.0,0.0,0.0,0.0,0.0,0.0,0.0,0.0,0.0,0.0,0.0,0.0,0.0,0.0,0.0,0.0,0.0,0.0,0.0,0.0,0.0,0.0,0.0,0.0,0.0,0.0,0.0,0.0,0.0,0.0,0.0,0.0,0.0,0.0,0.0,0.0,0.0,0.0,0.0,0.0,0.0,0.0,0.0,0.0,0.0,0.0,0.0,0.0,0.0,0.0,0.0,0.0,0.0,0.0,0.0,0.0,0.0,0.0,0.0,0.0,0.0,0.0,0.0,0.0,0.0,0.0,0.0,0.0,0.0,0.0,0.0,0.0,0.0,0.0,0.0,0.0,0.0,0.0,0.0,0.0,0.0,0.0,0.0,0.0,0.0,0.0,0.0,0.0,0.0,0.0,0.0,0.0,0.0,0.0,0.0,0.0,0.0,0.0,0.0,0.0,0.0,0.0,0.0,0.0,0.0,0.0,0.0,0.0,0.0,0.0,0.0,0.0,0.0,0.0,0.0,0.0,0.0,0.0,0.0,0.0,0.0,0.0,0.0,0.0,0.0,0.0,0.0,0.0,0.0,0.0,0.0,0.0,0.0,0.0,0.0,0.0,0.0,0.0,0.0,0.0,0.0,0.0,0.0,0.0,0.0,0.0,0.0,0.0,0.0,0.0,0.0,0.0,0.0,0.0,0.0,0.0,0.0,0.0,0.0,0.0,0.0,0.0,0.0,0.0,0.0,0.0,0.0,0.0,0.0,0.0,0.0,0.0,0.0,0.0,0.0,0.0,0.0,0.0,0.0,0.0,0.0,0.0,0.0,0.0,0.0,0.0,0.0,0.0,0.0,0.0,0.0,0.0,0.0,0.0,0.0,0.0,0.0,0.0,0.0,0.0,0.0,0.0,0.0,0.0,0.0,0.0,0.0,0.0,0.0,0.0,0.0,0.0,0.0,0.0,0.0,0.0,0.0,0.0,0.0,0.0,0.0,0.0,0.0,0.0,0.0,0.0,0.0,0.0,0.0,0.0,0.0,0.0,0.0,0.0,0.0,0.0,0.0,0.0,0.0,0.0,0.0,0.0,0.0,0.0,0.0,0.0,0.0,0.0,0.0,0.0,0.0,0.0,0.0,0.0,0.0,0.0,0.0,0.0,0.0,0.0,0.0,0.0,0.0,0.0,0.0,0.0,0.0,0.0,0.0,0.0,0.0,0.0,0.0,0.0,0.0,0.0,0.0,0.0,0.0,0.0,0.0,0.0,0.0,0.0,0.0,0.0,0.0,0.0,0.0,0.0,0.0,0.0,0.0,0.0,0.0,0.0,0.0,0.0,0.0,0.0,0.0,0.0,0.0,0.0,0.0,0.0,0.0,0.0,0.0,0.0,0.0,0.0,0.0,0.0,0.0,0.0,0.0,0.0,0.0,0.0,0.0,0.0,0.0,0.0,0.0,0.0,0.0,0.0,0.0,0.0,0.0,0.0,0.0,0.0,0.0,0.0,0.0,0.0,0.0,0.0,0.0,0.0,0.0,0.0,0.0,0.0,0.0,0.0,0.0,0.0,0.0,0.0,0.0,0.0,0.0,0.0,0.0,0.0,0.0,0.0,0.0,0.0,0.0,0.0,0.0,0.0,0.0,0.0,0.0,0.0,0.0,0.0,0.0,0.0,0.0,0.0,0.0,0.0,0.0,0.0,0.0,0.0,0.0,0.0,0.0,0.0,0.0,0.0,0.0,0.0,0.0,0.0,0.0,0.0,0.0,0.0,0.0,0.0,0.0,0.0,0.0,0.0,0.0,0.0,0.0,0.0,0.0,0.0,0.0,0.0,0.0,0.0,0.0,0.0,0.0,0.0,0.0,0.0,0.0,0.0,0.0,0.0,0.0,0.0,0.0,0.0,0.0,0.0,0.0,0.0,0.0,0.0,0.0,0.0,0.0,0.0,0.0,0.0,0.0,0.0,0.0,0.0,0.0,0.0,0.0,0.0,0.0,0.0,0.0,0.0,0.0,0.0,0.0,0.0,0.0,0.0,0.0,0.0,0.0,0.0,0.0,0.0,0.0,0.0,0.0,0.0,0.0,0.0,0.0,0.0,0.0,0.0,0.0,0.0,0.0,0.0,0.0,0.0,0.0,0.0,0.0,0.0,0.0,0.0,0.0,0.0,0.0,0.0,0.0,0.0,0.0,0.0,0.0,0.0,0.0,0.0,0.0,0.0,0.0,0.0,0.0,0.0,0.0,0.0,0.0,0.0,0.0,0.0,0.0,0.0,0.0,0.0,0.0,0.0,0.0,0.0,0.0,0.0,0.0,0.0,0.0,0.0,0.0,0.0,0.0,0.0,0.0,0.0,0.0,0.0,0.0,0.0,0.0,0.0,0.0,0.0,0.0,0.0,0.0,0.0,0.0,0.0,0.0,0.0,0.0,0.0,0.0,0.0,0.0,0.0,0.0,0.0,0.0,0.0,0.0,0.0,0.0,0.0,0.0,0.0,0.0,0.0,0.0,0.0,0.0,0.0,0.0,0.0,0.0,0.0,0.0,0.0,0.0,0.0,0.0,0.0,0.0,0.0,0.0,0.0,0.0,0.0,0.0,0.0,0.0,0.0,0.0,0.0,0.0,0.0,0.0,0.0,0.0,0.0,0.0,0.0,0.0,0.0,0.0,0.0,0.0,0.0,0.0,0.0,0.0,0.0,0.0,0.0,0.0,0.0,0.0,0.0,0.0,0.0,0.0,0.0,0.0,0.0,0.0,0.0,0.0,0.0,0.0,0.0,0.0,0.0,0.0,0.0,0.0,0.0,0.0,0.0,0.0,0.0,0.0,0.0,0.0,0.0,0.0,0.0,0.0,0.0,0.0,0.0,0.0,0.0,0.0,0.0,0.0,0.0,0.0,0.0,0.0,0.0,0.0,0.0,0.0,0.0,0.0,0.0,0.0,0.0,0.0,0.0,0.0,0.0,0.0,0.0,0.0,0.0,0.0,0.0,0.0,0.0,0.0,0.0,0.0,0.0,0.0,0.0,0.0,0.0,0.0,0.0,0.0,0.0,0.0,0.0,0.0,0.0,0.0,0.0,0.0,0.0,0.0,0.0,0.0,0.0,0.0,0.0,0.0,0.0,0.0,0.0,0.0,0.0,0.0,0.0,0.0,0.0,0.0,0.0,0.0,0.0,0.0,0.0,0.0,0.0,0.0,0.0,0.0,0.0,0.0,0.0,0.005,0.01,0.0,0.0,0.0,0.0,0.0,0.0,0.0,0.0,0.0,0.0,0.0,0.0,0.0,0.0,0.0,0.0,0.0,0.0,0.0,0.0,0.0,0.0,0.0,0.0,0.0,0.0,0.0,0.0,0.0,0.0,0.0,0.0,0.0,0.0,0.0,0.0,0.0,0.0,0.0,0.0,0.0,0.0,0.0,0.0,0.0,0.0,0.0,0.0,0.0,0.0,0.0,0.0,0.0,0.0,0.0,0.0,0.0,0.0,0.0,0.0,0.0,0.0,0.0,0.0,0.0,0.0,0.0,0.0,0.0,0.0,0.0,0.0,0.0,0.0,0.0,0.0,0.0,0.0,0.0,0.0,0.0,0.0,0.0,0.0,0.0,0.0,0.0,0.0,0.0,0.0,0.0,0.0,0.0,0.0,0.0,0.0,0.0,0.0,0.0,0.0,0.0,0.0,0.0,0.0,0.0,0.0,0.0,0.0,0.0,0.0,0.0,0.0,0.0,0.0,0.0345,0.0,0.0,0.0,0.0,0.0,0.0,0.0,0.0,0.0,0.0,0.0,0.0,0.0,0.0,0.0,0.0,0.0,0.0,0.0,0.0,0.0,0.0,0.0,0.0,0.0,0.0,0.0,0.0,0.0,0.0,0.0,0.0,0.0,0.0,0.0,0.0,0.0,0.0,0.0,0.0,0.0,0.0,0.0,0.0,0.0,0.0,0.0,0.0,0.0,0.0,0.0,0.0,0.0,0.0,0.0,0.0,0.0,0.0,0.0,0.0,0.0,0.0,0.0,0.0,0.0,0.0,0.0,0.0,0.0,0.0,0.0,0.0,0.0,0.0,0.0,0.0,0.0,0.0,0.0,0.0,0.0,0.0,0.0,0.0,0.0,0.0,0.0,0.0,0.0,0.0,0.0,0.0,0.0,0.0,0.0,0.0,0.0,0.0,0.0,0.0,0.0,0.0,0.0,0.0,0.0,0.0,0.0,0.0,0.0,0.0,0.0,0.0,0.0151,0.0296,0.0,0.0,0.0,0.0,0.0,0.0,0.0,0.0,0.0,0.0,0.0,0.0,0.0,0.0,0.0,0.0,0.0,0.0,0.0,0.0,0.0,0.0,0.0,0.0,0.0,0.0,0.0,0.0,0.0,0.0,0.0,0.0,0.0,0.0,0.0,0.0,0.0,0.0,0.0,0.0,0.0,0.0,0.0,0.0,0.0,0.0,0.0,0.0,0.0,0.0,0.0,0.0,0.0,0.0,0.0,0.0,0.0,0.0,0.0,0.0,0.0,0.0,0.0,0.0,0.0,0.0,0.0,0.0,0.0,0.0,0.0,0.0,0.0,0.0,0.0,0.0,0.0,0.0,0.0,0.0,0.0,0.0,0.0,0.0,0.0,0.0,0.0,0.0,0.0,0.0,0.0,0.0,0.0,0.0,0.0,0.0,0.0,0.0,0.0,0.0,0.0,0.0,0.0,0.0,0.0,0.0,0.0,0.0,0.0,0.0,0.0,0.0,0.0,0.025,0.0443,0.0521,0.0,0.0,0.0,0.0,0.0,0.0,0.0,0.0,0.0,0.0,0.0,0.0,0.0,0.0,0.0,0.0,0.0,0.0,0.0,0.0,0.0,0.0,0.0,0.0,0.0,0.0,0.0,0.0,0.0,0.0,0.0,0.0,0.0,0.0,0.0,0.0,0.0,0.0,0.0,0.0,0.0,0.0,0.0,0.0,0.0,0.0,0.0,0.0,0.0,0.0,0.0,0.0,0.0,0.0,0.0,0.0,0.0,0.0,0.0,0.0,0.0,0.0,0.0,0.0,0.0,0.0,0.0,0.0,0.0,0.0,0.0,0.0,0.0,0.0,0.0,0.0,0.0,0.0,0.0,0.0,0.0,0.0,0.0,0.0,0.0,0.0,0.0,0.0,0.0,0.0,0.0,0.0,0.0,0.0,0.0,0.0,0.0,0.0,0.0,0.0,0.0,0.0,0.0,0.0,0.0,0.0,0.0,0.0,0.0,0.0,0.0,0.0,0.0292,0.0531,0.0,0.0,0.0,0.0,0.0,0.0,0.0,0.0,0.0,0.0,0.0,0.0,0.0,0.0,0.0,0.0,0.0,0.0,0.0,0.0,0.0,0.0,0.0,0.0,0.0,0.0,0.0,0.0,0.0,0.0,0.0,0.0,0.0,0.0,0.0,0.0,0.0,0.0,0.0,0.0,0.0,0.0,0.0,0.0,0.0,0.0,0.0,0.0,0.0,0.0,0.0,0.0,0.0,0.0,0.0,0.0,0.0,0.0,0.0,0.0,0.0,0.0,0.0,0.0,0.0,0.0,0.0,0.0,0.0,0.0,0.0,0.0,0.0,0.0,0.0,0.0,0.0,0.0,0.0,0.0,0.0,0.0,0.0,0.0,0.0,0.0,0.0,0.0,0.0,0.0,0.0,0.0,0.0,0.0,0.0,0.0,0.0,0.0,0.0,0.0,0.0,0.0,0.0,0.0,0.0,0.0,0.0,0.0,0.0,0.0,0.0,0.0098,0.0239,0.0534,0.0771,0.0,0.0,0.0,0.0,0.0,0.0,0.0,0.0,0.0,0.0,0.0,0.0,0.0,0.0,0.0,0.0,0.0,0.0,0.0,0.0,0.0,0.0,0.0,0.0,0.0,0.0,0.0,0.0,0.0,0.0,0.0,0.0,0.0,0.0,0.0,0.0,0.0,0.0,0.0,0.0,0.0,0.0,0.0,0.0,0.0,0.0,0.0,0.0,0.0,0.0,0.0,0.0,0.0,0.0,0.0,0.0,0.0,0.0,0.0,0.0,0.0,0.0,0.0,0.0,0.0,0.0,0.0,0.0,0.0,0.0,0.0,0.0,0.0,0.0,0.0,0.0,0.0,0.0,0.0,0.0,0.0,0.0,0.0,0.0,0.0,0.0,0.0,0.0,0.0,0.0,0.0,0.0,0.0,0.0,0.0,0.0,0.0,0.0,0.0,0.0,0.0,0.0,0.0,0.0,0.0,0.0,0.0,0.0,0.0,0.0,0.0,0.0145,0.0378,0.0674,0.0907,0.0,0.0,0.0,0.0,0.0,0.0,0.0,0.0,0.0,0.0,0.0,0.0,0.0,0.0,0.0,0.0,0.0,0.0,0.0,0.0,0.0,0.0,0.0,0.0,0.0,0.0,0.0,0.0,0.0,0.0,0.0,0.0,0.0,0.0,0.0,0.0,0.0,0.0,0.0,0.0,0.0,0.0,0.0,0.0,0.0,0.0,0.0,0.0,0.0,0.0,0.0,0.0,0.0,0.0,0.0,0.0,0.0,0.0,0.0,0.0,0.0,0.0,0.0,0.0,0.0,0.0,0.0,0.0,0.0,0.0,0.0,0.0,0.0,0.0,0.0,0.0,0.0,0.0,0.0,0.0,0.0,0.0,0.0,0.0,0.0,0.0,0.0,0.0,0.0,0.0,0.0,0.0,0.0,0.0,0.0,0.0,0.0,0.0,0.0,0.0,0.0,0.0,0.0,0.0,0.0,0.0,0.0,0.0,0.0,0.0,0.0,0.0142,0.0371,0.0663,0.089,0.0,0.0,0.0,0.0,0.0,0.0,0.0,0.0,0.0,0.0,0.0,0.0,0.0,0.0,0.0,0.0,0.0,0.0,0.0,0.0,0.0,0.0,0.0,0.0,0.0,0.0,0.0,0.0,0.0,0.0,0.0,0.0,0.0,0.0,0.0,0.0,0.0,0.0,0.0,0.0,0.0,0.0,0.0,0.0,0.0,0.0,0.0,0.0,0.0,0.0,0.0,0.0,0.0,0.0,0.0,0.0,0.0,0.0,0.0,0.0,0.0,0.0,0.0,0.0,0.0,0.0,0.0,0.0,0.0,0.0,0.0,0.0,0.0,0.0,0.0,0.0,0.0,0.0,0.0,0.0,0.0,0.0,0.0,0.0,0.0,0.0,0.0,0.0,0.0,0.0,0.0,0.0,0.0,0.0,0.0,0.0,0.0,0.0,0.0,0.0,0.0,0.0,0.0,0.0,0.0,0.0,0.0,0.0,0.0,0.0,0.02,0.0398,0.0651,0.0934,0.1201,0.0,0.0,0.0,0.0,0.0,0.0,0.0,0.0,0.0,0.0,0.0,0.0,0.0,0.0,0.0,0.0,0.0,0.0,0.0,0.0,0.0,0.0,0.0,0.0,0.0,0.0,0.0,0.0,0.0,0.0,0.0,0.0,0.0,0.0,0.0,0.0,0.0,0.0,0.0,0.0,0.0,0.0,0.0,0.0,0.0,0.0,0.0,0.0,0.0,0.0,0.0,0.0,0.0,0.0,0.0,0.0,0.0,0.0,0.0,0.0,0.0,0.0,0.0,0.0,0.0,0.0,0.0,0.0,0.0,0.0,0.0,0.0,0.0,0.0,0.0,0.0,0.0,0.0,0.0,0.0,0.0,0.0,0.0,0.0,0.0,0.0,0.0,0.0,0.0,0.0,0.0,0.0,0.0,0.0,0.0,0.0,0.0,0.0,0.0,0.0,0.0,0.0,0.0,0.0,0.0,0.0,0.0,0.0,0.0,0.0377,0.0419,0.0569,0.0987,0.116,0.1332,0.1512,0.0,0.0,0.0,0.0,0.0,0.0,0.0,0.0,0.0,0.0,0.0,0.0,0.0,0.0,0.0,0.0,0.0,0.0,0.0,0.0,0.0,0.0,0.0,0.0,0.0,0.0,0.0,0.0,0.0,0.0,0.0,0.0,0.0,0.0,0.0,0.0,0.0,0.0,0.0,0.0,0.0,0.0,0.0,0.0,0.0,0.0,0.0,0.0,0.0,0.0,0.0,0.0,0.0,0.0,0.0,0.0,0.0,0.0,0.0,0.0,0.0,0.0,0.0,0.0,0.0,0.0,0.0,0.0,0.0,0.0,0.0,0.0,0.0,0.0,0.0,0.0,0.0,0.0,0.0,0.0,0.0,0.0,0.0,0.0,0.0,0.0,0.0,0.0,0.0,0.0,0.0,0.0,0.0,0.0,0.0,0.0,0.0,0.0,0.0,0.0,0.0,0.0,0.0,0.0,0.0,0.0,0.0,0.0,0.1035,0.0663,0.075,0.1263,0.1339,0.1422,0.0,0.0,0.0,0.0,0.0,0.0,0.0,0.0,0.0,0.0,0.0,0.0,0.0,0.0,0.0,0.0,0.0,0.0,0.0,0.0,0.0,0.0,0.0,0.0,0.0,0.0,0.0,0.0,0.0,0.0,0.0,0.0,0.0,0.0,0.0,0.0,0.0,0.0,0.0,0.0,0.0,0.0,0.0,0.0,0.0,0.0,0.0,0.0,0.0,0.0,0.0,0.0,0.0,0.0,0.0,0.0,0.0,0.0,0.0,0.0,0.0,0.0,0.0,0.0,0.0,0.0,0.0,0.0,0.0,0.0,0.0,0.0,0.0,0.0,0.0,0.0,0.0,0.0,0.0,0.0,0.0,0.0,0.0,0.0,0.0,0.0,0.0,0.0,0.0,0.0,0.0,0.0,0.0,0.0,0.0,0.0,0.0,0.0,0.0,0.0,0.0,0.0,0.0,0.0,0.0,0.0,0.0,0.0,0.0,0.1345,0.1573,0.1642,0.1479,0.1575,0.1683,0.0,0.0,0.0,0.0,0.0,0.0,0.0,0.0,0.0,0.0,0.0,0.0,0.0,0.0,0.0,0.0,0.0,0.0,0.0,0.0,0.0,0.0,0.0,0.0,0.0,0.0,0.0,0.0,0.0,0.0,0.0,0.0,0.0,0.0,0.0,0.0,0.0,0.0,0.0,0.0,0.0,0.0,0.0,0.0,0.0,0.0,0.0,0.0,0.0,0.0,0.0,0.0,0.0,0.0,0.0,0.0,0.0,0.0,0.0,0.0,0.0,0.0,0.0,0.0,0.0,0.0,0.0,0.0,0.0,0.0,0.0,0.0,0.0,0.0,0.0,0.0,0.0,0.0,0.0,0.0,0.0,0.0,0.0,0.0,0.0,0.0,0.0,0.0,0.0,0.0,0.0,0.0,0.0,0.0,0.0,0.0,0.0,0.0,0.0,0.0,0.0,0.0,0.0,0.0,0.0,0.0,0.0,0.0,0.1435,0.1774,0.2155,0.2259,0.2005,0.2048,0.206,0.0,0.0,0.0,0.0,0.0,0.0,0.0,0.0,0.0,0.0,0.0,0.0,0.0,0.0,0.0,0.0,0.0,0.0,0.0,0.0,0.0,0.0,0.0,0.0,0.0,0.0,0.0,0.0,0.0,0.0,0.0,0.0,0.0,0.0,0.0,0.0,0.0,0.0,0.0,0.0,0.0,0.0,0.0,0.0,0.0,0.0,0.0,0.0,0.0,0.0,0.0,0.0,0.0,0.0,0.0,0.0,0.0,0.0,0.0,0.0,0.0,0.0,0.0,0.0,0.0,0.0,0.0,0.0,0.0,0.0,0.0,0.0,0.0,0.0,0.0,0.0,0.0,0.0,0.0,0.0,0.0,0.0,0.0,0.0,0.0,0.0,0.0,0.0,0.0,0.0,0.0,0.0,0.0,0.0,0.0,0.0,0.0,0.0,0.0,0.0,0.0,0.0,0.0,0.0,0.0,0.0,0.0,0.0,0.1923,0.2123,0.2462,0.2717,0.275,0.2607,0.2512,0.0,0.0,0.0,0.0,0.0,0.0,0.0,0.0,0.0,0.0,0.0,0.0,0.0,0.0,0.0,0.0,0.0,0.0,0.0,0.0,0.0,0.0,0.0,0.0,0.0,0.0,0.0,0.0,0.0,0.0,0.0,0.0,0.0,0.0,0.0,0.0,0.0,0.0,0.0,0.0,0.0,0.0,0.0,0.0,0.0,0.0,0.0,0.0,0.0,0.0,0.0,0.0,0.0,0.0,0.0,0.0,0.0,0.0,0.0,0.0,0.0,0.0,0.0,0.0,0.0,0.0,0.0,0.0,0.0,0.0,0.0,0.0,0.0,0.0,0.0,0.0,0.0,0.0,0.0,0.0,0.0,0.0,0.0,0.0,0.0,0.0,0.0,0.0,0.0,0.0,0.0,0.0,0.0,0.0,0.0,0.0,0.0,0.0,0.0,0.0,0.0,0.0,0.0,0.0,0.0,0.0,0.0,0.0,0.1948,0.2126,0.2798,0.3164,0.326,0.3045,0.2808,0.0,0.0,0.0,0.0,0.0,0.0,0.0,0.0,0.0,0.0,0.0,0.0,0.0,0.0,0.0,0.0,0.0,0.0,0.0,0.0,0.0,0.0,0.0,0.0,0.0,0.0,0.0,0.0,0.0,0.0,0.0,0.0,0.0,0.0,0.0,0.0,0.0,0.0,0.0,0.0,0.0,0.0,0.0,0.0,0.0,0.0,0.0,0.0,0.103,0.0,0.0,0.0,0.0,0.0,0.0,0.0,0.0,0.0,0.0,0.0,0.0,0.0,0.0,0.0,0.0,0.0,0.0,0.0,0.0,0.0,0.0,0.0,0.0,0.0,0.0,0.0,0.0,0.0,0.0,0.0,0.0,0.0,0.0,0.0,0.0,0.0,0.0,0.0,0.0,0.0,0.0,0.0,0.0,0.0,0.0,0.0,0.0,0.0,0.0,0.0,0.0,0.0,0.0,0.0,0.0,0.0,0.0,0.0,0.1988,0.2169,0.291,0.333,0.339,0.3559,0.3383,0.0,0.0,0.0,0.0,0.0,0.0,0.0,0.0,0.0,0.0,0.0,0.0,0.0,0.0,0.0,0.0,0.0,0.0,0.0,0.0,0.0,0.0,0.0,0.0,0.0,0.0,0.0,0.0,0.0,0.0,0.0,0.0,0.0,0.0,0.0,0.0,0.0,0.0,0.0,0.0,0.0,0.0,0.0,0.0,0.0,0.0,0.0,0.0,0.0,0.0,0.0,0.0,0.0,0.0,0.0,0.0,0.0,0.0,0.0,0.0,0.0,0.0,0.0,0.0,0.0,0.0,0.0,0.0,0.0,0.0,0.0,0.0,0.0,0.0,0.0,0.0,0.0,0.0,0.0,0.0,0.0,0.0,0.0,0.0,0.0,0.0,0.0,0.0,0.0,0.0,0.0,0.0,0.0,0.0,0.0,0.0,0.0,0.0,0.0,0.0,0.0,0.0,0.0,0.0,0.0,0.0,0.0,0.188,0.2012,0.2202,0.2927,0.3318,0.3431,0.3897,0.3865,0.3211,0.0,0.0,0.0,0.0,0.0,0.0,0.0,0.0,0.0,0.0,0.0,0.0,0.0,0.0,0.0,0.0,0.0,0.0,0.0,0.0,0.0,0.0,0.0,0.0,0.0,0.0,0.0,0.0,0.0,0.0,0.0,0.0,0.0,0.0,0.0,0.0,0.0,0.0,0.1358,0.125,0.0,0.0,0.0,0.0,0.0,0.0,0.0,0.0,0.037,0.0,0.0,0.0,0.0,0.0,0.0,0.0,0.0,0.0,0.0,0.0,0.0,0.0,0.0,0.0,0.0,0.0,0.0,0.0,0.0,0.0,0.0,0.0,0.0,0.0,0.0,0.0,0.0,0.0,0.0,0.0,0.0,0.0,0.0,0.0,0.0,0.0,0.0,0.0,0.0,0.0,0.0,0.0,0.0,0.0,0.0,0.0,0.0,0.0,0.0,0.0,0.0,0.0,0.0,0.0,0.0,0.1712,0.1929,0.2054,0.2144,0.2898,0.3318,0.3429,0.3863,0.3888,0.3455,0.0,0.0,0.0,0.0,0.0,0.0,0.0,0.0,0.0,0.0,0.0,0.0,0.0,0.0,0.0,0.0,0.0,0.0,0.0,0.0,0.0,0.0,0.0,0.0,0.0,0.0,0.0,0.0,0.0,0.0,0.0,0.0,0.0,0.0,0.0,0.0,0.0,0.0,0.0,0.1201,0.1093,0.0,0.0,0.0,0.0,0.0,0.0,0.0,0.0,0.0264,0.0,0.0,0.0,0.0,0.0,0.0,0.0,0.0,0.0,0.0,0.0,0.0,0.0,0.0,0.0,0.0,0.0,0.0,0.0,0.0,0.0,0.0,0.0,0.0,0.0,0.0,0.0,0.0,0.0,0.0,0.0,0.0,0.0,0.0,0.0,0.0,0.0,0.0,0.0,0.0,0.0,0.0,0.0,0.0,0.0,0.0,0.0,0.0,0.0,0.0,0.0,0.0,0.0,0.0,0.0,0.1759,0.1958,0.2135,0.2154,0.2903,0.3306,0.3393,0.3811,0.3849,0.0,0.0,0.0,0.0,0.0,0.0,0.0,0.0,0.0,0.0,0.0,0.0,0.0,0.0,0.0,0.0,0.0,0.0,0.0,0.0,0.0,0.0,0.0,0.0,0.0,0.0,0.0,0.0,0.0,0.0,0.0,0.0,0.0,0.0,0.0,0.0,0.0,0.0,0.0,0.0,0.097,0.0893,0.0612,0.0,0.0,0.0,0.0,0.0,0.0,0.0327,0.0434,0.0,0.0,0.0,0.0,0.0,0.0,0.0,0.0,0.0,0.0,0.0,0.0,0.0,0.0,0.0,0.0,0.0,0.0,0.0,0.0,0.0,0.0,0.0,0.0,0.0,0.0,0.0,0.0,0.0,0.0,0.0,0.0,0.0,0.0,0.0,0.0,0.0,0.0,0.0,0.0,0.0,0.0,0.0,0.0,0.0,0.0,0.0,0.0,0.0,0.0,0.0,0.0,0.0,0.0,0.0,0.1797,0.1973,0.214,0.2232,0.2909,0.3356,0.3403,0.3759,0.3867,0.0,0.0,0.0,0.0,0.0,0.0,0.0,0.0,0.0,0.0,0.0,0.0,0.0,0.0,0.0,0.0,0.0,0.0,0.0,0.0,0.0,0.0,0.0,0.0,0.0,0.0,0.0,0.0,0.0,0.0,0.0,0.0,0.0,0.0,0.0,0.0,0.0,0.0,0.0,0.0,0.0,0.0694,0.0351,0.035,0.0,0.0,0.0,0.0,0.0601,0.0553,0.0,0.0,0.0,0.0,0.0,0.0,0.0,0.0,0.0,0.0,0.0,0.0,0.0,0.0,0.0,0.0,0.0,0.0,0.0,0.0,0.0,0.0,0.0,0.0,0.0,0.0,0.0,0.0,0.0,0.0,0.0,0.0,0.0,0.0,0.0,0.0,0.0,0.0,0.0,0.0,0.0,0.0,0.0,0.0,0.0,0.0,0.0,0.0,0.0,0.0,0.0,0.0,0.0,0.0,0.0,0.0,0.1798,0.2034,0.2259,0.2527,0.3028,0.3394,0.3642,0.3912,0.3932,0.0,0.0,0.0,0.0,0.0,0.0,0.0,0.0,0.0,0.0,0.0,0.0,0.0,0.0,0.0,0.0,0.0,0.0,0.0,0.0,0.0,0.0,0.0,0.0,0.0,0.0,0.0,0.0,0.0,0.0,0.0,0.0,0.0,0.0,0.0,0.0,0.0,0.0,0.0,0.0,0.0,0.0615,0.0108,0.0267,0.0374,0.0,0.0,0.086,0.0873,0.0821,0.0,0.0,0.0,0.0,0.0,0.0,0.0,0.0,0.0,0.0,0.0,0.0,0.0,0.0,0.0,0.0,0.0,0.0,0.0,0.0,0.0,0.0,0.0,0.0,0.0,0.0,0.0,0.0,0.0,0.0,0.0,0.0,0.0,0.0,0.0,0.0,0.0,0.0,0.0,0.0,0.0,0.0,0.0,0.0,0.0,0.0,0.0,0.0,0.0,0.0,0.0,0.0,0.0,0.0,0.0,0.1722,0.1797,0.1955,0.2238,0.2583,0.3026,0.3456,0.3692,0.3906,0.3924,0.0,0.0,0.0,0.0,0.0,0.0,0.0,0.0,0.0,0.0,0.0,0.0,0.0,0.0,0.0,0.0,0.0,0.0,0.0,0.0,0.0,0.0,0.0,0.0,0.0,0.0,0.0,0.0,0.0,0.0,0.0,0.0,0.0,0.0,0.0,0.0,0.0,0.0,0.0,0.0,0.0,0.0,0.0054,0.0107,0.0,0.0,0.0,0.0784,0.1195,0.0,0.0,0.0,0.0,0.0,0.0,0.0,0.0,0.0,0.0,0.0,0.0,0.0,0.0,0.0,0.0,0.0,0.0,0.0,0.0,0.0,0.0,0.0,0.0,0.0,0.0,0.0,0.0,0.0,0.0,0.0,0.0,0.0,0.0,0.0,0.0,0.0,0.0,0.0,0.0,0.0,0.0,0.0,0.0,0.0,0.0,0.0,0.0,0.0,0.0,0.0,0.0,0.0,0.0,0.0,0.0,0.0,0.1795,0.1936,0.2216,0.271,0.3072,0.3427,0.3801,0.3936,0.0,0.0,0.0,0.0,0.0,0.0,0.0,0.0,0.0,0.0,0.0,0.0,0.0,0.0,0.0,0.0,0.0,0.0,0.0,0.0,0.0,0.0,0.0,0.0,0.0,0.0,0.0,0.0792,0.0,0.0,0.0,0.0,0.0,0.0,0.0,0.0,0.0,0.0,0.0,0.0,0.0,0.0,0.0527,0.0054,0.0,0.0108,0.0,0.0,0.0808,0.1344,0.1469,0.1576,0.0,0.0,0.0,0.0,0.0,0.0,0.0,0.0,0.0,0.0,0.0,0.0,0.0,0.0,0.0,0.0,0.0,0.0,0.0,0.0,0.0,0.0,0.0,0.0,0.0,0.0,0.0,0.0,0.0,0.0,0.0,0.0,0.0,0.0,0.0,0.0,0.0,0.0,0.0,0.0,0.0,0.0,0.0,0.0,0.0,0.0,0.0,0.0,0.0,0.0,0.0,0.0,0.0,0.0,0.0,0.1795,0.1917,0.232,0.3031,0.3081,0.3413,0.4066,0.3962,0.3847,0.0,0.0,0.0,0.0,0.0,0.0,0.0,0.0,0.0,0.0,0.0,0.0,0.0,0.0,0.0,0.0,0.0,0.0,0.0,0.0,0.0,0.0,0.0,0.0,0.0,0.0,0.0,0.0,0.0,0.0,0.0,0.0,0.0,0.0,0.0,0.0,0.0,0.0,0.0,0.0,0.0,0.0323,0.0056,0.0,0.0113,0.0,0.0,0.0978,0.1266,0.1634,0.1847,0.1733,0.0,0.0,0.0,0.0,0.0,0.0,0.0,0.0,0.0,0.0,0.0,0.0,0.0,0.0,0.0,0.0,0.0,0.0,0.0,0.0,0.0,0.0,0.0,0.0,0.0,0.0,0.0,0.0,0.0,0.0,0.0,0.0,0.0,0.0,0.0,0.0,0.0,0.0,0.0,0.0,0.0,0.0,0.0,0.0,0.0,0.0,0.0,0.0,0.0,0.0,0.0,0.0,0.0,0.1733,0.1821,0.1906,0.2285,0.3054,0.3128,0.3456,0.4007,0.4193,0.4168,0.0,0.0,0.0,0.0,0.0,0.0,0.0,0.0,0.0,0.0,0.0,0.0,0.0,0.0,0.0,0.0,0.0,0.0,0.0,0.0,0.0,0.0,0.0,0.0,0.0,0.0,0.0,0.0,0.0127,0.0,0.0,0.0,0.0,0.0,0.0,0.0,0.0,0.0,0.0,0.0,0.0,0.0323,0.0,0.0,0.0,0.0,0.0688,0.0981,0.1341,0.163,0.1836,0.1771,0.1705,0.0,0.0,0.0,0.0,0.0,0.0,0.0,0.0,0.0,0.0,0.0,0.0,0.0,0.0,0.0,0.0,0.0,0.0,0.0,0.0,0.0,0.0,0.0,0.0,0.0,0.0,0.0,0.0,0.0,0.0,0.0,0.0,0.0,0.0,0.0,0.0,0.0,0.0,0.0,0.0,0.0,0.0,0.0,0.0,0.0,0.0,0.0,0.0,0.0,0.0,0.0,0.0,0.1759,0.1783,0.1909,0.2276,0.2965,0.3091,0.3351,0.3849,0.4253,0.4313,0.0,0.0,0.0,0.0,0.0,0.0,0.0,0.0,0.0,0.0,0.0,0.0,0.0,0.0,0.0,0.0,0.0,0.0,0.0,0.0,0.0,0.0,0.0,0.0,0.0,0.0,0.0,0.0,0.0173,0.0133,0.0134,0.0,0.0,0.0,0.0,0.0,0.0,0.0,0.0,0.0,0.0,0.0217,0.0,0.0,0.0056,0.0227,0.0629,0.098,0.1218,0.1559,0.1824,0.1775,0.0,0.0,0.0,0.0,0.0,0.0,0.0,0.0,0.0,0.0,0.0,0.0,0.0,0.0,0.0,0.0,0.0,0.0,0.0,0.0,0.0,0.0,0.0,0.0,0.0,0.0,0.0,0.0,0.0,0.0,0.178,0.0,0.0,0.0,0.0,0.0,0.0,0.0,0.0,0.0,0.0,0.0,0.0,0.0,0.0,0.0,0.0,0.0,0.0,0.0,0.0,0.0,0.0,0.1779,0.1783,0.1929,0.2175,0.2585,0.2842,0.316,0.3532,0.4046,0.4219,0.4086,0.0,0.0,0.0,0.0,0.0,0.0,0.0,0.0,0.0,0.0,0.0,0.0,0.0,0.0,0.0,0.0,0.0,0.0,0.0,0.0,0.0,0.0,0.0,0.0,0.0,0.0,0.0044,0.0221,0.0403,0.0,0.0,0.0,0.0,0.0,0.0,0.0,0.0,0.0,0.0,0.0161,0.0,0.0,0.0,0.0,0.0058,0.0522,0.0914,0.0901,0.1422,0.1753,0.0,0.0,0.0,0.0,0.0,0.0,0.0,0.0,0.0,0.0,0.0,0.0,0.0,0.0,0.0,0.0,0.0,0.0,0.0,0.0,0.0,0.0,0.0,0.0,0.0,0.0,0.0,0.1947,0.1943,0.0,0.0,0.0,0.0,0.0,0.0,0.0,0.0,0.0,0.0,0.0,0.3022,0.2654,0.0,0.0,0.0,0.0,0.0,0.0,0.0,0.0,0.0,0.0,0.0,0.0,0.1809,0.187,0.194,0.2166,0.2486,0.2825,0.3141,0.3484,0.4309,0.4704,0.4849,0.0,0.0,0.0,0.0,0.0,0.0,0.0,0.0,0.0,0.0,0.0,0.0,0.0,0.0,0.0,0.0,0.0,0.0,0.0,0.0,0.0,0.0,0.0,0.0,0.0,0.0276,0.0,0.0,0.0,0.0,0.0,0.0,0.0,0.0,0.0,0.0,0.0,0.0359,0.0161,0.0054,0.0,0.0,0.0,0.0055,0.0,0.0,0.0,0.0,0.0,0.0,0.0,0.0,0.0,0.0,0.0,0.0,0.0,0.0,0.1644,0.1495,0.1488,0.1389,0.1189,0.0,0.0,0.0,0.0,0.0,0.0,0.0,0.0,0.0,0.0,0.0,0.0,0.0,0.0,0.0,0.0,0.2307,0.0,0.0,0.0,0.0,0.0,0.0,0.0,0.0,0.3188,0.3406,0.3486,0.3033,0.2819,0.0,0.2276,0.1971,0.0,0.0,0.0,0.0,0.0,0.0,0.0,0.0,0.1846,0.1915,0.1966,0.212,0.2381,0.2722,0.2969,0.3298,0.4183,0.4848,0.5223,0.4979,0.4694,0.0,0.0,0.0,0.0,0.0,0.0,0.0,0.0,0.0,0.0,0.0,0.0,0.0,0.0,0.0,0.0,0.0,0.0,0.0,0.0,0.0,0.0,0.0,0.0236,0.0,0.0,0.0,0.0,0.0,0.0,0.0,0.0,0.0,0.0297,0.0254,0.0209,0.0,0.0,0.0,0.0,0.0,0.0,0.0,0.0,0.0,0.0,0.0,0.1735,0.1735,0.1761,0.1785,0.1851,0.1853,0.1853,0.1853,0.0,0.0,0.1693,0.1678,0.1626,0.1521,0.1468,0.1424,0.1235,0.1239,0.1247,0.0,0.0,0.0,0.0,0.0,0.0,0.0,0.0,0.2548,0.2697,0.0,0.3081,0.0,0.0,0.0,0.0,0.0,0.0,0.0,0.0,0.3694,0.3922,0.4241,0.3568,0.3212,0.3107,0.2443,0.2082,0.2019,0.1936,0.0,0.0,0.0,0.0,0.0,0.0,0.1829,0.1975,0.2007,0.2035,0.2126,0.2452,0.2757,0.303,0.3865,0.4587,0.5241,0.4986,0.4875,0.495,0.4127,0.0,0.0,0.0,0.0,0.0,0.0,0.0,0.0,0.0,0.0,0.0,0.0,0.0,0.0,0.0,0.0,0.0,0.0,0.0,0.0,0.0143,0.0,0.0,0.0,0.0,0.0,0.0,0.0,0.0,0.0,0.0,0.0051,0.0,0.0,0.0,0.0,0.0,0.0,0.0,0.0112,0.0393,0.0673,0.1003,0.1261,0.161,0.1797,0.1798,0.0,0.0,0.1885,0.1889,0.1888,0.1888,0.1888,0.187,0.1813,0.1798,0.1794,0.1795,0.1795,0.1809,0.1779,0.1729,0.1804,0.2259,0.0,0.0,0.0,0.0,0.2484,0.2653,0.269,0.3077,0.3305,0.3301,0.3383,0.0,0.0,0.0,0.0,0.0,0.0,0.3638,0.3871,0.4113,0.4141,0.4021,0.3534,0.318,0.2893,0.2412,0.2176,0.2116,0.2155,0.2015,0.1894,0.0,0.0,0.0,0.0,0.1654,0.1944,0.18,0.1817,0.2128,0.2412,0.2992,0.3781,0.3962,0.4419,0.5036,0.5093,0.5063,0.4958,0.4472,0.0,0.0,0.0,0.0,0.0,0.0,0.0,0.0,0.0,0.0,0.0,0.0,0.0,0.0,0.0,0.0,0.0,0.0,0.0,0.0155,0.0051,0.005,0.0,0.0,0.0,0.0,0.0,0.0,0.0,0.0,0.0,0.0,0.0,0.0,0.0,0.0,0.0,0.0,0.0,0.0113,0.0342,0.0,0.0,0.0,0.1582,0.1835,0.1855,0.1903,0.1947,0.1975,0.1964,0.1951,0.1951,0.1967,0.1974,0.1956,0.1902,0.1864,0.1861,0.1877,0.1902,0.193,0.1952,0.1978,0.2394,0.2327,0.2256,0.2365,0.2507,0.2753,0.2995,0.316,0.3639,0.3805,0.3802,0.397,0.4002,0.3968,0.3706,0.0,0.0,0.0,0.406,0.4221,0.4304,0.418,0.3916,0.3489,0.3053,0.2827,0.2404,0.2238,0.2191,0.2191,0.2133,0.2022,0.0,0.0,0.1904,0.1612,0.1636,0.199,0.1763,0.1776,0.2101,0.2435,0.2888,0.3447,0.357,0.391,0.4599,0.4768,0.4831,0.4865,0.4646,0.4252,0.0,0.0,0.0,0.0,0.0,0.0,0.0,0.0,0.0,0.0,0.0,0.1107,0.1122,0.0,0.0,0.0,0.0353,0.0158,0.0,0.0,0.0,0.0,0.0,0.0,0.0,0.0,0.0,0.0412,0.0314,0.016,0.0,0.0,0.0,0.0,0.0,0.0,0.0,0.0,0.0115,0.0348,0.0576,0.086,0.127,0.1523,0.173,0.1949,0.2048,0.2015,0.2033,0.2022,0.2012,0.2075,0.2024,0.2037,0.2037,0.1992,0.196,0.1971,0.1989,0.2011,0.2105,0.2061,0.2078,0.2504,0.2472,0.2387,0.2641,0.3002,0.3037,0.3276,0.3731,0.4148,0.4396,0.4394,0.4646,0.4766,0.4758,0.4334,0.0,0.4163,0.4044,0.4266,0.4603,0.4186,0.397,0.3939,0.3209,0.2898,0.2864,0.2508,0.2278,0.2179,0.2179,0.2219,0.2228,0.2076,0.203,0.1963,0.1646,0.1734,0.2112,0.1782,0.1794,0.2221,0.2462,0.2578,0.2575,0.2826,0.3286,0.3915,0.4038,0.4327,0.4768,0.4574,0.4322,0.4126,0.0,0.0,0.0,0.0,0.0,0.0,0.0,0.0,0.0,0.0,0.0,0.0,0.0,0.0,0.0,0.0367,0.0,0.0054,0.0054,0.0,0.0,0.0,0.0466,0.0664,0.0517,0.0368,0.0375,0.0,0.0,0.0,0.0,0.0,0.0,0.0,0.0,0.0,0.0,0.0059,0.0355,0.0415,0.0655,0.1268,0.1472,0.169,0.205,0.2133,0.2131,0.2131,0.2127,0.2127,0.2124,0.213,0.2133,0.2133,0.2065,0.208,0.2106,0.2108,0.2114,0.2133,0.221,0.2147,0.2577,0.2566,0.2837,0.3004,0.3154,0.3763,0.4091,0.4204,0.4601,0.4762,0.476,0.4823,0.4869,0.4823,0.4659,0.4651,0.4576,0.4265,0.419,0.4272,0.3853,0.3467,0.3254,0.3004,0.2766,0.2468,0.2322,0.2308,0.2281,0.2281,0.226,0.2223,0.2178,0.2133,0.2089,0.1761,0.1777,0.2143,0.1808,0.1812,0.2154,0.2238,0.2438,0.268,0.2672,0.2888,0.3335,0.3743,0.4112,0.4334,0.4467,0.4423,0.4332,0.3341,0.0,0.0,0.0,0.0,0.0,0.0,0.0,0.0,0.0,0.119,0.1246,0.0,0.0906,0.0,0.0755,0.0665,0.0665,0.0665,0.0,0.0,0.0541,0.0434,0.0547,0.0275,0.0111,0.0113,0.0057,0.0,0.0,0.0,0.0,0.0,0.0,0.0,0.0,0.0,0.0,0.0,0.0308,0.0622,0.1063,0.1597,0.2015,0.2097,0.2098,0.2098,0.2098,0.2079,0.2128,0.213,0.2083,0.2097,0.2098,0.2116,0.2209,0.2168,0.2143,0.211,0.2119,0.2139,0.2223,0.2613,0.2681,0.3231,0.3505,0.3517,0.4097,0.448,0.4663,0.4895,0.4973,0.4973,0.4973,0.4957,0.4847,0.4924,0.4924,0.4844,0.4438,0.4273,0.4195,0.3619,0.3149,0.2997,0.2812,0.2573,0.2352,0.2339,0.2324,0.2311,0.2309,0.2294,0.2266,0.2249,0.221,0.2151,0.1803,0.1804,0.2221,0.1964,0.1971,0.2176,0.2191,0.2248,0.2403,0.2415,0.2509,0.2811,0.3147,0.3448,0.3665,0.3891,0.4015,0.3921,0.3364,0.2936,0.0,0.0,0.0,0.0,0.0,0.0,0.0,0.0,0.0,0.0,0.0,0.1046,0.0,0.0951,0.0975,0.0918,0.0918,0.0971,0.0962,0.0622,0.0454,0.0515,0.0229,0.0,0.0,0.0,0.0,0.0,0.0,0.0,0.0,0.0,0.0,0.0,0.0,0.0,0.0,0.0127,0.0448,0.0964,0.1639,0.2129,0.2129,0.2129,0.2129,0.2129,0.2116,0.2171,0.2105,0.2119,0.2129,0.2131,0.2142,0.2228,0.2169,0.2154,0.2138,0.2147,0.2162,0.2173,0.2637,0.2695,0.3507,0.3913,0.3907,0.43,0.4731,0.5044,0.5044,0.5041,0.5033,0.5025,0.5022,0.5022,0.5022,0.5022,0.4938,0.4502,0.4251,0.4172,0.336,0.2962,0.296,0.2548,0.2382,0.2378,0.2352,0.2337,0.226,0.226,0.232,0.2297,0.2293,0.2264,0.2213,0.1841,0.1824,0.2155,0.2184,0.2199,0.2193,0.2198,0.2173,0.2117,0.2082,0.2244,0.2469,0.2494,0.2659,0.2909,0.328,0.3441,0.3389,0.3291,0.3248,0.0,0.2514,0.0,0.0,0.0,0.0,0.0,0.0,0.0,0.0,0.1482,0.1257,0.1069,0.1101,0.1119,0.1119,0.1119,0.112,0.1123,0.0827,0.0591,0.0592,0.0237,0.006,0.0,0.0,0.0,0.0,0.0,0.0,0.0,0.0,0.0,0.0,0.0,0.0,0.0,0.0065,0.052,0.1119,0.1735,0.222,0.2221,0.222,0.2223,0.222,0.222,0.2221,0.222,0.2218,0.2221,0.2223,0.2221,0.2223,0.2224,0.2221,0.2227,0.2181,0.2187,0.2185,0.268,0.2757,0.3561,0.3876,0.3954,0.4712,0.5088,0.5169,0.5169,0.5142,0.5093,0.5041,0.5022,0.5022,0.5022,0.5022,0.4944,0.4229,0.3912,0.3832,0.3015,0.2614,0.2612,0.2429,0.2402,0.2379,0.2372,0.2357,0.226,0.226,0.2257,0.2324,0.2301,0.2285,0.2273,0.0,0.0,0.0,0.2185,0.2188,0.2165,0.2187,0.2183,0.2214,0.2158,0.0,0.2183,0.2407,0.2639,0.2702,0.3015,0.0,0.0,0.0,0.0,0.0,0.0,0.0,0.0,0.0,0.0,0.0,0.1787,0.1789,0.1765,0.1759,0.1739,0.1693,0.1761,0.1709,0.1709,0.1709,0.1717,0.168,0.1442,0.1146,0.0917,0.0612,0.0308,0.0,0.0,0.0,0.0,0.0,0.0,0.0,0.0,0.0,0.0,0.0,0.0,0.0,0.0457,0.0989,0.1405,0.1881,0.2223,0.2223,0.2223,0.2223,0.2223,0.2223,0.2223,0.2223,0.2223,0.2223,0.2223,0.2223,0.2223,0.2223,0.2223,0.2224,0.223,0.2231,0.223,0.2861,0.0,0.3679,0.4086,0.0,0.5057,0.5292,0.5289,0.5229,0.5169,0.5106,0.5046,0.5022,0.5022,0.5022,0.5022,0.4944,0.4395,0.4005,0.3768,0.3122,0.2724,0.2491,0.2461,0.2438,0.2423,0.2393,0.2371,0.2354,0.2339,0.226,0.226,0.2319,0.2304,0.229,0.226,0.2237,0.2292,0.2237,0.223,0.2202,0.2215,0.2193,0.2135,0.0,0.0,0.0,0.0,0.0,0.0,0.0,0.0,0.0,0.0,0.0,0.3377,0.2911,0.2524,0.2327,0.202,0.1846,0.1862,0.1903,0.1903,0.1844,0.1883,0.1909,0.1909,0.1922,0.193,0.193,0.193,0.1937,0.1952,0.1648,0.1409,0.1234,0.0808,0.0438,0.0252,0.0064,0.0,0.0,0.0,0.0,0.0,0.0,0.0,0.0,0.0,0.0,0.0263,0.0729,0.1135,0.1344,0.1818,0.2155,0.1953,0.2088,0.2155,0.2223,0.2223,0.2223,0.2223,0.2223,0.2223,0.2223,0.2223,0.2223,0.2223,0.2223,0.2223,0.2223,0.2223,0.2223,0.3113,0.3533,0.3954,0.4372,0.471,0.5216,0.5384,0.5376,0.0,0.0,0.0,0.5063,0.503,0.5022,0.5022,0.5022,0.4944,0.4554,0.4162,0.3768,0.3297,0.2905,0.2512,0.2489,0.2474,0.2466,0.2418,0.2391,0.2386,0.2356,0.2341,0.2341,0.2335,0.2322,0.2298,0.2273,0.2273,0.2296,0.2288,0.2271,0.2176,0.2175,0.2141,0.2135,0.2123,0.2106,0.2147,0.2134,0.2128,0.2128,0.2388,0.2646,0.3031,0.3254,0.3359,0.3417,0.3032,0.2747,0.244,0.2111,0.1928,0.1954,0.1999,0.1996,0.1922,0.194,0.1952,0.1948,0.197,0.1982,0.2038,0.2038,0.2038,0.1977,0.173,0.1544,0.1488,0.094,0.057,0.0511,0.0,0.0,0.0,0.0,0.0,0.0,0.0,0.0,0.0,0.0,0.0133,0.0536,0.094,0.1144,0.1346,0.1683,0.1953,0.1818,0.1953,0.2088,0.2155,0.2223,0.2223,0.2223,0.2223,0.2223,0.2223,0.2223,0.2223,0.2223,0.2227,0.223,0.223,0.2168,0.2172,0.3533,0.3952,0.4372,0.4626,0.471,0.5216,0.5384,0.5379,0.5311,0.5248,0.5185,0.5125,0.5068,0.5022,0.5022,0.5022,0.5022,0.4554,0.4162,0.0,0.3297,0.2905,0.2514,0.251,0.2495,0.2469,0.2536,0.2443,0.2417,0.2386,0.2372,0.2368,0.2345,0.2257,0.2254,0.2323,0.2323,0.2253,0.2277,0.2179,0.2175,0.2175,0.217,0.2225,0.2174,0.2214,0.2209,0.2158,0.2128,0.2128,0.2128,0.2322,0.2646,0.2705,0.283,0.3087,0.2819,0.262,0.2556,0.2232,0.2041,0.2045,0.2117,0.2116,0.2105,0.2106,0.2034,0.2009,0.2011,0.2003,0.2043,0.2041,0.2043,0.2041,0.1978,0.1799,0.157,0.1137,0.0834,0.053,0.0,0.0,0.0,0.0,0.0,0.0,0.0,0.0,0.0,0.0,0.0,0.0807,0.1077,0.1346,0.175,0.1818,0.1818,0.2088,0.1818,0.1818,0.2088,0.2155,0.2155,0.2223,0.2223,0.2223,0.2223,0.2223,0.2225,0.2227,0.2176,0.2192,0.2193,0.2213,0.2222,0.3954,0.4372,0.4626,0.4878,0.513,0.53,0.5384,0.5382,0.5357,0.5308,0.5245,0.5153,0.5095,0.5068,0.5036,0.5022,0.5022,0.4787,0.4395,0.3768,0.3611,0.314,0.2514,0.2514,0.2507,0.2493,0.2477,0.2462,0.2446,0.2401,0.2378,0.2376,0.2348,0.226,0.226,0.226,0.226,0.226,0.2235,0.2285,0.2271,0.227,0.2263,0.2176,0.2217,0.2204,0.2203,0.2161,0.2138,0.2138,0.2189,0.2311,0.2641,0.2643,0.2709,0.2839,0.2688,0.2545,0.2349,0.2154,0.2089,0.2089,0.2169,0.2179,0.2179,0.2148,0.2057,0.2045,0.2044,0.2038,0.2088,0.2086,0.2088,0.2023,0.2088,0.1966,0.1788,0.1297,0.0923,0.0738,0.0337,0.0,0.0,0.0,0.0,0.0,0.0,0.0,0.0,0.0,0.0135,0.0673,0.0943,0.1212,0.1548,0.1616,0.1616,0.1616,0.1481,0.1481,0.1818,0.1885,0.1953,0.2155,0.2223,0.2223,0.2223,0.2169,0.2176,0.2183,0.2204,0.2222,0.2228,0.2249,0.2327,0.4456,0.4878,0.4878,0.5046,0.5384,0.5384,0.5384,0.5384,0.5384,0.5357,0.5303,0.5199,0.5136,0.5106,0.5063,0.5033,0.5022,0.5022,0.4552,0.3846,0.3846,0.3297,0.2592,0.2514,0.2514,0.2511,0.2489,0.248,0.2473,0.2425,0.2391,0.2376,0.2348,0.226,0.226,0.226,0.226,0.226,0.226,0.2322,0.2301,0.23,0.2289,0.2267,0.2188,0.2256,0.2184,0.2226,0.221,0.221,0.2188,0.2312,0.2584,0.2584,0.2584,0.258,0.2558,0.2408,0.214,0.214,0.214,0.214,0.2155,0.2165,0.2228,0.2182,0.2082,0.2075,0.2075,0.2135,0.2127,0.2127,0.2128,0.2128,0.2128,0.2069,0.1955,0.1392,0.0943,0.0881,0.0341,0.0,0.0,0.0,0.0,0.0,0.0,0.0,0.0,0.0,0.0,0.0337,0.0741,0.101,0.1077,0.1212,0.1279,0.1077,0.101,0.1144,0.1414,0.1548,0.1683,0.1953,0.2155,0.2159,0.2165,0.2183,0.2199,0.2208,0.2234,0.2187,0.2196,0.2283,0.2428,0.4878,0.53,0.53,0.5384,0.5384,0.5384,0.5384,0.5384,0.5384,0.5382,0.5365,0.5305,0.5213,0.512,0.5106,0.5071,0.5025,0.5022,0.4549,0.3846,0.3846,0.3377,0.2592,0.2514,0.2514,0.2514,0.251,0.2507,0.2506,0.2474,0.2508,0.2382,0.2348,0.2262,0.2261,0.2261,0.2261,0.226,0.226,0.2258,0.2257,0.2256,0.2254,0.2253,0.23,0.2286,0.2286,0.2258,0.2171,0.2171,0.2169,0.2236,0.2236,0.2237,0.2237,0.2236,0.2233,0.2233,0.2162,0.2163,0.2159,0.2162,0.2206,0.2193,0.2193,0.2165,0.2133,0.2112,0.2105,0.2094,0.2133,0.2133,0.2137,0.2137,0.2137,0.1954,0.1664,0.1262,0.0871,0.0557,0.0274,0.0,0.0,0.0,0.0,0.0,0.0,0.0,0.0,0.0,0.0,0.0,0.0337,0.0673,0.0943,0.0808,0.0808,0.101,0.0808,0.0808,0.101,0.1346,0.1616,0.175,0.2023,0.2168,0.2184,0.22,0.2213,0.2238,0.2266,0.2293,0.2316,0.2324,0.2451,0.5216,0.5384,0.5384,0.5384,0.5384,0.5384,0.5384,0.5384,0.5384,0.5384,0.5382,0.5357,0.5281,0.5166,0.5128,0.5079,0.5022,0.5022,0.4552,0.3846,0.3846,0.3376,0.2592,0.2514,0.2514,0.2514,0.2514,0.2514,0.251,0.2484,0.2447,0.2409,0.2393,0.2386,0.2386,0.2387,0.2386,0.2311,0.2368,0.236,0.2357,0.2342,0.226,0.2258,0.2322,0.2316,0.2313,0.2288,0.2273,0.2271,0.2256,0.2175,0.2175,0.2175,0.2175,0.2175,0.2175,0.2175,0.2175,0.2175,0.2175,0.2175,0.2217,0.22,0.2199,0.2172,0.2216,0.2139,0.2136,0.2196,0.2186,0.22,0.2138,0.2124,0.2133,0.2013,0.1614,0.1282,0.0954,0.0553,0.0,0.0,0.0,0.0,0.0,0.0,0.0,0.0,0.0,0.0,0.0,0.0,0.0135,0.0337,0.0673,0.0606,0.0606,0.0606,0.0471,0.0337,0.0673,0.1077,0.1346,0.1549,0.1898,0.2183,0.2196,0.2234,0.226,0.2206,0.2223,0.232,0.2258,0.226,0.239,0.5384,0.5384,0.5384,0.5384,0.5384,0.5384,0.5384,0.5384,0.5384,0.5384,0.5382,0.5368,0.5303,0.5207,0.5155,0.5095,0.5027,0.5022,0.463,0.4003,0.3846,0.3377,0.2749,0.2514,0.2514,0.2514,0.2514,0.2514,0.2511,0.2484,0.2458,0.2438,0.2428,0.2348,0.2272,0.2348,0.2348,0.227,0.2326,0.2391,0.2387,0.2369,0.2349,0.2335,0.226,0.226,0.226,0.2313,0.2303,0.2303,0.2281,0.2268,0.2199,0.2199,0.227,0.2199,0.2199,0.2199,0.227,0.2198,0.2199,0.2267,0.2241,0.2221,0.221,0.2185,0.2165,0.2221,0.2223,0.2221,0.2225,0.2174,0.2176,0.2227,0.2176,0.1976,0.1492,0.1228,0.0888,0.0412,0.0137,0.0,0.0,0.0,0.0,0.0,0.0,0.0,0.0,0.0,0.0,0.0,0.0,0.0068,0.0338,0.0337,0.0404,0.0338,0.0135,0.0135,0.0404,0.0741,0.1082,0.1357,0.1847,0.2143,0.2163,0.2271,0.2079,0.2016,0.2029,0.2113,0.2114,0.2187,0.226,0.5384,0.5384,0.5384,0.5384,0.5384,0.5384,0.5384,0.5384,0.5384,0.5384,0.5376,0.5324,0.5264,0.5204,0.5191,0.5131,0.5033,0.5022,0.4709,0.4319,0.3925,0.3532,0.306,0.2671,0.2514,0.2514,0.2514,0.2514,0.2512,0.2485,0.2469,0.2466,0.2442,0.2199,0.1973,0.2278,0.2198,0.1974,0.2197,0.2421,0.2421,0.2418,0.239,0.2343,0.2261,0.2262,0.2261,0.2258,0.2257,0.2258,0.2254,0.2253,0.2254,0.2254,0.2324,0.2253,0.2254,0.2254,0.2253,0.2323,0.2324,0.225,0.2296,0.2271,0.217,0.2211,0.2183,0.2224,0.2223,0.2223,0.2223,0.223,0.223,0.2224,0.2224,0.1832,0.1232,0.1085,0.0747,0.0,0.0,0.0,0.0,0.0,0.0,0.0,0.0,0.0,0.0,0.0,0.0,0.0,0.0,0.0,0.0,0.0,0.0,0.0,0.0,0.0,0.0,0.0539,0.0883,0.1232,0.1654,0.1953,0.2128,0.2008,0.1658,0.1593,0.1671,0.175,0.1895,0.2114,0.226,0.5384,0.5384,0.5384,0.5384,0.5384,0.5384,0.5384,0.5384,0.5384,0.5384,0.5373,0.5319,0.5259,0.5199,0.5161,0.5098,0.5025,0.5022,0.463,0.4081,0.3846,0.3454,0.2749,0.2592,0.2514,0.2514,0.2514,0.2514,0.2514,0.2503,0.2497,0.2497,0.2488,0.2404,0.2326,0.2404,0.2404,0.2247,0.2386,0.2453,0.2451,0.2433,0.2412,0.2391,0.2372,0.2361,0.2363,0.2343,0.226,0.226,0.226,0.226,0.226,0.226,0.226,0.226,0.226,0.226,0.226,0.226,0.226,0.2258,0.2307,0.2278,0.2248,0.2217,0.2187,0.223,0.2223,0.2223,0.2227,0.2172,0.2176,0.2161,0.2036,0.1701,0.1221,0.0878,0.054,0.0,0.0,0.0,0.0,0.0,0.0,0.0,0.0,0.0,0.0,0.0,0.0,0.0,0.0,0.0,0.0,0.0,0.0,0.0,0.0,0.0,0.0,0.0,0.0686,0.1042,0.1467,0.1621,0.172,0.1588,0.1306,0.1236,0.1313,0.1531,0.175,0.1968,0.2114,0.5384,0.5384,0.5384,0.5384,0.5384,0.5384,0.5384,0.5384,0.5384,0.5384,0.5371,0.53,0.524,0.5194,0.512,0.5063,0.5025,0.5022,0.463,0.4005,0.3846,0.3376,0.2749,0.2592,0.2514,0.2514,0.2514,0.2514,0.2514,0.2514,0.2514,0.2514,0.2514,0.2435,0.2357,0.2435,0.2435,0.2353,0.2416,0.2484,0.2481,0.2463,0.2453,0.2448,0.2424,0.2397,0.2379,0.2358,0.2342,0.2334,0.226,0.226,0.226,0.226,0.226,0.226,0.226,0.226,0.226,0.226,0.226,0.226,0.2315,0.2292,0.2263,0.2232,0.2202,0.2177,0.2225,0.2223,0.2161,0.2113,0.1982,0.1961,0.1834,0.1428,0.0944,0.0673,0.0405,0.0,0.0,0.0,0.0,0.0,0.0,0.0,0.0,0.0,0.0,0.0,0.0,0.0,0.0,0.0,0.0,0.0,0.0,0.0,0.0,0.0,0.0,0.0,0.0556,0.0845,0.1065,0.1145,0.1153,0.1089,0.1019,0.0875,0.0949,0.1094,0.1385,0.1677,0.1968,0.5384,0.5384,0.5384,0.5384,0.5384,0.5384,0.5384,0.5384,0.5384,0.5384,0.5371,0.5264,0.5215,0.518,0.509,0.5027,0.5022,0.5022,0.4787,0.4319,0.4005,0.3611,0.314,0.2749,0.2514,0.2514,0.2514,0.2514,0.2514,0.2514,0.2514,0.2514,0.2514,0.2357,0.1964,0.2357,0.2278,0.212,0.2353,0.2511,0.2514,0.2507,0.2506,0.2506,0.248,0.244,0.2386,0.2379,0.2363,0.2339,0.2261,0.226,0.226,0.226,0.226,0.226,0.226,0.226,0.226,0.226,0.226,0.226,0.2258,0.2316,0.2286,0.2258,0.2228,0.2198,0.2172,0.2223,0.2162,0.191,0.164,0.1621,0.1553,0.1216,0.0741,0.0472,0.0339,0.0,0.0,0.0,0.0,0.0,0.0,0.0,0.0,0.0,0.0,0.0,0.0,0.0,0.0,0.0,0.0,0.0,0.0,0.0,0.0,0.0,0.0,0.0211,0.0424,0.0713,0.086,0.0938,0.0724,0.0583,0.051,0.0438,0.0584,0.0,0.1167,0.1532,0.1895,0.5384,0.5384,0.5384,0.5384,0.5384,0.5384,0.5384,0.5384,0.5384,0.5384,0.5371,0.53,0.5243,0.5191,0.5117,0.506,0.5022,0.5022,0.4787,0.4397,0.4241,0.4005,0.3532,0.314,0.2749,0.2514,0.2514,0.2514,0.2514,0.2514,0.2514,0.2514,0.2514,0.2435,0.2357,0.2435,0.2435,0.2357,0.2435,0.2514,0.2514,0.2514,0.2514,0.2512,0.2504,0.248,0.2442,0.2401,0.2375,0.2364,0.2343,0.226,0.226,0.2041,0.2041,0.226,0.2041,0.2041,0.226,0.226,0.226,0.226,0.226,0.2319,0.2293,0.2263,0.2233,0.2203,0.2173,0.2228,0.2114,0.1851,0.1573,0.1551,0.1154,0.0816,0.0541,0.0272,0.0137,0.0,0.0,0.0,0.0,0.0,0.0,0.0,0.0,0.0,0.0,0.0,0.0,0.0,0.0,0.0,0.0,0.0,0.0,0.0,0.0,0.0,0.0,0.0071,0.0287,0.0432,0.065,0.058,0.0364,0.0,0.0,0.0,0.0,0.0,0.0,0.1386,0.1678,0.5384,0.5384,0.5384,0.5384,0.5384,0.5384,0.5384,0.5384,0.5384,0.5384,0.5373,0.5319,0.5273,0.5229,0.5172,0.5125,0.5087,0.5066,0.4897,0.4658,0.4483,0.4162,0.3768,0.3297,0.2905,0.2592,0.2514,0.2514,0.2514,0.2514,0.2514,0.2514,0.2514,0.2514,0.2514,0.2514,0.2514,0.2514,0.2514,0.2514,0.2514,0.2514,0.2514,0.2514,0.2514,0.2504,0.2484,0.2438,0.2401,0.2379,0.2349,0.2261,0.2114,0.1895,0.1822,0.1822,0.1822,0.1895,0.2114,0.2187,0.226,0.226,0.226,0.232,0.2293,0.2263,0.2233,0.2203,0.2173,0.2168,0.2125,0.1728,0.1448,0.1369,0.0896,0.0483,0.0343,0.0138,0.0,0.0,0.0,0.0,0.0,0.0,0.0,0.0,0.0,0.0,0.0,0.0,0.0,0.0,0.0,0.0,0.0,0.0,0.0,0.0,0.0,0.0,0.0,0.0,0.0145,0.0217,0.0364,0.0364,0.0,0.0,0.0,0.0,0.0,0.0,0.0803,0.1095,0.1459,0.5384,0.5384,0.5384,0.5384,0.5384,0.5384,0.5384,0.5384,0.5384,0.5384,0.5371,0.533,0.5297,0.5281,0.5229,0.5199,0.5191,0.5142,0.5117,0.4944,0.4678,0.4259,0.377,0.3376,0.2983,0.2592,0.2514,0.2514,0.2514,0.2514,0.2514,0.2514,0.2514,0.2514,0.2514,0.2514,0.2514,0.2514,0.2514,0.2514,0.2514,0.2514,0.2514,0.2514,0.2514,0.2512,0.2506,0.2477,0.2435,0.2384,0.2353,0.2192,0.1896,0.1822,0.1605,0.1314,0.1532,0.1677,0.1822,0.1968,0.2187,0.2187,0.2186,0.2323,0.2298,0.2271,0.2244,0.2217,0.2187,0.2178,0.207,0.1604,0.1193,0.0984,0.0631,0.035,0.0,0.0,0.0,0.0,0.0,0.0,0.0,0.0,0.0,0.0,0.0,0.0,0.0,0.0,0.0,0.0,0.0,0.0,0.0,0.0,0.0,0.0,0.0,0.0,0.0,0.0,0.0,0.0,0.0,0.0,0.0,0.0,0.0,0.0,0.0,0.0,0.0511,0.0876,0.1242,0.5384,0.5384,0.5384,0.5384,0.5384,0.5384,0.5384,0.5384,0.5384,0.5384,0.5379,0.5368,0.5333,0.5294,0.5278,0.5245,0.5213,0.5188,0.518,0.5177,0.5086,0.4544,0.3937,0.3689,0.3219,0.2592,0.2514,0.2514,0.2514,0.2514,0.2514,0.2514,0.2514,0.2514,0.2514,0.2514,0.2514,0.2514,0.2514,0.2514,0.2514,0.2514,0.2514,0.2514,0.2514,0.2514,0.2511,0.2485,0.244,0.2384,0.2372,0.2207,0.1825,0.1532,0.1314,0.1168,0.1022,0.1094,0.1313,0.1459,0.1605,0.1895,0.1968,0.2039,0.2249,0.2296,0.2277,0.2262,0.224,0.2232,0.2118,0.1563,0.0929,0.036,0.0,0.0,0.0,0.0,0.0,0.0,0.0,0.0,0.0,0.0,0.0,0.0,0.0,0.0,0.0,0.0,0.0,0.0,0.0,0.0,0.0,0.0,0.0,0.0,0.0,0.0,0.0,0.0,0.0,0.0,0.0,0.0,0.0,0.0,0.0,0.0,0.0,0.0,0.0,0.073,0.1097,0.5384,0.5384,0.5384,0.5384,0.5384,0.5384,0.5384,0.5384,0.5384,0.5384,0.5384,0.5384,0.5365,0.5335,0.533,0.5313,0.5281,0.5254,0.524,0.5229,0.5183,0.4643,0.4038,0.3782,0.3377,0.2592,0.2514,0.2514,0.2514,0.2514,0.2514,0.2514,0.2514,0.2514,0.2514,0.2514,0.2514,0.2514,0.2514,0.2514,0.2514,0.2514,0.2514,0.2514,0.2514,0.2514,0.2511,0.2497,0.2459,0.2409,0.2384,0.2142,0.1608,0.1313,0.1022,0.0803,0.0657,0.073,0.0949,0.1095,0.1313,0.1532,0.1677,0.189,0.2026,0.2155,0.2289,0.2267,0.2253,0.2122,0.1928,0.1366,0.0652,0.0,0.0,0.0,0.0,0.0,0.0,0.0,0.0,0.0,0.0,0.0,0.0,0.0,0.0,0.0,0.0,0.0,0.0,0.0,0.0,0.0,0.0,0.0,0.0,0.0,0.0,0.0,0.0,0.0,0.0,0.0,0.0,0.0,0.0,0.0,0.0,0.0,0.0,0.0,0.0,0.0516,0.0885,0.539,0.5384,0.5384,0.5384,0.5384,0.5384,0.5384,0.5384,0.5384,0.5384,0.5384,0.5384,0.5382,0.5384,0.5373,0.5379,0.5376,0.5324,0.5305,0.5267,0.5121,0.4726,0.4081,0.3867,0.3301,0.2592,0.2514,0.2514,0.2514,0.2514,0.2514,0.2514,0.2514,0.2514,0.2514,0.2514,0.2514,0.2514,0.2514,0.2514,0.2514,0.2514,0.2514,0.2514,0.2514,0.2514,0.2514,0.2508,0.2482,0.2425,0.2397,0.2002,0.132,0.117,0.0803,0.0292,0.0365,0.0511,0.0584,0.0803,0.1095,0.1168,0.1459,0.167,0.173,0.1942,0.2077,0.2131,0.2186,0.1991,0.165,0.1015,0.051,0.0,0.0,0.0,0.0,0.0,0.0,0.0,0.0,0.0,0.0,0.0,0.0,0.0,0.0,0.0,0.0,0.0,0.0,0.0,0.0,0.0,0.0,0.0,0.0,0.0,0.0,0.0,0.0,0.0,0.0,0.0,0.0,0.0,0.0,0.0,0.0,0.0,0.0,0.0,0.0,0.0,0.0599,0.5428,0.5384,0.5384,0.5384,0.5384,0.5384,0.5384,0.5384,0.5384,0.5384,0.5384,0.5384,0.5384,0.5384,0.5384,0.5384,0.5384,0.5365,0.5365,0.5349,0.524,0.4945,0.4434,0.4051,0.3381,0.2749,0.2514,0.2514,0.2514,0.2514,0.2514,0.2514,0.2514,0.2514,0.2514,0.2514,0.2514,0.2514,0.2514,0.2514,0.2514,0.2514,0.2514,0.2514,0.2514,0.2514,0.2514,0.2514,0.2484,0.2439,0.234,0.1946,0.1331,0.1173,0.0803,0.0,0.0,0.0,0.0,0.0,0.0438,0.073,0.0875,0.102,0.131,0.138,0.1595,0.1808,0.188,0.1735,0.1306,0.0874,0.0438,0.0,0.0,0.0,0.0,0.0,0.0,0.0,0.0,0.0,0.0,0.0,0.0,0.0,0.0,0.0,0.0,0.0,0.0,0.0,0.0,0.0,0.0,0.0,0.0,0.0,0.0,0.0,0.0,0.0,0.0,0.0,0.0,0.0,0.0,0.0,0.0,0.0,0.0,0.0,0.0,0.0,0.0456,0.5439,0.5384,0.5384,0.5384,0.5384,0.5384,0.5384,0.5384,0.5384,0.5384,0.5384,0.5384,0.5384,0.5384,0.5384,0.5384,0.5384,0.5384,0.5384,0.5363,0.5286,0.5002,0.4655,0.4266,0.3735,0.2914,0.2592,0.2514,0.2514,0.2515,0.2514,0.2514,0.2515,0.2514,0.2514,0.2514,0.2514,0.2514,0.2514,0.2514,0.2514,0.2514,0.2514,0.2514,0.2514,0.2514,0.2514,0.2514,0.2489,0.2377,0.2203,0.1877,0.1331,0.1172,0.0803,0.0,0.0,0.0,0.0,0.0,0.0146,0.0292,0.0438,0.0657,0.0949,0.1095,0.1241,0.1459,0.1458,0.1386,0.0949,0.0584,0.0,0.0,0.0,0.0,0.0,0.0,0.0,0.0,0.0,0.0,0.0,0.0,0.0,0.0,0.0,0.0,0.0,0.0,0.0,0.0,0.0,0.0,0.0,0.0,0.0,0.0,0.0,0.0,0.0,0.0,0.0,0.0,0.0,0.0,0.0,0.0,0.0,0.0,0.0,0.0,0.0,0.0,0.0,0.5447,0.5384,0.5384,0.5384,0.5384,0.5384,0.5384,0.5384,0.5384,0.5384,0.5384,0.5384,0.5384,0.5384,0.5384,0.5384,0.5384,0.5384,0.5384,0.5373,0.5316,0.5121,0.4854,0.456,0.4181,0.3319,0.2929,0.2691,0.2533,0.2527,0.2534,0.2525,0.2522,0.2521,0.2517,0.2514,0.2514,0.2514,0.2514,0.2514,0.2514,0.2514,0.2514,0.2514,0.2514,0.2514,0.2514,0.2512,0.25,0.247,0.2059,0.1648,0.1326,0.1095,0.0,0.0,0.0,0.0,0.0,0.0,0.0,0.0,0.0292,0.0438,0.0584,0.073,0.0949,0.1022,0.1095,0.1022,0.0657,0.0293,0.0,0.0,0.0,0.0,0.0,0.0,0.0,0.0,0.0,0.0,0.0,0.0,0.0,0.0,0.0,0.0,0.0,0.0,0.0,0.0,0.0,0.0,0.0,0.0,0.0,0.0,0.0,0.0,0.0,0.0,0.0,0.0,0.0,0.0,0.0,0.0,0.0,0.0,0.0,0.0,0.0,0.0,0.0,0.5482,0.5384,0.5384,0.5384,0.5384,0.5384,0.5384,0.5384,0.5384,0.5384,0.5384,0.5384,0.5384,0.5384,0.5384,0.5384,0.5384,0.5384,0.5384,0.5376,0.533,0.522,0.5124,0.4841,0.4548,0.4208,0.3638,0.3072,0.2663,0.2586,0.2649,0.2556,0.2549,0.254,0.2522,0.2514,0.2517,0.2515,0.2517,0.2518,0.2514,0.2514,0.2514,0.2514,0.2514,0.2514,0.2514,0.2512,0.25,0.247,0.2058,0.1579,0.1188,0.0882,0.0438,0.0,0.0,0.0,0.0,0.0,0.0,0.0,0.0,0.0,0.0,0.0,0.0438,0.0658,0.0658,0.0658,0.0584,0.0221,0.0,0.0,0.0,0.0,0.0,0.0,0.0,0.0,0.0,0.0,0.0,0.0,0.0,0.0,0.0,0.0,0.0,0.0,0.0,0.0,0.0,0.0,0.0,0.0,0.0,0.0,0.0,0.0,0.0,0.0,0.0,0.0,0.0,0.0,0.0,0.0,0.0,0.0,0.0,0.0,0.0,0.0,0.0,0.5537,0.5436,0.5431,0.5414,0.5387,0.5384,0.5384,0.5384,0.5384,0.5384,0.5384,0.5384,0.5384,0.5384,0.5384,0.5384,0.5384,0.5384,0.5384,0.5373,0.5354,0.5341,0.5338,0.5054,0.4884,0.4633,0.4138,0.3613,0.3012,0.3007,0.2839,0.2663,0.2568,0.2552,0.2542,0.2538,0.2529,0.2523,0.2529,0.2529,0.2515,0.2514,0.2514,0.2514,0.2514,0.2514,0.2514,0.2514,0.2499,0.2396,0.1917,0.1443,0.1126,0.0668,0.0,0.0,0.0,0.0,0.0,0.0,0.0,0.0,0.0,0.0,0.0,0.0,0.0,0.0,0.0,0.0298,0.0223,0.0,0.0,0.0,0.0,0.0,0.0,0.0,0.0,0.0,0.0,0.0,0.0,0.0,0.0,0.0,0.0,0.0,0.0,0.0,0.0,0.0,0.0,0.0,0.0,0.0,0.0,0.0,0.0,0.0,0.0,0.0,0.0,0.0,0.0,0.0,0.0,0.0,0.0,0.0,0.0,0.0,0.0,0.0,0.0,0.5589,0.5491,0.548,0.5447,0.5406,0.539,0.5384,0.5384,0.5384,0.5384,0.5384,0.5384,0.5384,0.5384,0.5384,0.5384,0.5384,0.5384,0.5384,0.5384,0.5382,0.5382,0.5384,0.5384,0.5203,0.4942,0.4609,0.4251,0.3378,0.3285,0.3029,0.2691,0.2586,0.2572,0.257,0.2568,0.2549,0.2547,0.2545,0.2542,0.2522,0.2514,0.2514,0.2514,0.2514,0.2514,0.2514,0.2514,0.2504,0.2252,0.1776,0.1305,0.114,0.0451,0.0,0.0,0.0,0.0,0.0,0.0,0.0,0.0,0.0,0.0,0.0,0.0,0.0,0.0,0.0,0.0,0.0,0.0,0.0,0.0,0.0,0.0,0.0,0.0,0.0,0.0,0.0,0.0,0.0,0.0,0.0,0.0,0.0,0.0,0.0,0.0,0.0,0.0,0.0,0.0,0.0,0.0,0.0,0.0,0.0,0.0,0.0,0.0,0.0,0.0,0.0,0.0,0.0,0.0,0.0,0.0,0.0,0.0,0.0,0.0,0.0,0.561,0.5632,0.5499,0.5472,0.5455,0.5406,0.5384,0.5384,0.5384,0.5384,0.5384,0.5384,0.5384,0.5384,0.5384,0.5384,0.5384,0.5384,0.5384,0.5384,0.5384,0.5384,0.5384,0.5384,0.5384,0.5132,0.4878,0.4201,0.3592,0.3425,0.3081,0.2726,0.2632,0.2624,0.2598,0.2597,0.2594,0.2586,0.257,0.2545,0.2522,0.2515,0.2514,0.2514,0.2514,0.2514,0.2514,0.2514,0.2508,0.2427,0.1706,0.1311,0.1152,0.0456,0.0,0.0,0.0,0.0,0.0,0.0,0.0,0.0,0.0,0.0,0.0,0.0,0.0,0.0,0.0,0.0,0.0,0.0,0.0,0.0,0.0,0.0,0.0,0.0,0.0,0.0,0.0,0.0,0.0,0.0,0.0,0.0,0.0,0.0,0.0,0.0,0.0,0.0,0.0,0.0,0.0,0.0,0.0,0.0,0.0,0.0,0.0,0.0,0.0,0.0,0.0,0.0,0.0,0.0,0.0,0.0,0.0,0.0,0.0,0.0,0.0,0.5665,0.5605,0.5548,0.5504,0.5469,0.5409,0.5384,0.5384,0.5384,0.5384,0.5384,0.5384,0.5384,0.5384,0.5384,0.5384,0.5384,0.5384,0.5384,0.5384,0.5384,0.5384,0.5384,0.5384,0.5384,0.53,0.4878,0.4372,0.387,0.3449,0.3102,0.2755,0.2656,0.2558,0.2628,0.2627,0.2616,0.2598,0.2575,0.2635,0.2538,0.2525,0.2514,0.2514,0.2514,0.2514,0.2514,0.2514,0.2514,0.2356,0.1717,0.1326,0.1088,0.0,0.0,0.0,0.0,0.0,0.0,0.0,0.0,0.0,0.0,0.0,0.0,0.0,0.0,0.0,0.0,0.0,0.0,0.0,0.0,0.0,0.0,0.0,0.0,0.0,0.0,0.0,0.0,0.0,0.0,0.0,0.0,0.0,0.0,0.0,0.0,0.0,0.0,0.0,0.0,0.0,0.0,0.0,0.0,0.0,0.0,0.0,0.0,0.0,0.0,0.0,0.0,0.0,0.0,0.0,0.0,0.0,0.0,0.0,0.0,0.0,0.0,0.5714,0.5668,0.5608,0.5556,0.5515,0.5455,0.5431,0.5431,0.5431,0.5422,0.5403,0.5395,0.5384,0.5384,0.5384,0.5384,0.5384,0.5384,0.5384,0.5384,0.5384,0.5384,0.5384,0.5384,0.5384,0.5384,0.4878,0.4456,0.4036,0.3616,0.3197,0.2691,0.2672,0.2661,0.266,0.2657,0.2646,0.2616,0.2598,0.2582,0.2567,0.2541,0.2532,0.2525,0.2519,0.2514,0.2514,0.2514,0.2514,0.2357,0.1728,0.1333,0.1174,0.0,0.0,0.0,0.0,0.0,0.0,0.0,0.0,0.0,0.0,0.0,0.0,0.0,0.0,0.0,0.0,0.0,0.0,0.0,0.0,0.0,0.0,0.0,0.0,0.0,0.0,0.0,0.0,0.0,0.0,0.0,0.0,0.0,0.0,0.0,0.0,0.0,0.0,0.0,0.0,0.0,0.0,0.0,0.0,0.0,0.0,0.0,0.0,0.0,0.0,0.0,0.0,0.0,0.0,0.0,0.0,0.0,0.0,0.0,0.0,0.0,0.0,0.5739,0.573,0.5668,0.5638,0.5715,0.5572,0.5545,0.5531,0.554,0.551,0.5463,0.542,0.5401,0.5392,0.5398,0.5392,0.5387,0.5384,0.5384,0.5384,0.5384,0.5384,0.5384,0.5384,0.5384,0.53,0.4878,0.4456,0.4036,0.3617,0.3113,0.2774,0.2684,0.2687,0.2686,0.268,0.2671,0.2646,0.2632,0.2617,0.2597,0.2574,0.2557,0.2549,0.2532,0.2515,0.2515,0.2515,0.2514,0.2435,0.1728,0.1335,0.1177,0.047,0.0,0.0,0.0,0.0,0.0,0.0,0.0,0.0,0.0,0.0,0.0,0.0,0.0,0.0,0.0,0.0,0.0,0.0,0.0,0.0,0.0,0.0,0.0,0.0,0.0,0.0,0.0,0.0,0.0,0.0,0.0,0.0,0.0,0.0,0.0,0.0,0.0,0.0,0.0,0.0,0.0,0.0,0.0,0.0,0.0,0.0,0.0,0.0,0.0,0.0,0.0,0.0,0.0,0.0,0.0,0.0,0.0,0.0,0.0,0.0,0.0,0.5741,0.5739,0.5714,0.5684,0.5734,0.5586,0.5559,0.5559,0.5559,0.5551,0.5526,0.5501,0.5491,0.5482,0.5452,0.5442,0.5436,0.5398,0.539,0.5384,0.5384,0.5384,0.5384,0.5384,0.5384,0.53,0.4962,0.4456,0.4036,0.3617,0.3113,0.2861,0.2692,0.2692,0.2692,0.2692,0.2684,0.2673,0.2657,0.2557,0.2628,0.2601,0.2585,0.2582,0.2557,0.2544,0.254,0.2522,0.2517,0.2279,0.1729,0.1415,0.1178,0.0471,0.0,0.0,0.0,0.0,0.0,0.0,0.0,0.0,0.0,0.0,0.0,0.0,0.0,0.0,0.0,0.0,0.0,0.0,0.0,0.0,0.0,0.0,0.0,0.0,0.0,0.0,0.0,0.0,0.0,0.0,0.0,0.0,0.0,0.0,0.0,0.0,0.0,0.0,0.0,0.0,0.0,0.0,0.0,0.0,0.0,0.0,0.0,0.0,0.0,0.0,0.0,0.0,0.0,0.0,0.0,0.0,0.0,0.0,0.0,0.0,0.0,0.5831,0.5741,0.5741,0.5717,0.5673,0.5632,0.5613,0.5613,0.5616,0.56,0.5673,0.557,0.5559,0.5545,0.5609,0.5485,0.5466,0.5433,0.5403,0.5392,0.5384,0.5384,0.5384,0.5384,0.5384,0.53,0.513,0.4626,0.4036,0.3701,0.3281,0.2861,0.2692,0.2692,0.2692,0.2692,0.2692,0.2686,0.2675,0.2661,0.2657,0.2632,0.2615,0.2611,0.2587,0.2574,0.2568,0.2556,0.2541,0.2297,0.1818,0.142,0.1023,0.0,0.0,0.0,0.0,0.0,0.0,0.0,0.0,0.0,0.0,0.0,0.0,0.0,0.0,0.0,0.0,0.0,0.0,0.0,0.0,0.0,0.0,0.0,0.0,0.0,0.0,0.0,0.0,0.0,0.0,0.0,0.0,0.0,0.0,0.0,0.0,0.0,0.0,0.0,0.0,0.0,0.0,0.0,0.0,0.0,0.0,0.0,0.0,0.0,0.0,0.0,0.0,0.0,0.0,0.0,0.0,0.0,0.0,0.0,0.0,0.0,0.0,0.6186,0.5741,0.5741,0.5739,0.573,0.5736,0.5728,0.5717,0.5719,0.5695,0.5646,0.56,0.5575,0.5572,0.557,0.5534,0.5491,0.5472,0.5439,0.5395,0.5384,0.5384,0.5384,0.5384,0.5384,0.5384,0.5216,0.4794,0.4036,0.3952,0.3447,0.2945,0.2692,0.2692,0.2692,0.2692,0.2692,0.2691,0.2688,0.2687,0.268,0.2658,0.2649,0.2639,0.2617,0.2602,0.2598,0.2589,0.2574,0.248,0.1839,0.1514,0.1344,0.0632,0.0,0.0,0.0,0.0,0.0,0.0,0.0,0.0,0.0,0.0,0.0,0.0,0.0,0.0,0.0,0.0,0.0,0.0,0.0,0.0,0.0,0.0,0.0,0.0,0.0,0.0,0.0,0.0,0.0,0.0,0.0,0.0,0.0,0.0,0.0,0.0,0.0,0.0,0.0,0.0,0.0,0.0,0.0,0.0,0.0,0.0,0.0,0.0,0.0,0.0,0.0,0.0,0.0,0.0,0.0,0.0,0.0,0.0,0.0,0.0,0.0,0.6633,0.6276,0.6186,0.601,0.5741,0.5741,0.5741,0.5741,0.5739,0.5728,0.5711,0.5684,0.5679,0.567,0.563,0.5589,0.5534,0.5482,0.5442,0.5395,0.5392,0.5384,0.5387,0.5395,0.539,0.5384,0.53,0.4878,0.4036,0.3956,0.3449,0.2861,0.2697,0.2692,0.2692,0.2692,0.2692,0.2692,0.2691,0.2691,0.2691,0.2682,0.2675,0.2673,0.2646,0.2632,0.2631,0.2619,0.2602,0.259,0.1941,0.1774,0.1605,0.1043,0.0722,0.0562,0.0402,0.0322,0.0,0.0,0.0,0.0,0.0,0.0,0.0,0.0,0.0,0.0,0.0,0.0,0.0,0.0,0.0,0.0,0.0,0.0,0.0,0.0,0.0,0.0,0.0,0.0,0.0,0.0,0.0,0.0,0.0,0.0,0.0,0.0,0.0,0.0,0.0,0.0,0.0,0.0,0.0,0.0,0.0,0.0,0.0,0.0,0.0,0.0,0.0,0.0,0.0,0.0,0.0,0.0,0.0,0.0,0.0,0.0,0.0,0.7173,0.6723,0.6723,0.6458,0.601,0.5741,0.5741,0.5741,0.5741,0.5741,0.5739,0.5739,0.5736,0.5725,0.57,0.5649,0.5591,0.5556,0.5504,0.5452,0.5447,0.5455,0.545,0.5425,0.5425,0.5412,0.514,0.471,0.4038,0.3801,0.3386,0.2879,0.2707,0.2702,0.2698,0.2692,0.2692,0.2692,0.2692,0.2692,0.2692,0.269,0.269,0.2686,0.2673,0.2662,0.2657,0.2645,0.2627,0.254,0.229,0.2042,0.1876,0.1547,0.1221,0.0977,0.0732,0.0488,0.0,0.0,0.0,0.0,0.0,0.0,0.0,0.0,0.0,0.0,0.0,0.0,0.0,0.0,0.0,0.0,0.0,0.0,0.0,0.0,0.0,0.0,0.0,0.0,0.0,0.0,0.0,0.0,0.0,0.0,0.0,0.0,0.0,0.0,0.0,0.0,0.0,0.0,0.0,0.0,0.0,0.0,0.0,0.0,0.0,0.0,0.0,0.0,0.0,0.0,0.0,0.0,0.0,0.0,0.0,0.0,0.0,0.762,0.7263,0.7263,0.6994,0.6454,0.6007,0.5741,0.5741,0.5741,0.5741,0.5741,0.5741,0.5741,0.5741,0.5736,0.5698,0.5649,0.5723,0.5591,0.5556,0.5529,0.5537,0.5523,0.5499,0.5482,0.5288,0.5015,0.4666,0.4052,0.3576,0.3081,0.2824,0.2739,0.2725,0.2709,0.2701,0.2698,0.2695,0.2692,0.2692,0.2692,0.2692,0.2692,0.269,0.2686,0.2684,0.2683,0.2679,0.2667,0.2491,0.2234,0.2139,0.1882,0.163,0.1466,0.1223,0.098,0.0491,0.0,0.0,0.0,0.0,0.0,0.0,0.0,0.0,0.0,0.0,0.0,0.0,0.0,0.0,0.0,0.0,0.0,0.0,0.0,0.0,0.0,0.0,0.0,0.0,0.0,0.0,0.0,0.0,0.0,0.0,0.0,0.0,0.0,0.0,0.0,0.0,0.0,0.0,0.0,0.0,0.0,0.0,0.0,0.0,0.0,0.0,0.0,0.0,0.0,0.0,0.0,0.0,0.0,0.0,0.0,0.0,0.0,0.8157,0.7706,0.771,0.7442,0.6994,0.6454,0.6099,0.5741,0.5741,0.5741,0.5741,0.5741,0.5741,0.5741,0.5739,0.5703,0.5673,0.5731,0.5695,0.5586,0.5578,0.5567,0.5556,0.5548,0.5537,0.5356,0.4999,0.455,0.4046,0.3461,0.303,0.277,0.277,0.2751,0.2735,0.2724,0.2712,0.2699,0.2695,0.2695,0.2695,0.2697,0.2697,0.2697,0.2697,0.2697,0.2692,0.2692,0.2683,0.2596,0.251,0.2504,0.2502,0.2333,0.2251,0.175,0.1167,0.0584,0.05,0.0,0.0,0.0,0.0,0.0,0.0,0.0,0.0,0.0,0.0,0.0,0.0,0.0,0.0,0.0,0.0,0.0,0.0,0.0,0.0,0.0,0.0,0.0,0.0,0.0,0.0,0.0,0.0,0.0,0.0,0.0,0.0,0.0,0.0,0.0,0.0,0.0,0.0,0.0,0.0,0.0,0.0,0.0,0.0,0.0,0.0,0.0,0.0,0.0,0.0,0.0,0.0,0.0,0.0,0.0,0.0,0.8429,0.8157,0.8157,0.7889,0.7442,0.6991,0.6544,0.6279,0.592,0.5741,0.5741,0.5741,0.5741,0.5741,0.5739,0.5722,0.5695,0.5692,0.567,0.5657,0.5624,0.564,0.5632,0.5605,0.5597,0.5417,0.4964,0.442,0.4005,0.3322,0.2801,0.2801,0.2801,0.2782,0.2761,0.2742,0.2728,0.2713,0.2702,0.2702,0.2706,0.2709,0.271,0.2709,0.2709,0.2705,0.2692,0.2692,0.2692,0.2692,0.2692,0.2691,0.2691,0.2691,0.2439,0.1932,0.1428,0.0924,0.0672,0.0252,0.0,0.0,0.0,0.0,0.0,0.0,0.0,0.0,0.0,0.0,0.0,0.0,0.0,0.0,0.0,0.0,0.0,0.0,0.0,0.0,0.0,0.0,0.0,0.0,0.0,0.0,0.0,0.0,0.0,0.0,0.0,0.0,0.0,0.0,-0.0084,-0.0084,0.0,0.0,0.0,0.0,0.0,0.0,0.0,0.0,0.0,0.0,0.0,0.0,0.0,0.0,0.0,0.0,0.0,0.0,0.0,0.8607,0.8607,0.8607,0.825,0.7889,0.7442,0.7173,0.7084,0.6279,0.5831,0.592,0.5831,0.592,0.592,0.5918,0.5741,0.5728,0.5725,0.5722,0.5736,0.5714,0.5711,0.57,0.5687,0.5662,0.5374,0.492,0.4385,0.3941,0.3344,0.2831,0.2831,0.2831,0.2816,0.2788,0.2769,0.2755,0.2742,0.2727,0.272,0.2731,0.2737,0.274,0.2651,0.2645,0.2724,0.2701,0.2692,0.2692,0.2692,0.2692,0.2692,0.2692,0.2692,0.2439,0.2103,0.1682,0.1262,0.0842,0.0421,0.0168,0.0,0.0,0.0,0.0,0.0,0.0,0.0,0.0,0.0,0.0,0.0,0.0,0.0,0.0,0.0,0.0,0.0,0.0,0.0,0.0,0.0,0.0,0.0,0.0,0.0,0.0,0.0,0.0,0.0,0.0,0.0,0.0,0.0,-0.0168,-0.0168,-0.0253,0.0,-0.0169,0.0,0.0,0.0,0.0,0.0,0.0,0.0,0.0,0.0,0.0,0.0,0.0,0.0,0.0,0.0,0.0,0.8607,0.8607,0.8607,0.8339,0.7889,0.7799,0.7531,0.7173,0.6994,0.6815,0.6815,0.6815,0.6547,0.6276,0.6276,0.6097,0.5741,0.5741,0.5741,0.5739,0.5741,0.5741,0.5741,0.5719,0.5714,0.5536,0.5078,0.4351,0.3732,0.321,0.2861,0.2861,0.286,0.2844,0.2819,0.2801,0.2791,0.2773,0.2765,0.2748,0.2747,0.2759,0.2766,0.275,0.2737,0.2725,0.2706,0.2692,0.2692,0.2692,0.2692,0.2692,0.2692,0.2692,0.2608,0.244,0.2018,0.1514,0.1094,0.0674,0.0337,0.0,0.0,0.0,0.0,0.0,0.0,0.0,0.0,0.0,0.0,0.0,0.0,0.0,0.0,0.0,0.0,0.0,0.0,0.0,0.0,0.0,0.0,0.0,0.0,0.0,0.0,0.0,0.0,0.0,0.0,0.0,0.0,0.0,0.0,-0.0253,-0.0254,-0.017,-0.0085,0.0,0.0,0.0,0.0,0.0,0.0,0.0,0.0,0.0,0.0,0.0,0.0,0.0,0.0,0.0,0.0,0.8607,0.8607,0.8607,0.8429,0.825,0.8246,0.8067,0.7892,0.7803,0.7803,0.7713,0.7352,0.6905,0.6544,0.6544,0.6183,0.5739,0.5741,0.5741,0.5741,0.5736,0.5741,0.5741,0.5741,0.5736,0.5559,0.4933,0.4212,0.368,0.3142,0.2872,0.2874,0.2872,0.2866,0.2845,0.2837,0.2822,0.2804,0.2803,0.2793,0.2777,0.2791,0.2797,0.278,0.2762,0.2743,0.2717,0.2702,0.2692,0.2692,0.2692,0.2692,0.2692,0.2692,0.2692,0.244,0.2103,0.1598,0.1262,0.0759,0.0337,0.0,0.0,0.0,0.0,0.0,0.0,0.0,0.0,0.0,0.0,0.0,0.0,0.0,0.0,0.0,0.0,0.0,0.0,0.0,0.0,0.0,0.0,0.0,0.0,0.0,0.0,0.0,0.0,0.0,0.0,0.0,0.0,0.0,0.0,-0.0338,-0.017,-0.017,-0.0086,0.0,0.0,0.0,0.0,0.0,0.0,0.0,0.0,0.0,0.0,0.0,0.0,0.0,0.0,0.0,0.0,0.8607,0.8607,0.8607,0.8607,0.8697,0.8697,0.8697,0.8786,0.8786,0.8697,0.8607,0.7889,0.7173,0.6723,0.6544,0.618,0.5904,0.5714,0.5719,0.5722,0.5722,0.5728,0.5736,0.5741,0.5741,0.5473,0.4935,0.4305,0.3768,0.3321,0.3053,0.2964,0.2874,0.2874,0.2866,0.2852,0.2834,0.2834,0.2834,0.2834,0.2833,0.2833,0.2825,0.2815,0.28,0.2772,0.274,0.2721,0.2705,0.2707,0.2714,0.2716,0.271,0.271,0.2712,0.2543,0.2031,0.1609,0.1186,0.0679,0.0254,0.0,0.0,0.0,0.0,0.0,0.0,0.0,0.0,0.0,0.0,0.0,0.0,0.0,0.0,0.0,0.0,0.0,0.0,0.0,0.0,0.0,0.0,0.0,0.0,0.0,0.0,0.0,0.0,0.0,0.0,0.0,0.0,0.0,0.0,0.0,0.0,-0.0173,0.0,0.0,0.0,0.0,0.0,0.0,0.0,0.0,0.0,0.0,0.0,0.0,0.0,0.0,0.0,0.0,0.0,0.8607,0.8607,0.8607,0.8786,0.9143,0.9143,0.9411,0.9674,0.9674,0.9496,0.9143,0.8964,0.8335,0.7084,0.7084,0.6618,0.5861,0.577,0.5673,0.5668,0.5689,0.5711,0.5728,0.5741,0.5741,0.5473,0.5114,0.4664,0.4126,0.3678,0.3321,0.3053,0.2964,0.2964,0.2964,0.2952,0.2949,0.2859,0.286,0.286,0.2861,0.2852,0.283,0.2819,0.281,0.278,0.2758,0.2759,0.2763,0.2766,0.2761,0.2759,0.2751,0.274,0.274,0.2572,0.2053,0.1626,0.12,0.0688,0.0,0.0,0.0,0.0,0.0,0.0,0.0,0.0,0.0,0.0,0.0,0.0,0.0,0.0,0.0,0.0,0.0,0.0,0.0,0.0,0.0,0.0,0.0,0.0,0.0,0.0,0.0,0.0,0.0,0.0,0.0,0.0,0.0,0.0,0.0,0.0,0.0,0.0,0.0,0.0,0.0,0.0,0.0,0.0,0.0,0.0,0.0,0.0,0.0,0.0,0.0,0.0,0.0,0.0,0.0]}]]